     2              OBSERVATION DATA    GPS                 RINEX VERSION / TYPE
teqc 1998Mar9 19981223 02:15:04UTC                          PGM / RUN BY / DATE
                                                            COMMENT
Original Marker Name: T448                                  COMMENT
Campaign Name: HPGN 1998                                    COMMENT
4-Character Station Name: T448                              COMMENT
6-Character Antenna Code: TRMCMP                            COMMENT
Vertical Measurement Point: BPA                             COMMENT
Vertical Offset to Rinex Ref. Point: 0.0000                 COMMENT
Radial Measurement Point: RRP                               COMMENT
Radial Offset to Rinex Ref. Point: 0.0000                   COMMENT
Antenna Height from Field Measurement: 1.8000 m             COMMENT
Original XYZ: -2405186.9051 -4719939.5353 3541539.4877      COMMENT
New XYZ position is based on association with SCEC monument COMMENT
E1D0P8S0+0011. Position of that monument is believed to be  COMMENT
valid to within 1 m horizontally; vertical accuracy         COMMENT
should be no worse than 3-times this value.                 COMMENT
                                                            COMMENT
Revised Rinex header created by UCSD GPS archive for        COMMENT
GSAC on 31-Aug-1999 (1999:243) 19:49:28 GMT                 COMMENT
For assistance contact dagnew@ucsd.edu or hjohnson@ucsd.edu COMMENT
                                                            COMMENT
T448 RESET                                                  MARKER NAME
unknown CALIF DEPT TRANSPORTATION                           OBSERVER / AGENCY
2233 TRIMBLE 4000 SSI NP 7.26; SP 3.07                      REC # / TYPE / VERS
80463 TR GEOD L1/L2 GP                                      ANT # / TYPE
 -2405183.0000 -4719942.0000  3541544.0000                  APPROX POSITION XYZ
        1.8000        0.0000        0.0000                  ANTENNA: DELTA H/E/N
     1     1     0                                          WAVELENGTH FACT L1/2
     7    C1    L1    L2    P1    P2    S1    S2            # / TYPES OF OBSERV
     0                                                      INTERVAL
  1998     6    12    15    57   15.000000                  TIME OF FIRST OBS
  1998     6    12    21    27    0.000000                  TIME OF LAST OBS
                                                            END OF HEADER
 98  6 12 15 57 15.0000000  0  7G 2G 4G 8G 7G 9G24G 5
  23608503.9694    7415289.62955   6833488.46856                  23608514.1214
        11.7504         13.2504
  20758332.2974   -9927564.88958  -7735762.43057                  20758338.3094
        31.7504         30.2504
  23024949.4924   -8261263.70056  -6228925.69156                  23024956.6804
        13.0004         13.5004
  22653700.0234    9633681.80156   7506758.26156                  22653708.0784
        19.7504         19.2504
  21498270.3914   -9673398.61958  -7537713.03257                  21498276.5314
        31.2504         31.0004
  21405150.3524  -12862540.86457  -9877070.20257                  21405158.1024
        27.7504         28.2504
  23065572.2584   -9617803.71556  -1386880.28256                  23065579.4694
        15.2504         15.7504
 98  6 12 15 57 30.0000000  0  7G 2G 4G 8G 7G 9G24G 5
  23615398.6954    7451519.67346   6861719.61246                  23615408.4964
        12.2504         13.2504
  20757613.9304   -9931340.69348  -7738704.61747                  20757619.9774
        31.7504         30.2504
  23017202.7114   -8301976.41346  -6260649.87846                  23017209.6524
        14.2504         13.5004
  22659947.3364    9666511.46546   7532339.77846                  22659955.2854
        19.2504         19.0004
  21497240.3204   -9678811.88348  -7541931.17347                  21497246.4384
        31.0004         31.0004
  21398258.8134  -12898757.84948  -9905291.21047                  21398266.3284
        28.0004         28.7504
  23057873.7114   -9658258.33846  -1418403.34346                  23057880.5824
        15.2504         15.5004
 98  6 12 15 57 45.0000000  0  7G 2G 4G 8G 7G 9G24G 5
  23622305.0394    7487811.71746   6889999.07346                  23622313.4804
        12.2504         13.0004
  20756924.2504   -9934963.88748  -7741527.88547                  20756930.1914
        31.7504         30.0004
  23009475.2664   -8342582.84346  -6292291.24746                  23009482.5234
        14.5004         13.7504
  22666198.2974    9699359.84247   7557935.89346                  22666205.9304
        20.2504         19.5004
  21496237.5394   -9684081.29048  -7546037.21947                  21496243.9144
        31.2504         31.2504
  21391386.9924  -12934868.66348  -9933429.48947                  21391394.3094
        28.7504         28.7504
  23050178.7424   -9698696.69446  -1449913.74246                  23050186.4344
        15.5004         16.0004
 98  6 12 15 58  0.0000000  0  7G 2G 4G 8G 7G 9G24G 5
  23629222.3134    7524161.91346   6918323.86046                  23629231.0354
        12.5004         13.5004
  20756264.3984   -9938432.04848  -7744230.34647                  20756270.4924
        32.2504         30.0004
  23001768.3984   -8383083.33646  -6323850.05946                  23001775.7854
        14.2504         14.2504
  22672452.0944    9732224.03047   7583544.32546                  22672459.1884
        20.2504         18.7504
  21495261.0634   -9689211.72148  -7550034.96547                  21495267.4264
        31.7504         31.2504
  21384535.2504  -12970874.38448  -9961485.87547                  21384542.5664
        28.0004         28.5004
  23042486.9384   -9739117.40546  -1481410.39746                  23042494.6764
        15.5004         16.5004
 98  6 12 15 58 15.0000000  0  7G 2G 4G 8G 7G 9G24G 5
  23636150.4304    7560573.63546   6946696.56146                  23636159.2584
        12.7504         14.0004
  20755635.0084   -9941739.23448  -7746807.37347                  20755640.9144
        32.0004         30.0004
  22994081.9304   -8423475.36746  -6355324.34146                  22994089.1764
        14.0004         14.0004
  22678709.6724    9765108.19846   7609168.32046                  22678716.6724
        19.7504         18.7504
  21494311.6724   -9694201.46848  -7553923.09147                  21494318.0704
        31.5004         31.0004
  21377704.0314  -13006772.96547  -9989458.76947                  21377711.3594
        27.5004         28.7504
  23034799.2274   -9779516.45246  -1512890.17046                  23034806.6954
        15.7504         16.5004
 98  6 12 15 58 30.0000000  0  7G 2G 4G 8G 7G 9G24G 5
  23643092.8834    7597055.48046   6975123.90846                  23643100.7504
        12.7504         13.2504
  20755036.9224   -9944881.15348  -7749255.62747                  20755042.8524
        32.0004         29.7504
  22986417.1484   -8463754.78446  -6386710.92246                  22986425.0744
        13.2504         14.0004
  22684971.6954    9798015.69446   7634810.49646                  22684978.4804
        19.7504         18.7504
  21493390.3754   -9699043.18448  -7557695.86447                  21493396.4344
        31.7504         31.0004
  21370894.3134  -13042557.87747 -10017343.09647                  21370901.6414
        27.2504         28.7504
  23027116.6094   -9819888.53346  -1544348.89146                  23027124.1954
        16.2504         16.2504
 98  6 12 15 58 45.0000000  0  7G 2G 4G 8G 7G 9G24G 5
  23650048.7504    7633606.33046   7003605.04146                  23650058.3164
        12.5004         13.5004
  20754469.5864   -9947862.78648  -7751578.98547                  20754475.5984
        32.0004         29.2504
  22978772.0784   -8503928.59646  -6418015.16846                  22978779.4184
        12.2504         13.7504
  22691237.0084    9830940.03846   7660465.80746                  22691244.1374
        19.7504         18.7504
  21492496.3834   -9703739.94848  -7561355.69247                  21492502.4184
        31.7504         31.0004
  21364105.2424  -13078234.74247 -10045143.22647                  21364112.5234
        27.7504         28.7504
  23019439.0164   -9860236.38846  -1575788.78846                  23019446.4024
        16.5004         17.0004
 98  6 12 15 59  0.0000000  0  7G 2G 4G 8G 7G 9G24G 5
  23657018.8054    7670233.62346   7032145.72646                  23657028.1374
        12.7504         13.5004
  20753933.7034   -9950679.84148  -7753774.09147                  20753939.5864
        31.7504         29.0004
  22971148.3984   -8543992.18346  -6449233.51546                  22971155.6214
        13.0004         14.0004
  22697506.5784    9863884.65547   7686136.90546                  22697513.6254
        20.0004         18.7504
  21491630.3364   -9708290.11448  -7564901.29047                  21491636.5474
        30.7504         30.7504
  21357338.1174  -13113796.83548 -10072853.92947                  21357345.4804
        28.2504         29.0004
  23011767.0164   -9900551.83946  -1607203.40746                  23011774.2974
        16.5004         16.2504
 98  6 12 15 59 15.0000000  0  7G 2G 4G 8G 7G 9G24G 5
  23664003.4144    7706937.57046   7060746.14746                  23664012.8404
        13.0004         13.5004
  20753428.3134   -9953335.11148  -7755843.13947                  20753434.3014
        31.2504         29.0004
  22963545.3444   -8583946.38846  -6480366.66846                  22963553.1524
        13.2504         14.7504
  22703778.8984    9896846.45747   7711821.39446                  22703786.1564
        20.2504         19.2504
  21490791.4064   -9712698.62748  -7568336.49947                  21490797.8054
        30.2504         31.0004
  21350592.7114  -13149243.58547 -10100474.74947                  21350600.1334
        27.5004         28.5004
  23004101.5084   -9940835.42046  -1638593.19546                  23004108.6374
        16.7504         16.5004
 98  6 12 15 59 30.0000000  0  7G 2G 4G 8G 7G 9G24G 5
  23671001.8984    7743713.75446   7089402.85246                  23671011.5354
        12.7504         13.5004
  20752953.8134   -9955828.66748  -7757786.17347                  20752959.7424
        31.7504         29.0004
  22955963.4614   -8623792.67146  -6511415.70646                  22955970.6134
        14.0004         14.7504
  22710053.9614    9929823.49646   7737517.76646                  22710061.6524
        19.7504         19.2504
  21489978.7114   -9716971.06348  -7571665.67947                  21489985.2274
        30.7504         31.0004
  21343868.6414  -13184578.15347 -10128008.16447                  21343876.2854
        27.0004         28.5004
  22996440.7974   -9981092.70946  -1669962.50446                  22996448.1724
        16.5004         16.5004
 98  6 12 15 59 45.0000000  0  7G 2G 4G 8G 7G 9G24G 5
  23678012.8914    7780556.80146   7118111.65446                  23678022.1764
        12.7504         13.5004
  20752509.6334   -9958162.45248  -7759604.70847                  20752515.6094
        31.2504         29.0004
  22948400.3204   -8663534.22046  -6542383.13546                  22948407.6844
        13.2504         14.2504
  22716331.6804    9962812.76647   7763223.65146                  22716339.3714
        20.0004         19.2504
  21489190.7034   -9721111.20548  -7574891.77547                  21489197.1134
        31.5004         31.2504
  21337164.8984  -13219806.20948 -10155458.57247                  21337172.2854
        28.0004         28.7504
  22988783.5784  -10021330.03746  -1701316.25346                  22988790.6374
        16.7504         17.0004
 98  6 12 16  0  0.0000000  0  7G 2G 4G 8G 7G 9G24G 5
  23685036.3594    7817464.66146   7146870.96946                  23685045.2814
        12.7504         13.5004
  20752095.3594   -9960339.76548  -7761301.32247                  20752101.3364
        31.5004         29.2504
  22940857.7504   -8703169.51646  -6573267.76946                  22940864.9494
        12.7504         14.2504
  22722612.1174    9995813.98447   7788938.85646                  22722619.4104
        20.0004         19.0004
  21488428.6414   -9725116.03648  -7578012.42847                  21488434.6994
        32.0004         31.0004
  21330481.5554  -13254928.56348 -10182826.62247                  21330488.9884
        28.2504         29.0004
  22981130.6564  -10061547.20646  -1732654.29246                  22981137.9494
        16.5004         16.7504
 98  6 12 16  0 15.0000000  0  7G 2G 4G 8G 7G 9G24G 5
  23692072.5704    7854441.02746   7175683.67646                  23692081.8674
        12.7504         14.0004
  20751710.7194   -9962361.15548  -7762876.43647                  20751716.6844
        31.5004         29.2504
  22933336.7664   -8742695.58246  -6604067.29146                  22933344.3754
        12.5004         14.0004
  22728895.0084   10028832.14846   7814667.26946                  22728902.3954
        19.2504         19.2504
  21487693.8594   -9728977.43848  -7581021.32047                  21487699.9774
        32.0004         31.5004
  21323819.1564  -13289939.13648 -10210107.57147                  21323826.4844
        28.5004         29.2504
  22973481.8834  -10101742.04746  -1763974.93146                  22973489.2234
        16.5004         16.7504
 98  6 12 16  0 30.0000000  0  7G 2G 4G 8G 7G 9G24G 5
  23699121.3364    7891484.25445   7204548.46346                  23699131.7114
        11.7504         13.2504
  20751354.8134   -9964231.56348  -7764333.90247                  20751360.6724
        32.0004         29.7504
  22925835.3444   -8782113.73046  -6634782.71846                  22925843.3404
        12.5004         14.2504
  22735181.2344   10061865.46646   7840407.47746                  22735189.2194
        19.7504         19.2504
  21486986.3054   -9732695.92748  -7583918.85047                  21486992.3754
        32.0004         31.2504
  21317178.0474  -13324838.48548 -10237301.84747                  21317185.3754
        28.5004         29.0004
  22965836.7424  -10141916.80746  -1795279.92646                  22965844.6564
        16.0004         17.0004
 98  6 12 16  0 45.0000000  0  7G 2G 4G 8G 7G 9G24G 5
  23706183.1884    7928592.40846   7233463.83446                  23706192.9184
        12.5004         13.2504
  20751027.2814   -9965952.73248  -7765675.07547                  20751033.1994
        31.5004         30.0004
  22918354.9224   -8821421.98846  -6665412.49746                  22918363.4224
        12.7504         14.7504
  22741469.6724   10094912.57746   7866158.44446                  22741477.3054
        19.5004         18.7504
  21486305.3284   -9736274.40048  -7586707.27647                  21486311.3054
        32.0004         31.0004
  21310558.0004  -13359627.96448 -10264410.51447                  21310565.1524
        28.2504         29.2504
  22958195.0864  -10182073.14146  -1826570.55546                  22958202.7774
        16.5004         16.5004
 98  6 12 16  1  0.0000000  0  7G 2G 4G 8G 7G 9G24G 5
  23713256.8754    7965762.84246   7262427.78846                  23713266.7584
        12.2504         13.2504
  20750727.6254   -9967527.05248  -7766901.81947                  20750733.5904
        31.5004         30.2504
  22910896.0164   -8860619.69146  -6695956.16446                  22910903.9414
        13.2504         14.7504
  22747760.4534   10127971.53846   7891918.63946                  22747768.6024
        19.0004         19.0004
  21485650.7424   -9739715.15748  -7589388.39347                  21485656.9884
        31.7504         31.2504
  21303958.6954  -13394306.91448 -10291433.05147                  21303965.7544
        29.2504         29.0004
  22950556.8054  -10222214.18246  -1857849.28346                  22950564.4844
        16.5004         16.7504
 98  6 12 16  1 15.0000000  0  8G 2G 4G 8G 7G 9G24G 5G16
  23720341.9224    8002997.19445   7291441.49446                  23720351.1484
        11.0004         13.0004
  20750456.6724   -9968950.94648  -7768011.34747                  20750462.7664
        30.5004         30.5004
  22903459.4144   -8899699.55646  -6726407.98646                  22903466.6954
        14.2504         15.2504
  22754054.3284   10161045.37546   7917690.43246                  22754062.2664
        19.0004         18.7504
  21485023.4614   -9743011.11548  -7591956.68047                  21485029.5904
        31.5004         31.0004
  21297381.1884  -13428871.08448 -10318366.16047                  21297388.1414
        29.0004         29.2504
  22942921.2894  -10262336.74146  -1889113.60046                  22942928.9104
        16.2504         16.5004
  24873514.5004      -1759.45254
         6.7504
 98  6 12 16  1 30.0000000  0  8G 2G 4G 8G 7G 9G24G 5G16
  23727437.4144    8040286.65345   7320498.17746                  23727446.4064
        11.2504         12.5004
  20750213.1724   -9970230.89548  -7769008.70647                  20750219.2194
        30.7504         30.7504
  22896044.0164   -8938668.36746  -6756773.27946                  22896051.4844
        14.7504         15.2504
  22760349.9304   10194128.02146   7943469.09246                  22760358.1024
        19.0004         18.7504
  21484423.9454   -9746162.14248  -7594412.03847                  21484430.0044
        31.5004         30.5004
  21290824.6884  -13463327.15448 -10345215.02847                  21290831.8284
        29.0004         29.0004
  22935288.3914  -10302449.48346  -1920370.27446                  22935296.3284
        16.0004         16.7504
  24871015.2734     -14895.53544
         6.7504
 98  6 12 16  1 45.0000000  0  8G 2G 4G 8G 7G 9G24G 5G16
  23734545.6724    8077638.06645   7349603.10746                  23734555.8244
        11.5004         12.7504
  20749997.7734   -9971363.38148  -7769891.16347                  20750003.8554
        31.5004         31.0004
  22888650.9224   -8977520.45946  -6787047.63446                  22888657.9454
        15.2504         15.2504
  22766647.9384   10227224.54746   7969258.55746                  22766656.1804
        18.7504         18.5004
  21483853.8364   -9749158.21048  -7596746.64247                  21483859.8834
        31.2504         30.5004
  21284289.5004  -13497668.00648 -10371974.12047                  21284296.7814
        28.0004         29.0004
  22927658.4454  -10342545.62946  -1951614.00846                  22927666.1604
        16.0004         16.5004
  24868537.1884     -27916.04344
         6.2504
 98  6 12 16  2  0.0000000  0  8G 2G 4G 8G 7G 9G24G 5G16
  23741665.9844    8115053.46645   7378757.92446                  23741675.2934
        11.5004         12.7504
  20749809.3204   -9972351.97548  -7770661.49347                  20749815.3794
        31.5004         31.2504
  22881279.8284   -9016254.89046  -6817230.30646                  22881286.6134
        14.7504         15.5004
  22772948.4384   10260334.39446   7995058.39646                  22772956.7274
        18.5004         18.7504
  21483313.5314   -9751997.46048  -7598959.05547                  21483319.7074
        31.2504         30.2504
  21277776.5084  -13531892.83047 -10398642.80147                  21277784.2114
        27.5004         29.0004
  22920032.0164  -10382621.36046  -1982841.85646                  22920039.9414
        15.5004         16.2504
  24866081.6564     -40821.61143
         6.0004
 98  6 12 16  2 15.0000000  0  8G 2G 4G 8G 7G 9G24G 5G16
  23748797.1564    8152528.23345   7407958.97346                  23748806.2424
        11.2504         12.5004
  20749647.6094   -9973202.83148  -7771324.49147                  20749653.6334
        30.7504         31.0004
  22873930.0704   -9054878.04646  -6847326.26046                  22873937.2704
        14.7504         15.5004
  22779250.1024   10293449.29846   8020862.19046                  22779258.5084
        18.2504         18.5004
  21482801.6644   -9754686.34748  -7601054.29647                  21482807.6054
        31.5004         30.5004
  21271285.1484  -13566005.51547 -10425224.09247                  21271292.9924
        27.2504         28.7504
  22912408.5944  -10422682.96946  -2014058.66246                  22912416.7074
        15.0004         16.5004
  24863646.4384     -53618.91043
         6.0004
 98  6 12 16  2 30.0000000  0  8G 2G 4G 8G 7G 9G24G 5G16
  23755939.0474    8190061.55345   7437205.66946                  23755949.1174
        10.5004         12.2504
  20749512.3364   -9973914.49248  -7771879.03447                  20749518.5474
        30.0004         30.7504
  22866601.0164   -9093391.93846  -6877337.07346                  22866608.3324
        14.7504         15.7504
  22785552.3754   10326568.85246   8046669.59146                  22785560.8524
        18.2504         18.2504
  21482317.8674   -9757228.74948  -7603035.40347                  21482323.8324
        32.2504         30.2504
  21264814.8914  -13600006.58847 -10451718.42347                  21264822.8874
        26.7504         28.5004
  22904788.0164  -10462729.17946  -2045263.48646                  22904795.8834
        15.2504         16.5004
  24861232.0164     -66307.48144      -655.92855                  24861243.3874
         6.2504          8.0004
 98  6 12 16  2 45.0000000  0  8G 2G 4G 8G 7G 9G24G 5G16
  23763094.5234    8227660.56845   7466503.54346                  23763104.3244
        11.2504         12.0004
  20749404.7974   -9974478.38548  -7772318.43247                  20749410.9844
        29.7504         30.7504
  22859293.5084   -9131791.20646  -6907258.56846                  22859300.8134
        15.2504         16.0004
  22791857.0084   10359699.12046   8072485.35746                  22791865.4964
        18.2504         18.5004
  21481862.5704   -9759622.57748  -7604900.73147                  21481868.5944
        31.7504         30.5004
  21258366.9384  -13633891.21347 -10478122.01347                  21258374.4654
        26.5004         28.2504
  22897171.3674  -10502754.65246  -2076452.15046                  22897179.3164
        15.5004         16.7504
  24858838.4924     -78883.39244    -10455.35045                  24858851.2344
         6.5004          8.0004
 98  6 12 16  3  0.0000000  0  8G 2G 4G 8G 7G 9G24G 5G16
  23770262.6724    8265327.76845   7495854.56146                  23770272.0634
        10.5004         12.5004
  20749325.5634   -9974895.42648  -7772643.39947                  20749331.6914
        30.2504         30.7504
  22852008.7114   -9170075.54646  -6937090.50846                  22852016.1094
        15.7504         16.5004
  22798163.6334   10392842.63646   8098311.44546                  22798171.5594
        18.0004         17.7504
  21481435.9144   -9761864.63248  -7606647.79747                  21481441.9384
        31.2504         30.5004
  21251941.4224  -13667657.23747 -10504433.18747                  21251949.1724
        26.5004         28.2504
  22889558.8834  -10542759.84046  -2107625.00146                  22889566.7274
        15.2504         16.7504
  24856467.7274     -91344.28944    -20165.11445                  24856482.5084
         6.7504          7.5004
 98  6 12 16  3 15.0000000  0  8G 2G 4G 8G 7G 9G24G 5G16
  23777442.8984    8303064.38045   7525259.66045                  23777452.4884
        10.7504         11.5004
  20749274.1094   -9975164.58048  -7772853.12747                  20749280.2274
        31.0004         30.2504
  22844745.3204   -9208244.89346  -6966832.84046                  22844752.4384
        15.7504         16.7504
  22804473.1414   10425999.47146   8124147.90746                  22804481.2894
        18.2504         18.0004
  21481038.2274   -9763953.38848  -7608275.40647                  21481044.2624
        30.7504         30.2504
  21245538.3204  -13701306.10847 -10530653.07247                  21245545.7894
        26.7504         28.2504
  22881950.3284  -10582742.61146  -2138780.39446                  22881958.0204
        15.7504         17.0004
  24854118.5864    -103689.11244    -29784.42445                  24854130.7894
         6.5004          7.7504
 98  6 12 16  3 30.0000000  0  8G 2G 4G 8G 7G 9G24G 5G16
  23784636.6094    8340868.48545   7554717.36845                  23784645.0864
        11.0004         11.7504
  20749251.4384   -9975284.66548  -7772946.69547                  20749257.5204
        30.7504         30.2504
  22837503.3754   -9246301.70546  -6996487.49446                  22837510.5274
        16.5004         17.0004
  22810785.3674   10459169.59046   8149994.73946                  22810793.5274
        18.0004         18.0004
  21480668.9454   -9765894.80348  -7609788.20147                  21480675.0044
        30.5004         30.0004
  21239156.5004  -13734841.79147 -10556784.76947                  21239163.8164
        26.5004         28.5004
  22874345.6884  -10622705.09546  -2169919.97046                  22874353.8014
        16.2504         16.7504
  24851790.1414    -115919.76944    -39314.78345                  24851802.1684
         6.2504          7.7504
 98  6 12 16  3 45.0000000  0  8G 2G 4G 8G 7G 9G24G 5G16
  23791843.7974    8378739.30545   7584227.04745                  23791853.5984
        10.0004         11.7504
  20749256.3594   -9975258.03948  -7772925.94947                  20749262.4184
        31.2504         29.5004
  22830282.4844   -9284248.27446  -7026056.22446                  22830289.2934
        16.7504         16.5004
  22817100.4924   10492354.63946   8175853.17546                  22817108.9804
        17.0004         17.7504
  21480326.0944   -9767696.55948  -7611192.17247                  21480332.2344
        30.2504         29.7504
  21232796.3284  -13768264.36247 -10582828.31147                  21232803.7274
        26.5004         28.5004
  22866744.6094  -10662648.50346  -2201044.68246                  22866752.2424
        16.0004         17.0004
  24849484.4064    -128039.53944    -48758.72745                  24849496.5164
         6.7504          7.5004
 98  6 12 16  4  0.0000000  0  8G 2G 4G 8G 7G 9G24G 5G16
  23799062.6644    8416675.17345   7613787.39745                  23799072.2544
         9.7504         11.5004
  20749289.8594   -9975082.89048  -7772789.47647                  20749295.9064
        31.2504         29.0004
  22823082.1174   -9322084.53046  -7055539.02646                  22823089.6094
        15.7504         16.2504
  22823417.9774   10525554.76046   8201723.37146                  22823427.1684
        16.7504         17.7504
  21480008.3284   -9769365.19848  -7612492.41847                  21480014.4454
        30.2504         29.7504
  21226457.4694  -13801574.45047 -10608784.20747                  21226465.1374
        26.2504         28.5004
  22859147.4064  -10702573.21046  -2232154.82946                  22859154.9574
        15.7504         17.0004
  24847199.5004    -140051.32945    -58118.47845                  24847213.3094
         7.5004          7.7504
 98  6 12 16  4 15.0000000  0  8G 2G 4G 8G 7G 9G24G 5G16
  23806293.9844    8454679.92645   7643401.45945                  23806302.6604
         9.7504         11.5004
  20749353.0004   -9974751.08148  -7772530.92547                  20749358.9884
        31.0004         29.0004
  22815904.8204   -9359801.99946  -7084929.24646                  22815912.1484
        15.7504         16.0004
  22829739.9614   10558775.91346   8227609.94846                  22829748.8014
        16.0004         17.0004
  21479717.1414   -9770896.18048  -7613685.39747                  21479723.1884
        30.5004         29.7504
  21220141.9694  -13834763.52747 -10634645.81147                  21220149.6374
        26.5004         28.5004
  22851554.6484  -10742471.68346  -2263244.53246                  22851561.6134
        15.7504         16.0004
  24844936.1334    -151948.73345    -67389.22845                  24844946.0044
         8.0004          7.2504
 98  6 12 16  4 30.0000000  0  8G 2G 4G 8G 7G 9G24G 5G16
  23813539.9844    8492751.95745   7673067.90445                  23813549.5394
         9.5004         11.2504
  20749445.8524   -9974262.52748  -7772150.23547                  20749451.9454
        31.7504         29.0004
  22808749.6884   -9397403.74946  -7114229.29046                  22808756.6884
        16.0004         16.7504
  22836065.4694   10592017.54646   8253512.49246                  22836074.6134
        15.2504         17.0004
  21479451.3204   -9772293.33748  -7614774.10047                  21479457.3444
        30.5004         29.7504
  21213849.3054  -13867831.38347 -10660412.95647                  21213856.9264
        27.2504         28.7504
  22843966.7344  -10782346.14846  -2294315.52746                  22843974.1454
        15.5004         16.2504
  24842693.4614    -163734.05145    -76572.55145                  24842704.3754
         8.7504          8.5004
 98  6 12 16  4 45.0000000  0  8G 2G 4G 8G 7G 9G24G 5G16
  23820797.0314    8530892.23845   7702787.54745                  23820806.9734
         9.0004         11.2504
  20749568.6644   -9973617.28148  -7771647.45247                  20749574.6884
        31.7504         29.0004
  22801616.2194   -9434889.12046  -7143438.65846                  22801623.4184
        16.0004         16.5004
  22842395.4774   10625281.80946   8279432.66746                  22842404.3634
        15.7504         16.5004
  21479210.8364   -9773557.36148  -7615759.06347                  21479216.8244
        31.2504         30.2504
  21207579.9454  -13900778.24647 -10686085.82447                  21207587.3554
        27.7504         29.2504
  22836383.7424  -10822195.81946  -2325367.19346                  22836391.0474
        15.2504         16.5004
  24840471.4064    -175406.90545    -85668.26745                  24840480.1764
         8.7504          9.0004
 98  6 12 16  5  0.0000000  0  8G 2G 4G 8G 7G 9G24G 5G16
  23828067.4924    8569100.49945   7732560.16245                  23828076.7194
         9.2504         11.0004
  20749720.9924   -9972816.94748  -7771023.81247                  20749726.9224
        31.2504         28.7504
  22794504.6644   -9472258.76546  -7172557.84546                  22794511.4614
        16.2504         16.7504
  22848729.0164   10658564.35746   8305367.07546                  22848737.4344
        16.2504         16.5004
  21478995.8674   -9774687.60548  -7616639.78047                  21479001.9384
        31.5004         30.0004
  21201332.7974  -13933607.57547 -10711667.11247                  21201339.9734
        27.7504         29.2504
  22828804.2664  -10862025.58246  -2356403.35446                  22828811.8404
        15.7504         16.5004
  24838271.5234    -186968.68745    -94677.44445                  24838280.4104
         9.0004          8.5004
 98  6 12 16  5 15.0000000  0  8G 2G 4G 8G 7G 9G24G 5G16
  23835350.7274    8607369.87845   7762380.41245                  23835360.5864
         9.7504         11.7504
  20749901.9924   -9971865.42848  -7770282.37147                  20749908.0394
        30.5004         28.5004
  22787414.7894   -9509517.29246  -7201590.44846                  22787421.9884
        15.7504         16.7504
  22855064.4064   10691855.73646   8331308.38446                  22855072.8484
        16.2504         16.7504
  21478804.7344   -9775691.73848  -7617422.22647                  21478810.8874
        31.7504         30.0004
  21195106.8984  -13966325.35847 -10737161.47247                  21195114.3914
        27.7504         29.2504
  22821227.7664  -10901839.78446  -2387427.39846                  22821235.1054
        16.2504         17.0004
  24836091.4454    -198423.88645   -103603.54145                  24836101.7734
         8.5004          8.2504
 98  6 12 16  5 30.0000000  0  8G 2G 4G 8G 7G 9G24G 5G16
  23842645.9144    8645707.92745   7792254.16645                  23842654.3554
        10.5004         11.5004
  20750114.4774   -9970748.93748  -7769412.38147                  20750120.3484
        30.5004         28.5004
  22780348.0004   -9546655.33946  -7230529.15346                  22780354.9774
        16.5004         17.2504
  22861402.3834   10725163.54746   8357262.51246                  22861410.0514
        16.5004         16.5004
  21478638.9614   -9776563.14648  -7618101.25047                  21478645.0084
        32.0004         30.2504
  21188903.9064  -13998922.30547 -10762561.67147                  21188911.2234
        27.7504         29.2504
  22813656.7194  -10941626.89746  -2418430.33746                  22813664.1294
        16.0004         16.5004
  24833933.9064    -209765.83445   -112441.35745                  24833945.4534
         8.0004          8.7504
 98  6 12 16  5 45.0000000  0  8G 2G 4G 8G 7G 9G24G 5G16
  23849953.9224    8684106.13745   7822174.77645                  23849962.5164
        11.2504         11.7504
  20750356.1334   -9969478.23348  -7768422.22347                  20750362.0984
        30.5004         28.7504
  22773301.8444   -9583681.29946  -7259380.53846                  22773309.1724
        17.0004         17.7504
  22867742.4694   10758480.11846   8383223.44046                  22867751.1914
        16.0004         16.2504
  21478497.3984   -9777306.83348  -7618680.75047                  21478503.4574
        32.0004         29.7504
  21182723.1884  -14031401.72948 -10787870.30047                  21182730.2704
        28.5004         29.5004
  22806089.3524  -10981393.60946  -2449417.36346                  22806096.6804
        16.2504         16.5004
  24831794.1334    -221005.21345   -121199.29845                  24831806.6644
         7.5004          8.0004
 98  6 12 16  6  0.0000000  0  8G 2G 4G 8G 7G 9G24G 5G16
  23857273.3054    8722571.62445   7852147.85446                  23857282.5554
        10.7504         12.5004
  20750628.6724   -9968046.48348  -7767306.57147                  20750634.6844
        30.5004         29.0004
  22766278.2344   -9620589.38346  -7288140.06746                  22766285.2344
        16.5004         17.2504
  22874084.9844   10791810.04346   8409194.77246                  22874093.5664
        15.7504         16.5004
  21478382.1564   -9777910.46948  -7619151.11947                  21478388.1914
        31.7504         29.7504
  21176565.7664  -14063758.51348 -10813083.36747                  21176572.9414
        28.5004         29.5004
  22798527.7974  -11021130.43046  -2480381.10146                  22798535.2304
        16.5004         17.0004
  24829676.3444    -232135.00944   -129871.81945                  24829689.0634
         7.2504          7.0004
 98  6 12 16  6 15.0000000  0  8G 2G 4G 8G 7G 9G24G 5G16
  23864604.7974    8761100.60545   7882170.38246                  23864613.9414
        10.7504         12.0004
  20750930.5004   -9966459.77948  -7766070.17647                  20750936.6644
        29.7504         29.2504
  22759276.4224   -9657385.45246  -7316812.30346                  22759284.2194
        16.7504         17.5004
  22880428.4384   10825145.63746   8435170.54046                  22880436.6214
        15.5004         15.7504
  21478294.2504   -9778374.60748  -7619512.78847                  21478300.1564
        31.5004         29.5004
  21170430.4694  -14096000.12148 -10838206.67847                  21170437.8204
        28.5004         29.5004
  22790971.0084  -11060841.17946  -2511324.51346                  22790978.8874
        16.7504         17.5004
  24827577.9614    -243158.38645   -138461.44245                  24827591.1484
         7.5004          7.0004
 98  6 12 16  6 30.0000000  0  8G 2G 4G 8G 7G 9G24G 5G16
  23871952.3914    8799707.06645   7912253.28246                  23871962.0514
        11.0004         12.2504
  20751264.2974   -9964706.50548  -7764703.98747                  20751270.2854
        29.7504         29.5004
  22752298.1484   -9694058.47046  -7345388.66746                  22752305.3834
        16.5004         17.2504
  22886775.4694   10858499.52146   8461160.54846                  22886783.1844
        16.0004         16.0004
  21478235.0784   -9778686.35448  -7619755.71647                  21478241.0784
        32.5004         29.7504
  21164318.4694  -14128119.19048 -10863234.51847                  21164325.7384
        28.2504         29.5004
  22783421.6644  -11100514.03546  -2542238.41746                  22783429.2734
        16.5004         17.2504
  24825503.0234    -254062.98344   -146958.49845                  24825511.7584
         7.2504          6.7504
 98  6 12 16  6 45.0000000  0  8G 2G 4G 8G 7G 9G24G 5G16
  23879311.6094    8838383.20945   7942390.47346                  23879321.0354
        11.2504         12.2504
  20751627.9144   -9962795.32848  -7763214.75747                  20751633.9144
        30.0004         30.0004
  22745340.7504   -9730618.42946  -7373876.92646                  22745347.8204
        16.2504         17.0004
  22893124.3524   10891864.47346   8487159.18546                  22893132.3714
        15.7504         15.7504
  21478203.1334   -9778853.34748  -7619885.84647                  21478208.9804
        32.5004         29.7504
  21158227.2584  -14160129.12748 -10888177.30947                  21158234.6454
        28.2504         29.5004
  22775877.1954  -11140159.82946  -2573131.22546                  22775884.8164
        16.7504         17.2504
  24823449.2504    -264856.84545   -155369.28245                  24823459.0274
         8.0004          8.0004
 98  6 12 16  7  0.0000000  0  8G 2G 4G 8G 7G 9G24G 5G16
  23886684.4064    8877128.15445   7972581.30046                  23886694.3834
        11.0004         12.7504
  20752021.6884   -9960725.89348  -7761602.20047                  20752027.5944
        29.7504         30.0004
  22738405.0864   -9767064.06646  -7402276.10746                  22738412.1804
        16.2504         16.7504
  22899475.8984   10925238.15846   8513164.61446                  22899483.9304
        16.7504         16.2504
  21478199.5784   -9778872.85548  -7619901.05647                  21478205.4264
        32.0004         29.7504
  21152156.4694  -14192031.30148 -10913036.13447                  21152163.5514
        28.5004         29.5004
  22768337.7034  -11179779.24346  -2604003.47946                  22768344.9384
        17.5004         17.2504
  24821416.9224    -275536.66245   -163691.14545                  24821427.0984
         8.7504          8.0004
 98  6 12 16  7 15.0000000  0  8G 2G 4G 8G 7G 9G24G 5G16
  23894069.2734    8915932.67845   8002818.53846                  23894078.8754
        11.7504         12.7504
  20752444.1564   -9958506.72948  -7759872.97947                  20752450.2624
        30.2504         30.5004
  22731490.7274   -9803399.99646  -7430589.80446                  22731497.5004
        16.0004         16.5004
  22905826.8134   10958613.07746   8539171.02146                  22905834.9024
        16.5004         15.7504
  21478222.6334   -9778752.08048  -7619806.95547                  21478228.5864
        31.2504         30.0004
  21146105.1644  -14223830.25147 -10937814.52947                  21146112.1884
        27.7504         29.0004
  22760802.6804  -11219377.24046  -2634859.05446                  22760809.6804
        18.0004         17.2504
  24819404.8984    -286108.20445   -171928.70545                  24819413.8094
         7.7504          7.7504
 98  6 12 16  7 30.0000000  0  8G 2G 4G 8G 7G 9G24G 5G16
  23901465.4454    8954801.36645   8033105.78546                  23901475.2814
        11.7504         12.7504
  20752895.9924   -9956132.39048  -7758022.83747                  20752902.0274
        31.2504         30.7504
  22724598.5864   -9839619.08146  -7458812.45646                  22724605.7624
        16.2504         16.7504
  22912179.6414   10991997.78946   8565185.06946                  22912187.9304
        16.0004         15.7504
  21478273.5164   -9778483.62448  -7619597.77247                  21478279.4804
        32.2504         29.7504
  21140075.3594  -14255517.06248 -10962505.53747                  21140082.4414
        28.0004         29.2504
  22753273.5944  -11258942.45046  -2665689.06046                  22753280.4024
        17.7504         17.2504
  24817414.5394    -296567.15745   -180078.49445                  24817426.8954
         8.7504          8.2504
 98  6 12 16  7 45.0000000  0  8G 2G 4G 8G 7G 9G24G 5G16
  23908874.4144    8993734.94346   8063443.58446                  23908883.3134
        12.5004         13.0004
  20753376.1174   -9953608.89548  -7756056.47547                  20753382.1764
        31.0004         30.7504
  22717728.7814   -9875719.32546  -7486942.50846                  22717735.9574
        15.7504         16.5004
  22918534.6724   11025394.42446   8591208.37846                  22918543.0784
        16.2504         16.0004
  21478353.2344   -9778065.73148  -7619272.14647                  21478359.2934
        32.0004         29.5004
  21134066.7974  -14287091.40748 -10987108.90647                  21134074.1484
        28.5004         29.7504
  22745750.4694  -11298476.14146  -2696494.53346                  22745756.7854
        18.0004         17.0004
  24815445.2814    -306914.28545   -188141.12945                  24815455.0594
         8.0004          7.7504
 98  6 12 16  8  0.0000000  0  8G 2G 4G 8G 7G 9G24G 5G16
  23916296.1484    9032734.57846   8093832.83246                  23916305.8444
        12.7504         12.7504
  20753884.3594   -9950938.16148  -7753975.38047                  20753890.3594
        31.0004         30.7504
  22710881.6724   -9911700.45846  -7514979.73446                  22710889.1884
        15.2504         16.0004
  22924892.3364   11058802.57046   8617240.66746                  22924901.0004
        16.0004         16.2504
  21478460.8914   -9777499.17248  -7618830.67747                  21478466.9384
        31.5004         29.2504
  21128079.4774  -14318555.17148 -11011626.11647                  21128086.9694
        28.7504         29.7504
  22738233.1484  -11337979.58746  -2727276.42546                  22738239.6054
        17.2504         17.0004
  24813497.6804    -317146.68445   -196114.39245                  24813504.1954
         8.0004          7.2504
 98  6 12 16  8 15.0000000  0  8G 2G 4G 8G 7G 9G24G 5G16
  23923729.0944    9071793.83546   8124268.56746                  23923738.7424
        12.5004         13.2504
  20754419.4774   -9948126.49148  -7751784.46247                  20754425.4304
        30.5004         30.7504
  22704056.4614   -9947566.74746  -7542927.47446                  22704064.1054
        15.7504         16.7504
  22931250.6804   11092215.97546   8643277.06646                  22931258.7464
        16.0004         16.2504
  21478595.0164   -9776793.22048  -7618280.58947                  21478600.9694
        30.5004         28.7504
  21122111.7344  -14349917.22847 -11036064.06747                  21122119.3554
        27.7504         29.7504
  22730719.9224  -11377462.59646  -2758042.39746                  22730726.8284
        17.7504         17.2504
  24811571.9924    -327269.14145   -204001.97645                  24811583.1994
         8.2504          7.0004
 98  6 12 16  8 30.0000000  0  8G 2G 4G 8G 7G 9G24G 5G16
  23931173.7894    9110916.74946   8154753.91446                  23931183.3204
        12.5004         12.2504
  20754981.9384   -9945169.82848  -7749480.56247                  20754988.0204
        30.2504         30.5004
  22697255.1024   -9983310.60346  -7570779.82246                  22697263.2274
        16.0004         16.5004
  22937610.8834   11125640.79046   8669322.34346                  22937619.6414
        16.0004         16.5004
  21478756.3134   -9775945.79148  -7617620.25647                  21478762.3244
        30.2504         28.7504
  21116164.9304  -14381166.88947 -11060414.44247                  21116172.6334
        27.7504         29.5004
  22723211.3134  -11416920.26946  -2788788.62646                  22723218.5474
        18.0004         17.2504
  24809668.3364    -337276.69245   -211800.07245                  24809675.0744
         8.2504          6.7504
 98  6 12 16  8 45.0000000  0  8G 2G 4G 8G 7G 9G24G 5G16
  23938629.1094    9150095.96446   8185283.12846                  23938638.6174
        12.5004         12.5004
  20755571.3444   -9942073.55348  -7747067.88047                  20755577.2974
        30.2504         30.2504
  22690475.7504  -10018935.32346  -7598539.33346                  22690483.4534
        16.2504         16.7504
  22943972.8364   11159072.39546   8695372.89346                  22943981.3134
        16.0004         16.5004
  21478943.7504   -9774960.60448  -7616852.58447                  21478949.8444
        29.7504         28.5004
  21110239.8594  -14412304.76347 -11084677.70547                  21110247.3634
        27.7504         29.5004
  22715706.8594  -11456357.08946  -2819518.59746                  22715714.1994
        18.2504         17.7504
  24807784.5634    -347174.28945   -219512.45945                  24807794.6094
         8.5004          8.2504
 98  6 12 16  9  0.0000000  0  8G 2G 4G 8G 7G 9G24G 5G16
  23946096.4534    9189335.61846   8215859.40746                  23946105.0354
        12.5004         12.2504
  20756187.4924   -9938835.27548  -7744544.54447                  20756193.4344
        30.7504         30.2504
  22683720.5634  -10054434.30746  -7626200.87546                  22683727.7384
        16.7504         16.5004
  22950336.9224   11192514.00946   8721431.26146                  22950345.0704
        16.0004         16.2504
  21479158.4304   -9773831.77148  -7615972.98147                  21479164.4184
        30.0004         28.5004
  21104337.6954  -14443319.38747 -11108844.93547                  21104345.2234
        27.7504         29.2504
  22708207.5704  -11495765.47746  -2850226.42046                  22708214.9454
        17.7504         18.0004
  24805923.4924    -356956.54845   -227134.93445                  24805935.0984
         9.0004          7.5004
 98  6 12 16  9 15.0000000  0  8G 2G 4G 8G 7G 9G24G 5G16
  23953574.0314    9228633.87045   8246481.39545                  23953583.9024
        10.5004         11.5004
  20756830.4384   -9935457.18848  -7741912.26947                  20756836.5314
        30.2504         29.5004
  22676988.8834  -10089807.26146  -7653764.20446                  22676996.0824
        16.5004         16.5004
  22956702.5394   11225965.30146   8747497.16946                  22956710.8874
        16.2504         16.5004
  21479400.3444   -9772562.01648  -7614983.57247                  21479406.2974
        30.0004         28.2504
  21098459.6954  -14474208.92047 -11132914.68747                  21098467.1414
        27.7504         29.5004
  22700713.6334  -11535145.77846  -2880912.35346                  22700720.9844
        17.7504         18.2504
  24804083.5944    -366626.86345   -234670.23545                  24804090.8874
        10.0004          8.5004
 98  6 12 16  9 30.0000000  0  8G 2G 4G 8G 7G 9G24G 5G16
  23961063.5474    9267991.17645   8277149.36145                  23961073.1724
        10.5004         11.2504
  20757499.8134   -9931939.24348  -7739171.01347                  20757505.7894
        30.5004         29.2504
  22670282.1724  -10125054.59846  -7681229.65346                  22670289.5004
        16.5004         16.7504
  22963070.1254   11259427.67546   8773571.72446                  22963078.0274
        16.7504         16.5004
  21479668.4384   -9771152.52348  -7613885.27647                  21479674.4734
        29.7504         28.2504
  21092605.1174  -14504973.66147 -11156887.19847                  21092612.7384
        27.0004         29.5004
  22693225.6884  -11574497.54846  -2911576.04646                  22693233.1094
        17.7504         18.0004
  24802263.8444    -376188.92245   -242121.13345                  24802273.2114
         9.2504          8.5004
 98  6 12 16  9 45.0000000  0  8G 2G 4G 8G 7G 9G24G 5G16
  23968564.9454    9307410.47845   8307865.63245                  23968574.6884
        10.0004         11.0004
  20758196.1414   -9928280.45748  -7736320.01347                  20758202.0354
        31.0004         28.7504
  22663597.8054  -10160178.60346  -7708598.98946                  22663605.2734
        16.5004         16.7504
  22969439.8594   11292900.91346   8799654.72346                  22969447.9734
        16.7504         16.2504
  21479963.1414   -9769602.91248  -7612677.79347                  21479969.2934
        29.7504         28.5004
  21086774.0784  -14535616.10847 -11180764.41847                  21086781.5944
        27.0004         29.2504
  22685741.6174  -11613823.47446  -2942219.62146                  22685748.8284
        18.2504         18.2504
  24800464.3054    -385644.58545   -249489.13045                  24800474.4454
        10.0004          8.7504
 98  6 12 16 10  0.0000000  0  8G 2G 4G 8G 7G 9G24G 5G16
  23976077.4774    9346889.19245   8338628.19545                  23976086.9614
        10.0004         11.0004
  20758918.9924   -9924481.37948  -7733359.69447                  20758925.0274
        31.5004         28.7504
  22656936.4844  -10195184.54446  -7735876.34746                  22656944.1294
        16.2504         17.0004
  22975811.2274   11326382.25846   8825744.04546                  22975819.2934
        16.2504         16.0004
  21480284.6414   -9767914.07748  -7611361.81947                  21480290.7234
        29.0004         28.7504
  21080965.4774  -14566140.67447 -11204549.77147                  21080973.2034
        26.7504         29.2504
  22678262.5314  -11653126.94646  -2972845.69146                  22678269.5904
        18.5004         18.0004
  24798685.2894    -394992.51645   -256773.16745                  24798694.7154
         9.2504          9.0004
 98  6 12 16 10 15.0000000  0  8G 2G 4G 8G 7G 9G24G 5G16
  23983601.4774    9386427.80845   8369437.43645                  23983610.5864
         9.7504         10.7504
  20759670.0164   -9920534.21748  -7730283.99047                  20759675.8754
        31.5004         29.0004
  22650297.5784  -10230071.61446  -7763061.06346                  22650305.2234
        16.5004         17.0004
  22982184.8444   11359875.65046   8851842.77146                  22982192.8054
        17.5004         16.7504
  21480633.4304   -9766081.53948  -7609933.87047                  21480639.7114
        29.7504         28.7504
  21075180.0784  -14596544.66347 -11228241.18247                  21075187.6994
        27.7504         29.0004
  22670788.5084  -11692403.93846  -3003451.12346                  22670795.3674
        18.2504         18.0004
  24796927.6484    -404226.64945   -263968.56845                  24796938.4574
         9.5004          8.5004
 98  6 12 16 10 30.0000000  0  8G 2G 4G 8G 7G 9G24G 5G16
  23991136.9924    9426024.79245   8400292.18045                  23991145.6334
         9.5004         11.0004
  20760449.5084   -9916438.23148  -7727092.31547                  20760455.5554
        30.5004         28.5004
  22643681.5554  -10264840.65346  -7790153.81446                  22643689.1644
        16.5004         17.0004
  22988560.9924   11393381.62646   8877951.28046                  22988569.2934
        16.7504         16.5004
  21481009.5864   -9764104.68848  -7608393.47547                  21481015.9494
        29.7504         29.0004
  21069418.1094  -14626823.87148 -11251835.35847                  21069425.6374
        28.0004         29.0004
  22663319.4384  -11731653.33746  -3034035.06046                  22663326.4734
        18.2504         18.2504
  24795192.6954    -413347.86145   -271076.01045                  24795202.8014
         8.7504          8.7504
 98  6 12 16 10 45.0000000  0  7G 2G 4G 8G 7G 9G24G 5
  23998684.0474    9465686.46345   8431197.33045                  23998693.4264
        11.0004         11.7504
  20761258.5784   -9912185.35948  -7723778.39747                  20761264.5784
        30.0004         28.5004
  22637088.3754  -10299486.99646  -7817150.94446                  22637095.3054
        16.7504         16.7504
  22994940.3204   11426905.13846   8904073.45946                  22994948.3054
        19.0004         17.5004
  21481414.6564   -9761975.65748  -7606734.49747                  21481420.9964
        29.5004         29.0004
  21063680.8674  -14656972.78548 -11275328.00247                  21063688.1484
        28.0004         29.2504
  22655856.8754  -11770868.89046  -3064592.61246                  22655864.0044
        18.2504         18.7504
 98  6 12 16 11  0.0000000  0  7G 2G 4G 8G 7G 9G24G 5
  24006243.0164    9505409.05245   8462149.91645                  24006252.6524
        11.0004         11.7504
  20762097.1024   -9907779.39348  -7720345.18147                  20762103.1254
        29.0004         28.2504
  22630517.4534  -10334016.01946  -7844056.67246                  22630524.4304
        16.2504         16.7504
  23001321.6094   11460439.82946   8930204.35746                  23001329.3244
        19.5004         17.5004
  21481847.6334   -9759700.23448  -7604961.44247                  21481853.9024
        29.0004         28.7504
  21057967.0864  -14687000.28448 -11298726.03947                  21057974.1214
        29.0004         29.2504
  22648399.6564  -11810058.53046  -3095129.98146                  22648407.0084
        18.2504         19.0004
 98  6 12 16 11 15.0000000  0  7G 2G 4G 8G 7G 9G24G 5
  24013813.9454    9545193.35845   8493150.61745                  24013823.5124
        11.0004         11.7504
  20762964.8984   -9903218.36648  -7716791.14547                  20762970.9574
        28.7504         28.5004
  22623969.0314  -10368429.56946  -7870872.41446                  22623975.8284
        17.0004         16.7504
  23007705.0004   11493984.57846   8956343.09246                  23007712.9964
        19.2504         17.7504
  21482307.9454   -9757282.55748  -7603077.54747                  21482314.2384
        28.2504         28.7504
  21052275.4694  -14716908.76348 -11322031.33447                  21052282.5164
        29.5004         29.7504
  22640946.5944  -11849224.58046  -3125648.96046                  22640954.1094
        17.7504         19.0004
 98  6 12 16 11 30.0000000  0  7G 2G 4G 8G 7G 9G24G 5
  24021396.9454    9585041.73145   8524201.24545                  24021406.8284
        11.2504         11.7504
  20763863.3594   -9898497.11248  -7713112.24447                  20763869.4064
        29.0004         28.5004
  22617443.0084  -10402725.62446  -7897596.60246                  22617450.0314
        17.2504         17.0004
  23014090.7194   11527541.50046   8982491.30746                  23014098.5274
        18.7504         17.5004
  21482795.7664   -9754719.36448  -7601080.26747                  21482802.1174
        28.7504         28.7504
  21046606.5704  -14746699.24448 -11345244.68847                  21046613.2624
        29.7504         29.5004
  22633498.4924  -11888365.45446  -3156148.32746                  22633505.8674
        18.0004         19.0004
 98  6 12 16 11 45.0000000  0  7G 2G 4G 8G 7G 9G24G 5
  24028992.4614    9624953.24345   8555301.07146                  24029002.6844
        11.5004         12.0004
  20764791.7194   -9893618.81448  -7709310.98447                  20764797.7304
        28.7504         29.2504
  22610938.3524  -10436906.08746  -7924230.71246                  22610944.9264
        17.0004         16.7504
  23020478.0784   11561104.97246   9008644.63046                  23020486.2154
        18.2504         17.0004
  21483310.6564   -9752012.62048  -7598971.11447                  21483317.3134
        29.0004         29.2504
  21040959.5784  -14776374.10748 -11368367.94847                  21040966.4734
        29.0004         29.5004
  22626054.9454  -11927480.26746  -3186627.37446                  22626062.3324
        18.2504         19.2504
 98  6 12 16 12  0.0000000  0  7G 2G 4G 8G 7G 9G24G 5
  24036598.3674    9664926.19745   8586448.76445                  24036608.1334
        10.0004         11.0004
  20765749.6804   -9888584.00948  -7705387.76347                  20765755.7384
        28.7504         29.0004
  22604456.2114  -10470969.85046  -7950773.89946                  22604463.4694
        16.5004         17.2504
  23026866.6174   11594675.47246   9034803.43646                  23026874.3794
        14.2504         15.0004
  21483853.0234   -9749160.81148  -7596748.93647                  21483859.8554
        28.5004         29.2504
  21035335.0864  -14805931.09048 -11391399.35047                  21035342.1684
        29.7504         29.7504
  22618616.5784  -11966568.72146  -3217085.90246                  22618623.7774
        18.0004         19.0004
 98  6 12 16 12 15.0000000  0  7G 2G 4G 8G 7G 9G24G 5
  24044215.9064    9704955.27545   8617640.19845                  24044226.6564
        10.0004         10.5004
  20766736.4694   -9883399.01148  -7701347.50847                  20766742.4104
        29.2504         29.7504
  22597995.8674  -10504918.56046  -7977227.41846                  22598002.8324
        16.5004         16.7504
  23033255.1644   11628248.56846   9060964.25046                  23033262.7154
        19.0004         17.7504
  21484422.2194   -9746169.55848  -7594418.09447                  21484428.9574
        28.5004         29.2504
  21029732.4924  -14835372.49948 -11414340.68947                  21029739.6804
        28.7504         29.5004
  22611182.6174  -12005635.13346  -3247527.23446                  22611190.1914
        18.0004         19.0004
 98  6 12 16 12 30.0000000  0  7G 2G 4G 8G 7G 9G24G 5
  24051846.3754    9745052.87445   8648885.00045                  24051856.0234
        10.5004         11.0004
  20767753.4774   -9878055.60948  -7697183.81847                  20767759.6054
        29.5004         30.2504
  22591559.9384  -10538740.77446  -8003582.38146                  22591567.0904
        16.2504         16.5004
  23039645.6724   11661831.63946   9087132.84846                  23039653.7504
        18.7504         17.2504
  21485019.4454   -9743030.47848  -7591972.06347                  21485026.0904
        28.7504         29.2504
  21024154.3754  -14864685.50548 -11437181.98147                  21024161.9734
        28.2504         29.7504
  22603754.0314  -12044671.61246  -3277945.26346                  22603761.4534
        18.2504         19.5004
 98  6 12 16 12 45.0000000  0  7G 2G 4G 8G 7G 9G24G 5
  24059488.1884    9785211.44445   8680177.38145                  24059498.9614
        10.7504         11.2504
  20768797.7274   -9872567.84548  -7692907.64147                  20768803.7974
        29.7504         30.7504
  22585146.0234  -10572445.96346  -8029846.15446                  22585153.5164
        15.7504         16.7504
  23046036.0944   11695412.61646   9113299.81546                  23046043.9614
        18.7504         17.2504
  21485643.2814   -9739754.38548  -7589419.27247                  21485649.8674
        28.0004         29.2504
  21018598.3364  -14893880.86848 -11459931.59747                  21018605.7114
        28.7504         29.7504
  22596329.1884  -12083688.45846  -3308347.98846                  22596336.3164
        17.5004         19.5004
 98  6 12 16 13  0.0000000  0  7G 2G 4G 8G 7G 9G24G 5
  24067141.9534    9825434.34945   8711519.83045                  24067152.2114
         9.5004         11.0004
  20769870.0004   -9866932.96148  -7688516.81647                  20769876.1054
        29.7504         30.5004
  22578755.7424  -10606028.14446  -8056014.06446                  22578763.7034
        15.5004         16.5004
  23052426.7274   11728995.78546   9139468.50046                  23052434.3834
        18.0004         16.2504
  21486293.3364   -9736338.56447  -7586757.59347                  21486299.9104
        27.7504         29.2504
  21013065.3834  -14922957.16248 -11482588.43947                  21013072.5824
        29.0004         30.0004
  22588909.3524  -12122681.29046  -3338731.98846                  22588917.0784
        17.7504         19.5004
 98  6 12 16 13 15.0000000  0  7G 2G 4G 8G 7G 9G24G 5
  24074808.5164    9865723.03545   8742913.52145                  24074819.2194
         9.7504         10.2504
  20770970.1724   -9861151.35048  -7684011.66347                  20770976.2074
        29.7504         30.2504
  22572388.5704  -10639484.80946  -8082084.17846                  22572396.4734
        15.7504         16.5004
  23058817.9614   11762583.61246   9165640.79046                  23058826.0044
        19.2504         17.7504
  21486970.0704   -9732781.77347  -7583986.08147                  21486976.5274
        27.7504         29.0004
  21007555.6804  -14951911.68048 -11505150.38847                  21007562.7034
        29.0004         29.7504
  22581494.7734  -12161644.82946  -3369093.16146                  22581502.8284
        18.2504         19.7504
 98  6 12 16 13 30.0000000  0  7G 2G 4G 8G 7G 9G24G 5
  24082486.8364    9906071.71145   8774353.99945                  24082497.2344
         9.0004         10.5004
  20772097.3284   -9855228.46648  -7679396.42447                  20772103.2934
        30.2504         30.2504
  22566045.4304  -10672819.82046  -8108059.50046                  22566052.6884
        16.0004         16.5004
  23065210.4144   11796174.80746   9191815.72346                  23065218.2464
        18.0004         16.5004
  21487673.6644   -9729084.83448  -7581105.35747                  21487680.0984
        28.2504         29.2504
  21002068.1564  -14980749.23748 -11527621.19947                  21002075.1214
        29.7504         30.0004
  22574085.3284  -12200581.82546  -3399433.66046                  22574092.9844
        18.2504         20.2504
 98  6 12 16 13 45.0000000  0  7G 2G 4G 8G 7G 9G24G 5
  24090178.1094    9946489.40045   8805848.23145                  24090189.2934
         8.5004         10.0004
  20773252.3054   -9849158.92548  -7674666.91447                  20773258.3634
        30.0004         30.0004
  22559726.6024  -10706024.89146  -8133933.57146                  22559734.0004
        16.0004         16.2504
  23071605.4924   11829777.17745   9217999.37745                  23071612.9384
         9.7504         11.5004
  21488405.6804   -9725238.47948  -7578108.20847                  21488411.9734
        28.5004         29.5004
  20996604.6954  -15009459.52148 -11549992.83747                  20996612.0124
        29.0004         30.7504
  22566682.5784  -12239484.49546  -3429747.41246                  22566689.7774
        18.2504         20.0004
 98  6 12 16 14  0.0000000  0  7G 2G 4G 8G 7G 9G24G 5
  24097881.9614    9986973.52145   8837394.23745                  24097892.3714
         9.0004         10.5004
  20774435.1334   -9842944.36548  -7669824.40447                  20774441.1214
        30.2504         30.0004
  22553432.3834  -10739102.07646  -8159707.99646                  22553440.0984
        15.7504         16.5004
  23078000.8524   11863389.14946   9244190.49046                  23078008.6134
        15.2504         13.2504
  21489165.6334   -9721244.76948  -7574996.22547                  21489171.7034
        28.5004         29.5004
  20991165.6334  -15038042.99748 -11572265.66347                  20991172.8094
        29.2504         30.2504
  22559285.0944  -12278357.19346  -3460037.79746                  22559292.7854
        18.7504         19.7504
 98  6 12 16 14 15.0000000  0  7G 2G 4G 8G 7G 9G24G 5
  24105600.0704   10027529.09545   8868995.95145                  24105610.0004
         8.5004          9.2504
  20775646.6564   -9836576.97048  -7664862.79847                  20775652.5864
        30.2504         29.7504
  22547163.0944  -10772045.94646  -8185378.52946                  22547171.0204
        16.5004         16.7504
  23084400.2424   11897019.25546   9270395.73146                  23084408.9534
        12.0004         12.5004
  21489954.4534   -9717099.86148  -7571766.43147                  21489960.4654
        29.5004         29.2504
  20985751.3054  -15066493.93148 -11594435.21247                  20985758.5044
        29.5004         30.5004
  22551894.2974  -12317196.47546  -3490302.16346                  22551901.5204
        18.7504         20.5004
 98  6 12 16 14 30.0000000  0  7G 2G 4G 8G 7G 9G24G 5
  24113328.1884   10068145.79845   8900645.26845                  24113339.1484
         8.0004          9.7504
  20776886.0004   -9830064.03148  -7659787.78447                  20776892.0474
        30.5004         29.7504
  22540917.6564  -10804866.17946  -8210952.73046                  22540925.4534
        16.2504         16.7504
  23090801.7424   11930657.95846   9296607.67746                  23090810.0554
        14.5004         13.2504
  21490769.9694   -9712814.02848  -7568426.82447                  21490776.0514
        29.7504         29.2504
  20980360.7504  -15094822.78948 -11616509.62647                  20980367.9494
        28.7504         30.2504
  22544508.3834  -12356009.23646  -3520545.84046                  22544515.5594
        18.7504         20.0004
 98  6 12 16 14 45.0000000  0  7G 2G 4G 8G 7G 9G24G 5
  24121069.9924   10108825.67445   8932343.82645                  24121078.5274
         7.5004          9.0004
  20778154.4144   -9823398.69148  -7654594.01547                  20778160.4024
        30.2504         29.5004
  22534696.8524  -10837556.21246  -8236425.45946                  22534704.4734
        16.2504         16.7504
  23097205.6804   11964310.94546   9322830.73946                  23097213.4884
        14.5004         13.0004
  21491612.7344   -9708385.62748  -7564976.13047                  21491618.7814
        29.7504         29.5004
  20974993.7034  -15123025.73048 -11638485.92947                  20975000.9144
        28.2504         30.2504
  22537128.2814  -12394791.51546  -3550765.78346                  22537134.9964
        19.5004         20.2504
 98  6 12 16 15  0.0000000  0  7G 2G 4G 8G 7G 9G24G 5
  24128822.4534   10149563.93845   8964087.85545                  24128833.7664
         7.7504          9.5004
  20779451.6564   -9816581.54748  -7649281.95547                  20779457.7734
        30.7504         29.2504
  22528501.0314  -10870115.38846  -8261796.23246                  22528508.9454
        16.5004         17.0004
  23103613.1094   11997980.57546   9349066.79646                  23103621.2934
        13.5004         13.0004
  21492481.9844   -9703818.84448  -7561417.60647                  21492487.9964
        30.2504         29.7504
  20969650.0784  -15151106.59448 -11660367.11347                  20969657.2304
        28.2504         30.0004
  22529753.3984  -12433543.93646  -3580962.45846                  22529760.4804
        19.7504         20.0004
 98  6 12 16 15 15.0000000  0  7G 2G 4G 8G 7G 9G24G 5
  24136585.6564   10190359.09945   8995876.23145                  24136596.9224
         9.0004          9.2504
  20780778.0634   -9809610.81148  -7643850.21747                  20780784.1214
        30.0004         29.0004
  22522330.7734  -10902542.04046  -8287063.73846                  22522338.4654
        17.0004         17.0004
  23110022.5864   12031665.74746   9375314.94946                  23110030.8164
        16.2504         15.7504
  21493377.0784   -9699114.26548  -7557751.70947                  21493383.0084
        30.2504         29.7504
  20964329.8834  -15179064.15948 -11682152.20847                  20964337.3874
        28.0004         30.5004
  22522385.6564  -12472264.66746  -3611134.44546                  22522392.5744
        19.7504         20.2504
 98  6 12 16 15 30.0000000  0  8G 2G 4G 8G 7G 9G24G 5G16
  24144358.1174   10231207.50145   9027706.08945                  24144368.1994
         7.5004          9.2504
  20782132.8834   -9802490.98848  -7638302.30747                  20782138.8954
        30.2504         28.5004
  22516184.4694  -10934840.99846  -8312231.74946                  22516192.2894
        17.5004         17.5004
  23116434.6564   12065360.03546   9401570.21846                  23116442.6764
        16.0004         15.0004
  21494297.5784   -9694277.24748  -7553982.61347                  21494303.5084
        30.7504         30.0004
  20959032.1724  -15206902.52247 -11703844.42247                  20959039.8634
        27.7504         30.2504
  22515021.9064  -12510961.30747  -3641287.65246                  22515028.1994
        20.2504         20.0004
  24765233.0004      -4911.98855
         9.5004
 98  6 12 16 15 45.0000000  0  8G 2G 4G 8G 7G 9G24G 5G16
  24152142.3054   10272111.79545   9059579.49845                  24152154.4964
         7.5004          9.2504
  20783516.6564   -9795218.65448  -7632635.55947                  20783522.7034
        29.5004         28.5004
  22510062.5004  -10967010.85346  -8337299.15346                  22510070.0744
        17.0004         17.7504
  23122848.6564   12099065.38046   9427834.10046                  23122856.7584
        16.2504         15.5004
  21495243.2584   -9689307.74848  -7550110.28147                  21495249.3404
        30.5004         29.5004
  20953758.2734  -15234618.43748 -11725441.22447                  20953766.0004
        28.5004         30.5004
  22507662.8984  -12549633.35847  -3671421.69946                  22507669.4964
        20.0004         20.5004
  24763978.7664     -11504.18845
        10.0004
 98  6 12 16 16  0.0000000  0  8G 2G 4G 8G 7G 9G24G 5G16
  24159937.7584   10313074.16745   9091498.16845                  24159950.5004
         8.0004          9.7504
  20784929.5554   -9787794.07148  -7626850.17647                  20784935.6024
        28.7504         28.0004
  22503966.0944  -10999048.52146  -8362263.55446                  22503974.0204
        17.7504         18.0004
  23129265.1174   12132782.69346   9454107.30446                  23129273.6884
        16.0004         15.7504
  21496214.1334   -9684205.47348  -7546134.49147                  21496220.1564
        30.5004         29.5004
  20948507.8134  -15262208.97248 -11746940.33047                  20948515.2234
        28.7504         30.5004
  22500309.7344  -12588273.88247  -3701531.17846                  22500316.5554
        21.0004         20.7504
  24762747.5164     -17974.93845
        11.0004
 98  6 12 16 16 15.0000000  0  8G 2G 4G 8G 7G 9G24G 5G16
  24167742.5554   10354092.07445   9123460.10245                  24167752.4264
         8.0004          8.7504
  20786370.9144   -9780219.76148  -7620948.12247                  20786376.9024
        28.5004         28.2504
  22497894.5084  -11030954.69546  -8387125.49846                  22497902.2344
        16.7504         17.7504
  23135683.7974   12166513.60246   9480391.08346                  23135691.8404
        16.2504         15.7504
  21497209.9064   -9678971.98948  -7542056.45747                  21497215.8954
        30.0004         29.5004
  20943280.7814  -15289676.84348 -11768343.85447                  20943288.2384
        29.0004         30.7504
  22492962.9774  -12626882.27847  -3731615.62646                  22492970.0704
        21.0004         20.7504
  24761538.5634     -24327.02545      -982.59155                  24761548.0124
        11.0004          9.5004
 98  6 12 16 16 30.0000000  0  8G 2G 4G 8G 7G 9G24G 5G16
  24175557.7424   10395160.28645   9155461.24845                  24175566.5124
         7.7504          9.2504
  20787839.6954   -9772501.64048  -7614934.00147                  20787845.7194
        29.7504         28.2504
  22491847.5164  -11062732.37146  -8411887.30846                  22491854.9494
        17.0004         17.5004
  23142104.6334   12200255.45746   9506683.41546                  23142112.5124
        16.0004         15.2504
  21498230.2584   -9673610.12248  -7537878.38147                  21498236.3404
        30.0004         29.7504
  20938076.5704  -15317026.25548 -11789655.07147                  20938083.8754
        28.7504         30.7504
  22485622.0864  -12665459.09747  -3761675.46746                  22485629.2624
        21.0004         21.2504
  24760352.5704     -30562.74545     -5841.59445                  24760362.6644
        11.5004          9.2504
 98  6 12 16 16 45.0000000  0  8G 2G 4G 8G 7G 9G24G 5G16
  24183383.5004   10436285.52145   9187506.83345                  24183393.4304
         7.5004          8.5004
  20789336.1724   -9764636.38048  -7608805.22947                  20789342.1374
        30.0004         28.5004
  22485825.7424  -11094376.22846  -8436544.84646                  22485833.1054
        17.2504         17.2504
  23148528.0394   12234011.56946   9532986.86846                  23148536.1294
        16.0004         15.2504
  21499276.4454   -9668111.66448  -7533593.88147                  21499282.6564
        30.0004         29.7504
  20932895.7034  -15344252.19148 -11810870.07447                  20932903.0904
        28.7504         30.7504
  22478287.5394  -12704001.06747  -3791708.15246                  22478294.4804
        21.2504         21.2504
  24759189.1884     -36676.19445    -10605.26745                  24759198.8134
        11.2504          9.2504
 98  6 12 16 17  0.0000000  0  8G 2G 4G 8G 7G 9G24G 5G16
  24191220.6414   10477466.40445   9219595.71245                  24191231.0744
         7.7504          8.7504
  20790859.5864   -9756630.72448  -7602567.06347                  20790865.6214
        29.7504         28.5004
  22479828.7034  -11125891.94346  -8461102.53046                  22479835.9964
        17.2504         17.7504
  23154953.5084   12267777.39146   9559297.86846                  23154962.3014
        15.0004         15.7504
  21500348.5314   -9662478.64348  -7529204.52047                  21500354.7304
        30.2504         30.0004
  20927737.8134  -15371357.13348 -11831990.80147                  20927745.1524
        30.0004         30.7504
  22470959.1254  -12742512.19947  -3821716.80646                  22470966.3364
        21.0004         21.2504
  24758048.0084     -42671.52645    -15276.98245                  24758057.7154
        11.0004          9.7504
 98  6 12 16 17 15.0000000  0  8G 2G 4G 8G 7G 9G24G 5G16
  24199068.3984   10518708.65144   9251732.51845                  24199079.0554
         7.2504          8.5004
  20792409.8134   -9748485.77348  -7596220.35047                  20792415.8134
        29.5004         28.7504
  22473855.4144  -11157281.17146  -8485561.64846                  22473863.1414
        17.5004         17.7504
  23161380.6644   12301550.35446   9585614.41746                  23161390.0554
        16.0004         16.2504
  21501447.0864   -9656704.82848  -7524705.44947                  21501453.4384
        29.5004         30.0004
  20922603.5864  -15398337.82248 -11853014.69747                  20922610.7384
        30.0004         30.7504
  22463637.4384  -12780988.32347  -3851698.17846                  22463644.5664
        21.2504         21.0004
  24756929.2274     -48549.38445    -19857.10045                  24756937.6094
        11.5004          9.7504
 98  6 12 16 17 30.0000000  0  8G 2G 4G 8G 7G 9G24G 5G16
  24206929.0704   10560014.38745   9283918.67145                  24206938.6604
         8.0004          8.0004
  20793986.1484   -9740201.33348  -7589764.94647                  20793992.1604
        30.0004         29.0004
  22467905.7114  -11188546.84946  -8509924.50246                  22467913.3674
        16.7504         18.0004
  23167808.6724   12335329.37846   9611935.70246                  23167817.5354
        16.2504         16.2504
  21502573.1954   -9650787.18448  -7520094.30347                  21502579.5944
        29.7504         30.0004
  20917493.2114  -15425191.61848 -11873939.72647                  20917500.2934
        29.7504         30.5004
  22456322.3984  -12819429.59647  -3881652.40046                  22456329.8094
        21.0004         21.2504
  24755832.4614     -54310.95645    -24346.63545                  24755840.9614
        10.5004          9.0004
 98  6 12 16 17 45.0000000  0  8G 2G 4G 8G 7G 9G24G 5G16
  24214800.9694   10601381.99745   9316153.16145                  24214811.5784
         8.7504          8.7504
  20795589.1094   -9731779.12948  -7583202.19547                  20795595.0164
        30.5004         29.2504
  22461979.1024  -11219692.17546  -8534193.57246                  22461986.4774
        17.5004         18.0004
  23174237.9224   12369117.23646   9638263.87546                  23174247.1724
        15.0004         15.7504
  21503727.0234   -9644724.35648  -7515370.02447                  21503733.2234
        30.0004         29.7504
  20912407.1564  -15451918.67648 -11894765.98747                  20912414.5554
        29.0004         30.5004
  22449013.5004  -12857835.77647  -3911579.27246                  22449020.4884
        20.2504         20.7504
  24754757.7974     -59957.88745    -28746.85145                  24754768.6054
         9.5004          9.5004
 98  6 12 16 18  0.0000000  0  8G 2G 4G 8G 7G 9G24G 5G16
  24222685.0944   10642813.15145   9348437.13945                  24222695.6564
         9.2504          9.5004
  20797218.0394   -9723219.34648  -7576532.23147                  20797224.1214
        30.0004         29.5004
  22456075.1954  -11250717.38546  -8558369.04346                  22456082.5824
        17.7504         18.0004
  23180669.5554   12402916.38046   9664600.83246                  23180678.3954
        15.0004         15.2504
  21504909.0784   -9638512.83248  -7510529.88247                  21504915.2424
        30.0004         29.5004
  20907345.8364  -15478516.40148 -11915491.47047                  20907353.2704
        29.0004         30.5004
  22441713.0314  -12896201.57647  -3941474.67046                  22441720.0084
        20.5004         21.0004
  24753705.9304     -65489.30445    -33057.01945                  24753716.8674
         9.0004          9.0004
 98  6 12 16 18 15.0000000  0  8G 2G 4G 8G 7G 9G24G 5G16
  24230581.9304   10684307.99345   9380770.68845                  24230592.3164
         9.5004         10.0004
  20798872.9304   -9714522.01248  -7569755.08847                  20798879.0124
        29.7504         29.5004
  22450193.8754  -11281623.61146  -8582451.79746                  22450201.2734
        18.0004         18.2504
  23187102.9924   12436724.93346   9690945.13346                  23187112.1024
        15.2504         14.7504
  21506119.8284   -9632151.17948  -7505572.75647                  21506125.8284
        30.0004         29.5004
  20902309.2194  -15504983.77548 -11936115.38547                  20902316.3014
        28.7504         30.5004
  22434419.1174  -12934530.03646  -3971340.98046                  22434426.1414
        19.7504         20.5004
  24752674.6414     -70905.95645    -37277.79845                  24752685.1334
         8.5004          8.2504
 98  6 12 16 18 30.0000000  0  8G 2G 4G 8G 7G 9G24G 5G16
  24238489.5864   10725867.28245   9413154.50945                  24238500.5704
         9.5004         10.0004
  20800554.9454   -9705682.57848  -7562867.21747                  20800561.0634
        29.0004         29.2504
  22444335.1484  -11312410.12246  -8606441.26546                  22444342.2424
        18.5004         18.5004
  23193538.4144   12470542.06046   9717296.12146                  23193547.4064
        15.0004         15.0004
  21507358.7424   -9625639.61248  -7500498.81547                  21507364.7774
        30.0004         29.5004
  20897297.8834  -15531319.33848 -11956636.59047                  20897304.8954
        29.2504         30.5004
  22427131.8914  -12972824.97546  -4001181.17546                  22427139.0784
        19.7504         20.5004
  24751666.6334     -76201.87145    -41404.45745                  24751676.2704
         8.7504          8.2504
 98  6 12 16 18 45.0000000  0  8G 2G 4G 8G 7G 9G24G 5G16
  24246411.5704   10767493.53345   9445590.49345                  24246422.1914
        11.0004          9.7504
  20802264.3674   -9696699.45948  -7555867.38947                  20802270.5204
        29.0004         29.5004
  22438499.9144  -11343074.94746  -8630335.92846                  22438506.8554
        19.0004         18.7504
  23199974.2814   12504363.42746   9743650.39446                  23199983.9534
        14.5004         15.2504
  21508626.2664   -9618979.08148  -7495308.79947                  21508632.3594
        29.5004         29.2504
  20892311.5164  -15557523.00148 -11977055.01947                  20892318.5744
        29.5004         30.2504
  22419850.7584  -13011087.33647  -4030995.98046                  22419857.6414
        20.0004         20.7504
  24750681.7974     -81376.70145    -45436.79245                  24750693.7074
         9.0004          9.2504
 98  6 12 16 19  0.0000000  0  8G 2G 4G 8G 7G 9G24G 5G16
  24254346.2974   10809189.63245   9478080.92145                  24254357.3984
        11.0004         10.7504
  20804001.4144   -9687571.77048  -7548754.90647                  20804007.4614
        29.2504         29.2504
  22432688.1884  -11373616.41346  -8654134.45646                  22432695.1994
        19.5004         18.7504
  23206411.5004   12538189.59046   9770008.40346                  23206420.7154
        14.7504         14.7504
  21509921.8674   -9612170.70848  -7490003.58247                  21509928.0784
        29.5004         29.2504
  20887350.3364  -15583593.94148 -11997370.02847                  20887357.2664
        29.7504         30.5004
  22412575.6564  -13049317.78646  -4060785.91646                  22412582.4884
        19.7504         20.2504
  24749719.4224     -86431.91045    -49375.89545                  24749730.1724
         8.7504          8.7504
 98  6 12 16 19 15.0000000  0  8G 2G 4G 8G 7G 9G24G 5G16
  24262292.9144   10850952.51345   9510623.36245                  24262304.1564
        10.0004         10.5004
  20805765.4144   -9678301.23048  -7541531.11047                  20805771.4844
        29.0004         29.2504
  22426899.7974  -11404034.45946  -8677836.82146                  22426906.9614
        19.7504         19.2504
  23212848.8524   12572020.35646   9796370.01446                  23212857.6564
        15.0004         15.0004
  21511244.8284   -9605218.19048  -7484586.04347                  21511250.9344
        29.7504         29.2504
  20882414.0314  -15609534.02648 -12017583.06747                  20882421.2894
        30.0004         30.7504
  22405306.8364  -13087515.90547  -4090550.65746                  22405314.1414
        20.0004         20.5004
  24748779.8134     -91367.65145    -53221.93645                  24748792.0164
         7.7504          9.0004
 98  6 12 16 19 30.0000000  0  8G 2G 4G 8G 7G 9G24G 5G16
  24270252.7194   10892778.45445   9543214.93145                  24270263.3984
        10.0004         11.0004
  20807556.8594   -9668886.71648  -7534195.12447                  20807562.9774
        29.0004         29.0004
  22421135.4144  -11434326.29046  -8701440.83746                  22421142.4144
        19.2504         19.0004
  23219288.1484   12605857.40446   9822736.51246                  23219296.4844
        15.0004         14.7504
  21512594.8674   -9598122.61948  -7479057.03947                  21512601.0554
        29.0004         29.2504
  20877502.3674  -15635345.42148 -12037695.83447                  20877509.7194
        30.0004         31.0004
  22398043.9144  -13125682.51547  -4120290.84946                  22398050.9264
        20.5004         20.5004
  24747862.9304     -96184.02645    -56974.90045                  24747874.1604
         7.5004          8.2504
 98  6 12 16 19 45.0000000  0  8G 2G 4G 8G 7G 9G24G 5G16
  24278224.0084   10934668.78945   9575856.68445                  24278234.6294
         9.7504         11.5004
  20809377.0314   -9659321.43148  -7526741.65747                  20809383.0314
        28.5004         28.7504
  22415396.4224  -11464483.28046  -8724939.76546                  22415403.6564
        18.5004         19.0004
  23225729.8984   12639709.04746   9849114.38546                  23225738.7384
        14.5004         14.2504
  21513973.1414   -9590881.02148  -7473414.24447                  21513979.5744
        28.5004         29.2504
  20872615.2424  -15661027.24448 -12057707.62847                  20872622.5944
        30.2504         31.0004
  22390788.3134  -13163812.08647  -4150002.18246                  22390795.1334
        20.0004         20.2504
  24746970.6484    -100875.06545    -60630.25745                  24746981.9844
         7.5004          8.5004
 98  6 12 16 20  0.0000000  0  8G 2G 4G 8G 7G 9G24G 5G16
  24286206.6094   10976619.34445   9608545.34245                  24286217.6054
         9.2504         10.7504
  20811224.8054   -9649611.59448  -7519175.55147                  20811230.8984
        28.7504         28.7504
  22409682.8754  -11494508.30546  -8748335.87546                  22409690.2974
        18.5004         19.0004
  23232173.2584   12673568.10046   9875498.03246                  23232182.6374
        14.5004         14.7504
  21515377.7424   -9583500.21948  -7467662.97447                  21515384.4804
        28.0004         29.2504
  20867751.5944  -15686586.52448 -12077623.93747                  20867758.8054
        30.2504         31.0004
  22383538.0784  -13201911.38047  -4179689.92646                  22383545.0784
        20.0004         20.2504
  24746101.2974    -105445.64345    -64191.70045                  24746113.4064
         7.7504          8.7504
 98  6 12 16 20 15.0000000  0  8G 2G 4G 8G 7G 9G24G 5G16
  24294202.1724   11018634.44845   9641284.31645                  24294212.0664
         8.7504         10.2504
  20813101.3054   -9639751.87748  -7511492.65747                  20813107.3874
        29.5004         29.0004
  22403996.0554  -11524393.35346  -8771622.90846                  22404003.3244
        19.2504         19.2504
  23238617.4534   12707434.09446   9901887.08146                  23238626.6684
        13.7504         14.5004
  21516808.8594   -9575979.56948  -7461802.72947                  21516815.7304
        28.2504         29.2504
  20862911.5634  -15712020.97548 -12097442.97947                  20862918.7974
        30.2504         31.0004
  22376294.2274  -13239979.04146  -4209353.01946                  22376301.5784
        19.7504         20.5004
  24745254.8134    -109893.05045    -67657.20245                  24745267.8954
         9.2504          9.5004
 98  6 12 16 20 30.0000000  0  8G 2G 4G 8G 7G 9G24G 5G16
  24302208.2424   11060710.17545   9674070.52245                  24302219.5664
         7.7504         10.2504
  20815006.3134   -9629740.97848  -7503691.95547                  20815012.3834
        29.0004         28.7504
  22398336.5004  -11554134.86846  -8794798.10246                  22398343.8404
        19.2504         19.5004
  23245063.0784   12741305.48846   9928280.33146                  23245072.3874
        14.0004         14.2504
  21518265.6954   -9568322.64348  -7455836.30447                  21518272.4104
        28.0004         29.0004
  20858094.3054  -15737334.99548 -12117168.17347                  20858101.4694
        30.2504         31.0004
  22369055.5164  -13278016.65546  -4238992.69846                  22369062.5744
        19.7504         20.5004
  24744432.1804    -114217.32345    -71026.72545                  24744442.5314
         8.7504          8.5004
 98  6 12 16 20 45.0000000  0  8G 2G 4G 8G 7G 9G24G 5G16
  24310225.9224   11102839.77045   9706898.67945                  24310236.3794
         7.7504         10.0004
  20816938.9384   -9619584.25848  -7495777.63347                  20816945.0084
        29.5004         28.5004
  22392703.4774  -11583735.15646  -8817863.23346                  22392710.9574
        19.0004         19.5004
  23251508.8444   12775177.72946   9954674.24846                  23251518.3404
        14.0004         14.2504
  21519747.6564   -9560535.83548  -7449768.66747                  21519754.3364
        28.5004         28.7504
  20853298.3524  -15762537.19248 -12136806.23547                  20853305.7384
        29.7504         31.0004
  22361822.7424  -13316025.73046  -4268610.13946                  22361829.7774
        19.7504         20.2504
  24743631.4844    -118422.93345    -74303.86345                  24743641.7544
         8.5004          7.7504
 98  6 12 16 21  0.0000000  0  8G 2G 4G 8G 7G 9G24G 5G16
  24318254.1804   11145028.44445   9739772.93545                  24318264.8014
         8.2504         10.2504
  20818900.2814   -9609276.86748  -7487745.89947                  20818906.2814
        29.5004         28.7504
  22387099.0234  -11613188.66846  -8840814.00446                  22387106.7384
        19.0004         20.0004
  23257955.8364   12809059.01046   9981075.23846                  23257965.8364
        13.0004         14.0004
  21521255.2424   -9552612.95948  -7443595.00647                  21521261.7464
        28.2504         29.0004
  20848525.2814  -15787620.38848 -12156351.56647                  20848532.6214
        29.7504         31.0004
  22354596.8204  -13353997.93246  -4298198.83446                  22354604.1024
        19.5004         20.0004
  24742854.4384    -122506.83245    -77486.11045                  24742863.9224
         9.2504          8.2504
 98  6 12 16 21 15.0000000  0  8G 2G 4G 8G 7G 9G24G 5G16
  24326292.4844   11187272.25545   9772690.06345                  24326302.8714
         7.7504          9.5004
  20820890.6334   -9598817.94048  -7479596.08647                  20820896.7154
        29.0004         28.5004
  22381521.7194  -11642496.79446  -8863651.48646                  22381529.1764
        19.2504         19.7504
  23264405.7974   12842951.20046  10007484.69646                  23264415.8444
        12.7504         13.5004
  21522788.9064   -9544552.25148  -7437313.94947                  21522795.3404
        28.5004         28.7504
  20843774.8524  -15812583.91348 -12175803.64947                  20843782.2274
        30.2504         31.0004
  22347378.1884  -13391932.10646  -4327757.91246                  22347385.6804
        19.5004         20.2504
  24742101.3834    -126466.59345    -80571.59645                  24742112.1914
         9.2504          9.0004
 98  6 12 16 21 30.0000000  0  8G 2G 4G 8G 7G 9G24G 5G16
  24334342.9384   11229570.81445   9805649.90445                  24334353.7234
         8.2504          9.7504
  20822909.5864   -9588208.22948  -7471328.78547                  20822915.5274
        28.7504         28.7504
  22375972.1884  -11671661.86746  -8886377.49946                  22375979.1414
        19.5004         19.7504
  23270856.1414   12876851.92346  10033900.80346                  23270866.3404
        13.0004         13.7504
  21524349.2734   -9536353.74548  -7430925.50747                  21524355.5314
        28.2504         28.7504
  20839046.9534  -15837429.35548 -12195163.72247                  20839054.1994
        30.5004         31.2504
  22340167.1094  -13429826.39146  -4357285.90846                  22340174.3554
        19.0004         20.0004
  24741371.6644    -130303.39645    -83561.29145                  24741382.5314
         9.5004          9.0004
 98  6 12 16 21 45.0000000  0  8G 2G 4G 8G 7G 9G24G 5G16
  24342402.2194   11271925.42445   9838653.45845                  24342412.9104
         8.7504          9.0004
  20824957.6024   -9577445.74248  -7462942.43747                  20824963.6024
        29.0004         28.5004
  22370449.1334  -11700683.47746  -8908991.73446                  22370455.9654
        19.2504         19.7504
  23277309.5394   12910761.02446  10060323.43746                  23277319.3874
        13.2504         14.0004
  21525936.0084   -9528016.29447  -7424428.80047                  21525942.2304
        27.7504         28.7504
  20834341.8834  -15862155.26148 -12214430.65047                  20834349.2234
        30.0004         31.2504
  22332963.5234  -13467681.53746  -4386783.40246                  22332971.0274
        19.5004         20.0004
  24740665.3754    -134016.54445    -86454.66145                  24740675.0474
        11.0004          9.5004
 98  6 12 16 22  0.0000000  0  8G 2G 4G 8G 7G 9G24G 5G16
  24350473.2584   11314339.63745   9871703.42145                  24350481.6764
         7.5004          8.5004
  20827034.3754   -9566532.42548  -7454438.55247                  20827040.4344
        29.0004         28.5004
  22364952.8364  -11729565.58946  -8931497.26146                  22364960.1994
        19.5004         20.2504
  23283762.6414   12944676.51846  10086751.06646                  23283771.8674
        12.7504         13.5004
  21527548.6024   -9519541.23348  -7417824.86447                  21527554.9184
        28.2504         28.7504
  20829659.8914  -15886757.26448 -12233601.02647                  20829667.1844
        30.0004         31.0004
  22325766.5314  -13505500.50646  -4416252.71546                  22325773.7424
        19.2504         19.7504
  24739982.1484    -137605.06745    -89250.90645                  24739991.7734
        10.7504         10.2504
 98  6 12 16 22 15.0000000  0  8G 2G 4G 8G 7G 9G24G 5G16
  24358555.5394   11356811.90045   9904798.58245                  24358565.2464
         8.0004          8.7504
  20829139.2034   -9555471.59648  -7445819.73147                  20829145.1684
        29.0004         28.7504
  22359482.9844  -11758311.00246  -8953896.26346                  22359490.5944
        19.5004         20.2504
  23290217.8054   12978597.38545  10113182.89146                  23290227.6994
        11.7504         12.7504
  21529187.0634   -9510931.22448  -7411115.77547                  21529193.4614
        29.5004         29.0004
  20825002.3054  -15911234.28648 -12252674.01547                  20825009.6334
        29.7504         31.0004
  22318576.7974  -13543284.76846  -4445694.97446                  22318583.9024
        19.2504         20.0004
  24739322.0314    -141071.04045    -91951.64945                  24739332.1484
        10.5004          9.7504
 98  6 12 16 22 30.0000000  0  8G 2G 4G 8G 7G 9G24G 5G16
  24366649.1414   11399342.03245   9937938.87845                  24366658.5904
         8.2504          9.0004
  20831272.5084   -9544260.94448  -7437084.15747                  20831278.5204
        29.7504         28.7504
  22354039.2504  -11786917.45246  -8976186.98846                  22354046.9414
        19.7504         20.5004
  23296675.1724   13012530.19645  10139623.98546                  23296685.7234
        11.7504         12.7504
  21530851.7344   -9502183.32448  -7404299.23347                  21530858.0864
        30.0004         29.2504
  20820368.8754  -15935583.70948 -12271647.58147                  20820376.1454
        29.7504         31.0004
  22311393.9614  -13581030.40246  -4475107.13846                  22311400.7234
        19.5004         19.7504
  24738686.8984    -144409.41045    -94552.98545                  24738697.8014
        10.7504         10.2504
 98  6 12 16 22 45.0000000  0  8G 2G 4G 8G 7G 9G24G 5G16
  24374751.9694   11441926.05645   9971121.20945                  24374761.0904
         7.5004          8.5004
  20833432.9384   -9532908.28748  -7428237.93447                  20833438.9844
        29.5004         28.7504
  22348620.7344  -11815392.91346  -8998375.64146                  22348628.2504
        19.5004         20.2504
  23303134.3524   13046471.94946  10166072.08446                  23303145.1374
        12.5004         13.2504
  21532541.6884   -9493302.40548  -7397379.04647                  21532547.8054
        30.5004         29.7504
  20815758.9144  -15959808.57448 -12290524.08447                  20815766.0554
        29.5004         30.5004
  22304217.6644  -13618742.04446  -4504492.81746                  22304224.4614
        19.2504         19.7504
  24738075.4224    -147623.43745    -97057.40945                  24738086.9104
        10.2504         10.2504
 98  6 12 16 23  0.0000000  0  8G 2G 4G 8G 7G 9G24G 5G16
  24382866.4844   11484568.99044  10004349.40745                  24382876.1214
         7.2504          8.2504
  20835620.2814   -9521413.19848  -7419280.72847                  20835626.1524
        31.0004         29.2504
  22343227.0474  -11843736.36546  -9020461.43246                  22343234.3984
        19.5004         20.0004
  23309595.6804   13080427.75046  10192531.10946                  23309605.6214
        13.0004         13.7504
  21534258.1804   -9484282.38048  -7390350.47047                  21534264.1914
        30.2504         29.7504
  20811174.0704  -15983900.97148 -12309297.36747                  20811181.0594
        29.0004         30.5004
  22297048.2734  -13656416.53546  -4533849.54846                  22297055.3324
        19.5004         19.7504
  24737488.2894    -150708.84745    -99461.63245                  24737498.4304
        10.5004         10.0004
 98  6 12 16 23 15.0000000  0  8G 2G 4G 8G 7G 9G24G 5G16
  24390992.9844   11527270.55545  10037623.24445                  24391004.3914
         7.5004          8.5004
  20837834.8134   -9509776.54048  -7410213.19947                  20837840.6954
        30.7504         29.5004
  22337858.3984  -11871950.10146  -9042446.15046                  22337865.1954
        19.0004         19.5004
  23316060.6094   13114397.99446  10219001.37846                  23316070.0474
        12.2504         13.2504
  21536001.5944   -9475120.92848  -7383211.68347                  21536007.6764
        30.5004         29.7504
  20806614.8364  -16007859.35648 -12327966.22047                  20806622.1414
        29.0004         30.5004
  22289885.8754  -13694055.92246  -4563178.92146                  22289892.7704
        19.5004         20.2504
  24736925.6094    -153664.99345   -101765.09345                  24736936.0084
        11.2504         10.0004
 98  6 12 16 23 30.0000000  0  8G 2G 4G 8G 7G 9G24G 5G16
  24399131.1484   11570036.77945  10070947.47845                  24399142.6134
         8.5004          9.2504
  20840077.0784   -9497993.60548  -7401031.69047                  20840082.9964
        30.7504         29.7504
  22332514.7504  -11900029.92646  -9064326.51546                  22332521.1254
        19.2504         19.2504
  23322527.8524   13148386.12446  10245485.62646                  23322538.0164
        12.2504         12.7504
  21537772.5234   -9465813.72948  -7375959.32847                  21537778.7234
        29.7504         30.0004
  20802082.1884  -16031679.68248 -12346527.50047                  20802089.6804
        28.7504         30.5004
  22282730.9534  -13731655.52247  -4592477.28946                  22282737.9774
        20.0004         20.5004
  24736388.9534    -156485.72845   -103963.04745                  24736398.2974
        11.2504         10.2504
 98  6 12 16 23 45.0000000  0  8G 2G 4G 8G 7G 9G24G 5G16
  24407279.9064   11612863.75245  10104319.08945                  24407288.9344
         7.5004          8.5004
  20842345.7974   -9486070.20448  -7391740.73347                  20842351.7624
        30.5004         29.7504
  22327196.3204  -11927977.91446  -9086104.16746                  22327202.3554
        19.0004         19.0004
  23328998.4454   13182387.52846  10271980.15946                  23329007.8134
        13.0004         13.0004
  21539570.5554   -9456365.11348  -7368596.77647                  21539576.8834
        29.2504         29.7504
  20797574.9454  -16055365.53548 -12364983.99447                  20797582.3914
        29.0004         30.7504
  22275582.8674  -13769218.89747  -4621747.43046                  22275590.2194
        20.2504         21.0004
  24735877.6484    -159175.60045   -106059.03245                  24735888.3754
        11.2504         10.5004
 98  6 12 16 24  0.0000000  0  8G 2G 4G 8G 7G 9G24G 5G16
  24415441.1094   11655746.70445  10137734.24545                  24415451.8484
         8.5004          9.0004
  20844641.2034   -9474009.09148  -7382342.46447                  20844647.1684
        30.2504         29.5004
  22321902.6254  -11955796.99546  -9107781.35746                  22321909.4574
        19.0004         19.5004
  23335470.0164   13216398.25946  10298482.03346                  23335478.8204
        14.2504         13.2504
  21541394.5234   -9446779.51748  -7361127.48847                  21541400.8524
        29.7504         29.5004
  20793093.0944  -16078918.43448 -12383336.89647                  20793100.4224
        29.0004         30.7504
  22268441.1884  -13806748.73147  -4650991.43746                  22268448.6214
        20.5004         20.7504
  24735389.7734    -161737.66045   -108055.44545                  24735401.2854
        11.2504         10.0004
 98  6 12 16 24 15.0000000  0  8G 2G 4G 8G 7G 9G24G 5G16
  24423612.1484   11698683.64445  10171191.54945                  24423622.2074
         9.7504          9.7504
  20846962.0634   -9461812.37648  -7372838.53247                  20846968.1094
        29.7504         30.0004
  22316633.3834  -11983486.34046  -9129357.45946                  22316640.3954
        19.2504         19.7504
  23341944.2974   13250418.53246  10324991.29746                  23341952.8324
        13.5004         13.5004
  21543244.3914   -9437058.54448  -7353552.71047                  21543250.6724
        29.0004         29.7504
  20788636.2734  -16102338.52748 -12401586.30447                  20788643.1684
        29.0004         30.2504
  22261306.2504  -13844241.87447  -4680206.85046                  22261313.2384
        20.7504         21.0004
  24734925.9144    -164173.39145   -109953.39745                  24734935.8674
        10.7504          9.7504
 98  6 12 16 24 30.0000000  0  8G 2G 4G 8G 7G 9G24G 5G16
  24431792.7664   11741671.36045  10204688.38045                  24431803.6094
        10.5004         10.0004
  20849308.7894   -9449479.99748  -7363228.89247                  20849314.7774
        30.0004         30.0004
  22311389.8914  -12011042.76346  -9150829.98446                  22311397.4184
        18.7504         20.0004
  23348419.4384   13284446.99146  10351506.95246                  23348428.8404
        13.0004         13.0004
  21545120.0634   -9427201.19748  -7345871.67147                  21545126.5204
        29.7504         29.7504
  20784204.3444  -16125630.01448 -12419735.51047                  20784210.8834
        29.5004         30.2504
  22254179.1954  -13881696.40747  -4709392.17946                  22254186.3954
        20.5004         21.2504
  24734485.7114    -166485.47545   -111755.00045                  24734494.9494
        10.5004          9.5004
 98  6 12 16 24 45.0000000  0  8G 2G 4G 8G 7G 9G24G 5G16
  24439982.0164   11784705.31045  10238221.27645                  24439994.0204
        10.2504         10.2504
  20851680.3284   -9437017.74048  -7353518.04547                  20851686.4694
        29.7504         29.7504
  22306169.8444  -12038472.13846  -9172203.50746                  22306177.3134
        18.2504         19.7504
  23354895.2504   13318475.06146  10378022.27746                  23354903.5984
        13.2504         13.0004
  21547021.2194   -9417212.12148  -7338087.99247                  21547027.8054
        29.0004         30.0004
  20779795.2734  -16148798.98448 -12437789.24647                  20779801.7194
        29.5004         30.2504
  22247057.5634  -13919118.54747  -4738552.26746                  22247064.7504
        20.5004         21.5004
  24734068.3984    -168680.38345   -113465.33245                  24734079.4414
         9.7504         10.5004
 98  6 12 16 25  0.0000000  0  8G 2G 4G 8G 7G 9G24G 5G16
  24448182.0704   11827798.70345  10271800.47445                  24448194.5314
        10.2504         10.2504
  20854078.5394   -9424414.37948  -7343697.24647                  20854084.5044
        29.7504         29.5004
  22300976.5554  -12065762.18646  -9193468.46146                  22300984.0944
        18.2504         19.5004
  23361371.7114   13352511.37346  10404544.06146                  23361380.4804
        13.2504         12.5004
  21548950.0164   -9407076.45748  -7330190.07947                  21548956.4964
        29.2504         29.7504
  20775412.0394  -16171833.48948 -12455738.19647                  20775418.6134
        30.0004         30.5004
  22239945.7194  -13956493.67447  -4767675.71446                  22239953.1644
        21.0004         21.7504
  24733674.4924    -170746.97445   -115075.63745                  24733687.5514
         9.7504          9.5004
 98  6 12 16 25 15.0000000  0  8G 2G 4G 8G 7G 9G24G 5G16
  24456394.6954   11870953.95645  10305427.87645                  24456405.1644
        10.0004         10.0004
  20856504.6414   -9411665.53048  -7333763.08247                  20856510.6414
        29.2504         29.7504
  22295810.4304  -12092910.31246  -9214622.82746                  22295817.4414
        18.5004         19.5004
  23367850.9144   13386558.55646  10431074.30446                  23367859.9654
        14.0004         12.7504
  21550907.5084   -9396790.09448  -7322174.74347                  21550913.9774
        28.7504         30.0004
  20771054.5084  -16194732.37048 -12473581.46947                  20771061.4964
        29.7504         30.5004
  22232842.9774  -13993818.96147  -4796760.33446                  22232849.9654
        20.2504         21.2504
  24733306.2504    -172682.56245   -116583.88845                  24733317.4694
         9.2504          9.7504
 98  6 12 16 25 30.0000000  0  8G 2G 4G 8G 7G 9G24G 5G16
  24464617.3834   11914168.48445  10339101.44245                  24464627.8164
         9.5004          9.5004
  20858957.9304   -9398772.92048  -7323716.89747                  20858963.9414
        29.5004         29.5004
  22290671.3284  -12119917.30046  -9235667.21446                  22290678.6804
        18.5004         19.2504
  23374330.9144   13420611.62846  10457609.14546                  23374340.4224
        13.2504         13.0004
  21552892.5704   -9386359.54748  -7314047.05647                  21552899.1914
        29.5004         30.5004
  20766721.7974  -16217499.12148 -12491321.78147                  20766728.9384
        29.5004         30.5004
  22225749.0474  -14031096.07147  -4825807.41146                  22225756.0354
        20.2504         21.2504
  24732962.6484    -174491.35245   -117993.34145                  24732973.7034
         9.2504          8.5004
 98  6 12 16 25 45.0000000  0  8G 2G 4G 8G 7G 9G24G 5G16
  24472851.2114   11957435.52545  10372815.93645                  24472861.4694
         9.5004          9.7504
  20861437.0234   -9385745.67248  -7313565.80247                  20861443.1174
        29.7504         29.5004
  22285558.7344  -12146784.18346  -9256602.44446                  22285565.9224
        18.5004         19.2504
  23380810.9384   13454663.81246  10484143.26746                  23380819.7664
        12.5004         13.2504
  21554903.3754   -9375793.07348  -7305813.45047                  21554910.0554
        30.5004         30.5004
  20762413.6094  -16240139.10248 -12508963.31047                  20762420.4414
        29.7504         30.5004
  22218663.8204  -14068330.79747  -4854821.46846                  22218670.5004
        20.2504         21.2504
  24732640.9304    -176180.87545   -119309.85345                  24732651.7624
         9.0004          9.0004
 98  6 12 16 26  0.0000000  0  8G 2G 4G 8G 7G 9G24G 5G16
  24481094.8524   12000753.71445  10406570.28545                  24481104.5824
         9.2504          9.2504
  20863941.3364   -9372585.57948  -7303311.19147                  20863947.2074
        30.0004         29.7504
  22280472.7894  -12173510.92946  -9277428.45646                  22280480.3164
        18.2504         19.5004
  23387290.2664   13488713.17946  10510675.20846                  23387299.6334
        13.0004         12.7504
  21556939.3834   -9365092.70848  -7297475.52147                  21556946.1094
        31.0004         30.7504
  20758129.4144  -16262653.08948 -12526506.66747                  20758136.0704
        30.0004         30.5004
  22211585.7974  -14105524.11647  -4883803.25446                  22211592.7734
        20.5004         21.0004
  24732341.6954    -177753.50745   -120535.27045                  24732352.8914
         8.5004          9.0004
 98  6 12 16 26 15.0000000  0  8G 2G 4G 8G 7G 9G24G 5G16
  24489348.8054   12044129.98745  10440369.91245                  24489359.3204
         8.0004          9.0004
  20866471.6724   -9359288.56248  -7292949.87247                  20866477.5554
        29.5004         29.5004
  22275414.1414  -12200093.60646  -9298142.21046                  22275421.9494
        18.5004         19.5004
  23393770.5234   13522765.84446  10537209.70646                  23393780.3134
        13.2504         13.0004
  21559001.5704   -9354256.83748  -7289031.99447                  21559008.1454
        31.2504         30.7504
  20753870.2974  -16285035.05948 -12543947.15547                  20753876.7664
        30.0004         30.2504
  22204516.7894  -14142673.32247  -4912750.66146                  22204523.5164
        20.2504         21.2504
  24732065.3754    -179203.84345   -121665.41345                  24732076.1024
         8.5004          8.5004
 98  6 12 16 26 30.0000000  0  8G 2G 4G 8G 7G 9G24G 5G16
  24497615.0084   12087563.09145  10474213.78745                  24497626.2624
         9.0004          9.5004
  20869027.2894   -9345857.64548  -7282484.23247                  20869033.3714
        29.5004         29.2504
  22270383.1724  -12226532.46146  -9318743.90046                  22270390.7814
        18.7504         19.7504
  23400250.6644   13556818.87146  10563744.51346                  23400259.6914
        13.2504         12.7504
  21561089.4454   -9343286.68948  -7280483.84347                  21561096.0784
        31.2504         31.0004
  20749635.7034  -16307287.81148 -12561286.95047                  20749642.2894
        29.5004         30.0004
  22197454.7734  -14179783.12147  -4941667.36946                  22197461.7974
        21.0004         21.5004
  24731812.3594    -180533.01445   -122701.11645                  24731823.0634
         8.0004          8.5004
 98  6 12 16 26 45.0000000  0  8G 2G 4G 8G 7G 9G24G 5G16
  24505890.1804   12131053.84945  10508102.59745                  24505901.6564
         7.7504          8.7504
  20871609.3134   -9332290.01648  -7271912.05647                  20871615.3134
        29.2504         29.5004
  22265379.1414  -12252828.77246  -9339234.52046                  22265386.3874
        19.2504         19.7504
  23406731.1334   13590873.04546  10590280.20946                  23406740.1374
        13.2504         13.0004
  21563202.5704   -9332181.32048  -7271830.31547                  21563208.9574
        31.7504         31.0004
  20745425.3914  -16329412.73448 -12578527.13447                  20745431.7664
        29.7504         30.2504
  22190400.4774  -14216853.46647  -4970553.33046                  22190407.7584
        21.0004         21.7504
  24731582.9384    -181738.42145   -123640.42245                  24731590.5594
         8.2504          7.7504
 98  6 12 16 27  0.0000000  0  8G 2G 4G 8G 7G 9G24G 5G16
  24514176.7424   12174600.73344  10542035.14145                  24514187.3284
         6.2504          8.0004
  20874217.3284   -9318584.93648  -7261232.78047                  20874223.3754
        29.5004         29.5004
  22260401.8134  -12278985.19146  -9359616.12946                  22260408.7774
        19.2504         20.0004
  23413211.2814   13624926.80746  10616815.57346                  23413220.7074
        13.2504         12.7504
  21565341.1174   -9320943.03348  -7263073.21547                  21565347.4804
        31.2504         31.0004
  20741239.6484  -16351409.06348 -12595667.11447                  20741246.3284
        29.7504         30.5004
  22183353.9224  -14253884.32047  -4999408.51646                  22183361.0984
        22.0004         22.2504
  24731377.4144    -182818.01845   -124481.66345                  24731385.0354
         9.0004          8.2504
 98  6 12 16 27 15.0000000  0  8G 2G 4G 8G 7G 9G24G 5G16
  24522474.3134   12218204.10343  10576011.73345                  24522484.6764
         6.0004          7.0004
  20876851.9144   -9304739.71048  -7250444.30247                  20876858.0434
        29.7504         29.5004
  22255451.1334  -12304999.88246  -9379887.31046                  22255457.9304
        19.5004         20.2504
  23419691.9694   13658983.13546  10643352.92446                  23419701.6414
        12.2504         12.7504
  21567504.5634   -9309574.11148  -7254214.32147                  21567510.7384
        31.5004         30.7504
  20737079.0084  -16373274.35348 -12612704.99347                  20737085.9024
        29.5004         30.5004
  22176314.7504  -14290875.25847  -5028232.60546                  22176322.1254
        22.5004         22.5004
  24731195.8364    -183770.49545   -125223.81645                  24731205.2734
         8.7504          8.7504
 98  6 12 16 27 30.0000000  0  8G 2G 4G 8G 7G 9G24G 5G16
  24530781.6094   12261861.38343  10610030.26145                  24530791.7624
         5.7504          7.7504
  20879513.3284   -9290753.80148  -7239546.19147                  20879519.3284
        29.5004         29.2504
  22250527.9224  -12330872.28447  -9400047.60446                  22250534.9924
        20.2504         20.5004
  23426172.9844   13693040.72946  10669891.29146                  23426182.1294
        12.7504         12.7504
  21569692.0234   -9298078.47948  -7245256.69947                  21569698.2584
        32.0004         31.0004
  20732943.1954  -16395007.77248 -12629640.11447                  20732950.3484
        29.2504         30.7504
  22169283.0944  -14327827.33347  -5057026.40946                  22169290.2704
        22.7504         22.7504
  24731039.3524    -184598.10345   -125868.75745                  24731045.9734
         8.5004          8.2504
 98  6 12 16 27 45.0000000  0  8G 2G 4G 8G 7G 9G24G 5G16
  24539101.7424   12305579.35144  10644096.14145                  24539111.5314
         6.7504          7.7504
  20882202.6644   -9276621.22548  -7228533.80347                  20882208.7464
        29.7504         29.5004
  22245633.1804  -12356595.69647  -9420091.81546                  22245640.1454
        20.2504         20.7504
  23432655.3834   13727105.08846  10696434.91046                  23432663.9304
        13.2504         12.7504
  21571904.8364   -9286449.86848  -7236195.45447                  21571910.9064
        31.7504         30.7504
  20728834.0554  -16416601.48748 -12646466.37547                  20728841.4304
        29.2504         30.7504
  22162260.3444  -14364732.39447  -5085783.57346                  22162267.2734
        23.0004         22.7504
  24730905.3594    -185295.12145   -126411.86245                  24730913.1454
         8.0004          8.0004
 98  6 12 16 28  0.0000000  0  8G 2G 4G 8G 7G 9G24G 5G16
  24547431.0394   12349353.25244  10678205.60645                  24547438.8714
         6.5004          8.2504
  20884919.0394   -9262345.99748  -7217410.25447                  20884924.9454
        29.7504         29.7504
  22240764.5554  -12382179.00046  -9440026.83146                  22240771.8364
        19.7504         20.7504
  23439138.0004   13761173.29346  10722981.53546                  23439147.2274
        12.7504         13.0004
  21574142.6174   -9274690.64848  -7227032.43947                  21574148.6764
        32.0004         30.5004
  20724749.8754  -16438063.61148 -12663190.09447                  20724757.3794
        29.5004         31.0004
  22155245.7424  -14401593.45547  -5114506.45946                  22155252.8954
        22.7504         23.0004
  24730797.1884    -185864.75645   -126855.75145                  24730807.1054
         8.0004          7.7504
 98  6 12 16 28 15.0000000  0  8G 2G 4G 8G 7G 9G24G 5G16
  24555772.3284   12393184.86143  10712359.97345                  24555781.6954
         6.0004          7.2504
  20887663.4774   -9247924.75548  -7206172.92347                  20887669.4884
        29.2504         29.5004
  22235922.2274  -12407626.20446  -9459855.80946                  22235929.4264
        19.5004         20.2504
  23445621.8364   13795245.95946  10749531.64246                  23445631.4614
        12.7504         12.2504
  21576405.1954   -9262800.43348  -7217767.34247                  21576411.3134
        30.7504         30.2504
  20720690.3444  -16459395.59648 -12679812.40547                  20720697.4844
        29.7504         31.0004
  22148239.8524  -14438410.33047  -5143194.90546                  22148246.9574
        23.0004         23.2504
  24730713.8284    -186305.35745   -127199.06945                  24730723.4534
         8.2504          8.2504
 98  6 12 16 28 30.0000000  0  8G 2G 4G 8G 7G 9G24G 5G16
  24564125.1094   12437080.36144  10746564.18745                  24564133.7974
         6.7504          7.5004
  20890437.2814   -9233348.70948  -7194814.96947                  20890443.2704
        29.7504         29.2504
  22231106.9924  -12432929.65046  -9479572.77046                  22231113.9574
        19.7504         20.5004
  23452108.5084   13829331.72346  10776091.94246                  23452118.0274
        12.7504         12.0004
  21578694.4924   -9250769.97048  -7208392.97147                  21578700.5634
        30.5004         30.0004
  20716657.0554  -16480590.98348 -12696328.28847                  20716663.7814
        30.0004         30.7504
  22141243.7344  -14475175.03247  -5171842.70346                  22141250.6644
        23.5004         23.2504
  24730656.5164    -186608.50445   -127435.29345                  24730665.8014
         8.7504          7.7504
 98  6 12 16 28 45.0000000  0  8G 2G 4G 8G 7G 9G24G 5G16
  24572490.1094   12481033.57244  10780813.40945                  24572501.4344
         6.7504          8.0004
  20893239.1564   -9218623.51348  -7183340.79347                  20893245.1214
        29.7504         29.5004
  22226318.2814  -12458094.34746  -9499181.60546                  22226325.2934
        19.2504         20.2504
  23458596.6024   13863426.80846  10802659.51746                  23458605.6644
        13.2504         12.2504
  21581009.9384   -9238601.66248  -7198911.18047                  21581016.0314
        29.7504         29.7504
  20712648.5704  -16501656.52348 -12712742.98147                  20712655.6994
        30.0004         31.0004
  22134257.2814  -14511889.38647  -5200451.27646                  22134263.8444
        24.0004         23.2504
  24730624.1884    -186779.75745   -127568.79345                  24730635.0784
        10.0004          8.2504
 98  6 12 16 29  0.0000000  0  8G 2G 4G 8G 7G 9G24G 5G16
  24580864.8284   12525046.40144  10815108.97245                  24580877.5004
         6.7504          8.2504
  20896069.3204   -9203751.45248  -7171752.18147                  20896075.3094
        29.7504         29.2504
  22221556.2424  -12483118.03346  -9518680.56346                  22221563.5004
        19.0004         19.7504
  23465086.8364   13897533.69746  10829236.30946                  23465095.8984
        13.2504         13.0004
  21583351.7584   -9226294.74448  -7189321.38247                  21583358.2504
        28.7504         29.5004
  20708665.2584  -16522589.48948 -12729054.37747                  20708672.1884
        30.0004         31.0004
  22127280.0634  -14548553.82047  -5229020.94546                  22127286.5784
        23.7504         23.2504
  24730617.1724    -186819.56745   -127599.80845                  24730627.7344
        10.0004          8.7504
 98  6 12 16 29 15.0000000  0  8G 2G 4G 8G 7G 9G24G 5G16
  24589250.5784   12569115.77844  10849448.68745                  24589262.5474
         6.7504          7.7504
  20898925.5634   -9188742.64948  -7160057.01147                  20898931.6214
        29.0004         29.0004
  22216820.5784  -12508003.59146  -9538071.89646                  22216827.6954
        18.7504         19.7504
  23471578.3364   13931645.92046  10855817.22246                  23471587.4454
        13.0004         13.0004
  21585718.4384   -9213857.08348  -7179629.70847                  21585725.0944
        28.5004         29.5004
  20704705.8984  -16543394.87848 -12745266.35347                  20704713.1094
        29.7504         31.0004
  22120311.3364  -14585175.49047  -5257557.28846                  22120317.8054
        24.2504         23.5004
  24730632.5394    -186736.19845   -127534.86545                  24730641.7424
         9.5004          8.5004
 98  6 12 16 29 30.0000000  0  8G 2G 4G 8G 7G 9G24G 5G16
  24597648.2424   12613242.98944  10883833.41445                  24597659.2734
         6.7504          8.2504
  20901806.9384   -9173599.33848  -7148257.03247                  20901813.0084
        28.5004         29.0004
  22212111.6804  -12532749.83646  -9557354.67346                  22212118.9964
        19.2504         19.7504
  23478070.8444   13965765.09046  10882403.53746                  23478079.5554
        13.2504         12.5004
  21588110.5164   -9201286.87848  -7169834.75147                  21588117.5164
        28.0004         29.2504
  20700770.6644  -16564074.28848 -12761380.16747                  20700777.8984
        29.7504         30.7504
  22113350.2194  -14621755.52547  -5286061.19146                  22113356.6054
        24.2504         23.2504
  24730670.8594    -186531.05545   -127375.03045                  24730681.4224
         9.0004          8.7504
 98  6 12 16 29 45.0000000  0  8G 2G 4G 8G 7G 9G24G 5G16
  24606058.2194   12657437.37845  10918270.50445                  24606069.7074
         7.5004          8.2504
  20904715.3204   -9158316.09048  -7136348.01247                  20904721.4964
        28.2504         28.7504
  22207430.0004  -12557351.11146  -9576524.47946                  22207437.1764
        19.5004         19.7504
  23484566.0084   13999898.01246  10909000.60146                  23484574.0864
        13.0004         12.0004
  21590530.1954   -9188572.25647  -7159927.26247                  21590537.2304
        27.2504         29.2504
  20696860.5944  -16584621.93448 -12777391.30947                  20696867.6644
        29.7504         30.5004
  22106399.0784  -14658285.30047  -5314525.94046                  22106405.5944
        24.0004         23.5004
  24730734.8754    -186195.38545   -127113.45245                  24730744.3364
         8.5004          8.2504
 98  6 12 16 30  0.0000000  0  8G 2G 4G 8G 7G 9G24G 5G16
  24614480.3834   12701696.91845  10952758.43545                  24614490.6174
         8.0004          7.5004
  20907649.2664   -9142898.52547  -7124334.33547                  20907655.3364
        27.7504         28.5004
  22202775.1724  -12581811.92546  -9595584.84646                  22202782.2664
        19.7504         20.0004
  23491064.2894   14034044.25246  10935608.02246                  23491071.6054
        13.5004         12.0004
  21592976.5944   -9175717.04548  -7149910.21847                  21592983.4024
        28.0004         28.7504
  20692974.4614  -16605043.79848 -12793304.43847                  20692981.0824
        30.0004         30.0004
  22099456.0784  -14694769.70047  -5342955.32246                  22099462.7584
        23.7504         23.2504
  24730823.8674    -185729.83345   -126750.71845                  24730835.1804
         9.2504          8.7504
 98  6 12 16 30 15.0000000  0  8G 2G 4G 8G 7G 9G24G 5G16
  24622915.8914   12746023.59445  10987298.59045                  24622925.2464
         9.2504          8.7504
  20910608.9844   -9127344.78148  -7112214.54047                  20910615.0314
        28.2504         28.5004
  22198148.3594  -12606128.14847  -9614532.54946                  22198155.5704
        20.0004         20.2504
  23497564.7274   14068204.54546  10962226.43346                  23497572.1254
        13.5004         12.2504
  21595450.0084   -9162719.03048  -7139781.90647                  21595456.5124
        28.0004         28.5004
  20689112.9454  -16625336.36348 -12809116.81547                  20689119.3094
        30.0004         30.0004
  22092522.0234  -14731207.78547  -5371348.61246                  22092529.1644
        23.5004         23.7504
  24730937.7114    -185130.69745   -126283.86945                  24730946.3404
         9.2504          8.2504
 98  6 12 16 30 30.0000000  0  8G 2G 4G 8G 7G 9G24G 5G16
  24631361.2274   12790403.29745  11021880.14045                  24631372.7274
         9.0004          8.7504
  20913592.1724   -9111668.05348  -7099998.91247                  20913598.2304
        28.2504         28.5004
  22193546.7894  -12630309.30247  -9633374.99046                  22193554.0474
        20.2504         20.5004
  23504064.8444   14102364.78246  10988844.78145                  23504073.7424
        12.7504         11.7504
  21597948.1254   -9149590.51248  -7129551.90347                  21597954.5354
        29.0004         28.7504
  20685274.4384  -16645508.03748 -12824834.99447                  20685280.7664
        30.5004         30.0004
  22085594.5314  -14767612.43347  -5399715.84846                  22085601.3634
        23.2504         23.5004
  24731074.7194    -184411.07345   -125723.15945                  24731084.9884
         9.5004          9.2504
 98  6 12 16 30 45.0000000  0  7G 4G 8G 7G 9G24G 5G16
  20916598.0554   -9095871.77248  -7087690.13447                  20916604.1724
        28.2504         28.7504
  22188971.6174  -12654352.60747  -9652110.02146                  22188978.9574
        20.2504         20.7504
  23510565.4694   14136523.93046  11015462.24746                  23510574.7424
        13.0004         12.0004
  21600471.1644   -9136331.39648  -7119220.13847                  21600477.2114
        28.2504         28.5004
  20681458.7194  -16665559.09948 -12840459.18747                  20681465.5274
        29.5004         30.0004
  22078673.3594  -14803983.94447  -5428057.26946                  22078680.1564
        23.5004         23.5004
  24731234.5634    -183571.22245   -125068.72545                  24731244.5274
         9.2504          8.7504
 98  6 12 16 31  0.0000000  0  8G30G 4G 8G 7G 9G24G 5G16
  24857817.4924     -16217.71254
         6.2504
  20919628.3444   -9079947.88248  -7075281.91247                  20919634.4144
        28.2504         29.0004
  22184423.6954  -12678251.58947  -9670732.59146                  22184430.9304
        20.5004         20.7504
  23517066.5164   14170687.65146  11042083.29646                  23517075.3554
        13.2504         12.5004
  21603020.7974   -9122933.65248  -7108780.35347                  21603026.8674
        28.0004         28.2504
  20677667.6174  -16685482.83548 -12855984.16447                  20677674.6294
        29.2504         30.0004
  22071759.3834  -14840316.80047  -5456368.57546                  22071766.0744
        23.5004         23.5004
  24731419.2114    -182603.94245   -124315.01945                  24731427.8754
         9.2504          9.0004
 98  6 12 16 31 15.0000000  0  8G30G 4G 8G 7G 9G24G 5G16
  24848555.9304     -64882.36144
         6.7504
  20922684.5944   -9063886.73948  -7062766.74747                  20922690.7114
        28.5004         29.2504
  22179904.1884  -12702001.70647  -9689239.16846                  22179910.9024
        20.2504         20.5004
  23523568.2974   14204856.15446  11068708.07646                  23523576.3874
        13.0004         12.5004
  21605597.3834   -9109393.60747  -7098229.68047                  21605603.5004
        27.7504         28.5004
  20673900.8364  -16705275.50348 -12871407.01347                  20673907.9414
        29.0004         30.0004
  22064853.8444  -14876605.63347  -5484645.57546                  22064860.5824
        24.0004         23.7504
  24731627.9454    -181503.10545   -123457.24445                  24731637.4184
         9.0004          8.7504
 98  6 12 16 31 30.0000000  0  8G30G 4G 8G 7G 9G24G 5G16
  24839293.6564    -113557.96644
         7.2504
  20925768.4694   -9047681.84248  -7050139.55547                  20925774.5274
        28.5004         29.2504
  22175411.8444  -12725607.50347  -9707633.28446                  22175418.4654
        20.5004         20.5004
  23530071.2734   14239028.36246  11095335.76546                  23530080.3014
        12.7504         12.0004
  21608201.4614   -9095709.50147  -7087566.75347                  21608207.7074
        27.7504         28.5004
  20670159.5474  -16724937.42748 -12886727.98047                  20670166.6414
        29.2504         29.7504
  22057957.0314  -14912847.28747  -5512885.80546                  22057963.8914
        24.2504         23.7504
  24731863.4454    -180265.99845   -122493.25445                  24731874.0204
         9.5004          8.7504
 98  6 12 16 31 45.0000000  0  8G30G 4G 8G 7G 9G24G 5G16
  24830027.4534    -162253.19044
         6.5004
  20928877.8674   -9031340.98148  -7037406.42447                  20928884.0204
        28.2504         29.0004
  22170944.7114  -12749082.14047  -9725925.20346                  22170951.0984
        20.5004         20.2504
  23536573.4144   14273195.77246  11121959.67946                  23536581.5984
        13.2504         12.2504
  21610832.0004   -9081887.38948  -7076796.28747                  21610838.2584
        28.0004         28.7504
  20666441.3444  -16744475.77148 -12901952.64947                  20666448.3914
        29.0004         29.7504
  22051068.1094  -14949049.22947  -5541095.10246                  22051074.6134
        23.7504         23.7504
  24732123.0784    -178900.13245   -121428.98945                  24732131.4844
         9.0004          8.5004
 98  6 12 16 32  0.0000000  0  8G30G 4G 8G 7G 9G24G 5G16
  24820758.4924    -210962.04844
         7.0004
  20932014.3914   -9014859.29048  -7024563.55147                  20932020.5554
        28.0004         29.0004
  22166503.7814  -12772420.41947  -9744110.87046                  22166510.3674
        20.5004         20.5004
  23543075.0314   14307363.15646  11148583.60046                  23543083.5204
        12.5004         12.0004
  21613488.1334   -9067927.84448  -7065918.73147                  21613494.5204
        29.0004         29.0004
  20662748.1564  -16763882.96748 -12917075.13247                  20662755.0634
        28.5004         29.5004
  22044187.4774  -14985206.91247  -5569269.90246                  22044194.1804
        24.2504         23.7504
  24732408.4224    -177401.38345   -120261.12645                  24732419.1254
         9.7504          8.7504
 98  6 12 16 32 15.0000000  0  8G30G 4G 8G 7G 9G24G 5G16
  24811487.7734    -259680.47744    -10121.92455                  24811496.9414
         6.7504          8.5004
  20935177.8674   -8998234.36348  -7011609.06147                  20935184.0314
        28.5004         29.2504
  22162089.4384  -12795618.91747  -9762187.60746                  22162096.1644
        20.5004         20.5004
  23549577.2114   14341531.31146  11175208.09446                  23549585.3594
        12.7504         12.2504
  21616170.7664   -9053831.72748  -7054934.75347                  21616177.1174
        30.0004         29.5004
  20659081.1804  -16783153.55248 -12932091.16247                  20659088.0984
        29.0004         29.5004
  22037315.3134  -15021320.31447  -5597410.19646                  22037321.9804
        23.5004         23.5004
  24732719.3914    -175770.61145   -118990.41945                  24732731.5004
        10.5004          8.7504
 98  6 12 16 32 30.0000000  0  8G30G 4G 8G 7G 9G24G 5G16
  24802214.2114    -308407.96544    -48091.35545                  24802223.0514
         6.7504          8.7504
  20938368.7974   -8981466.38048  -6998543.10647                  20938374.8554
        28.5004         29.2504
  22157701.5944  -12818677.16447  -9780155.06746                  22157708.4384
        21.2504         20.5004
  23556079.2664   14375697.66446  11201831.19646                  23556087.5664
        14.2504         13.0004
  21618878.8284   -9039600.99148  -7043845.87847                  21618885.1214
        29.7504         29.2504
  20655440.4534  -16802286.51848 -12946999.94947                  20655447.4184
        28.7504         29.5004
  22030451.2814  -15057390.95347  -5625517.16646                  22030458.0434
        23.5004         23.5004
  24733053.7814    -174010.71845   -117619.06245                  24733063.5474
        10.0004          9.2504
 98  6 12 16 32 45.0000000  0  8G30G 4G 8G 7G 9G24G 5G16
  24792941.1564    -357141.93344    -86065.82045                  24792951.4614
         6.7504          8.0004
  20941587.0554   -8964554.94248  -6985365.36247                  20941593.2424
        28.0004         29.2504
  22153340.7034  -12841595.07247  -9798013.17246                  22153347.1484
        21.2504         20.2504
  23562581.1024   14409866.40046  11228456.15446                  23562588.6524
        14.2504         13.0004
  21621612.1564   -9025236.39548  -7032652.69147                  21621618.2974
        30.2504         29.2504
  20651825.5234  -16821282.05648 -12961801.65447                  20651832.2734
        29.0004         29.2504
  22023595.2584  -15093420.92247  -5653592.44946                  22023601.9024
        23.2504         23.5004
  24733413.8444    -172121.62845   -116147.07045                  24733423.4924
        10.0004          9.2504
 98  6 12 16 33  0.0000000  0  8G30G 4G 8G 7G 9G24G 5G16
  24783667.5474    -405876.87544   -124041.04245                  24783676.4574
         6.5004          8.2504
  20944833.7664   -8947492.59148  -6972070.02747                  20944839.7304
        28.5004         29.2504
  22149006.5474  -12864368.53347  -9815758.71146                  22149012.7464
        20.2504         20.2504
  23569084.6414   14444043.20146  11255087.39246                  23569092.6604
        14.0004         13.0004
  21624372.2274   -9010732.46148  -7021350.93347                  21624378.3674
        30.5004         29.2504
  20648238.1024  -16840134.17548 -12976491.60447                  20648244.7464
        29.5004         29.2504
  22016747.3364  -15129406.13747  -5681632.86146                  22016753.7234
        23.0004         23.2504
  24733799.1024    -170096.66845   -114569.18345                  24733809.8054
        10.0004          9.2504
 98  6 12 16 33 15.0000000  0  8G30G 4G 8G 7G 9G24G 5G16
  24774393.1334    -454614.63145   -162018.49045                  24774403.1454
         7.5004          8.5004
  20948108.8204   -8930282.12448  -6958659.27747                  20948114.8094
        28.5004         29.2504
  22144699.5314  -12887001.47046  -9833394.75846                  22144706.1414
        19.7504         20.0004
  23575589.6414   14478226.37746  11281723.61946                  23575598.7504
        13.7504         12.7504
  21627158.2584   -8996093.14648  -7009943.68147                  21627164.3524
        30.7504         29.2504
  20644677.9614  -16858843.50248 -12991070.28847                  20644684.4884
        29.0004         29.5004
  22009907.8444  -15165347.84847  -5709639.37246                  22009914.3484
        22.5004         23.0004
  24734208.7344    -167939.39145   -112888.18245                  24734218.5944
         9.2504          9.0004
 98  6 12 16 33 30.0000000  0  8G30G 4G 8G 7G 9G24G 5G16
  24765117.0234    -503358.07245   -200000.35445                  24765125.5004
         7.7504          9.2504
  20951410.2894   -8912933.01948  -6945140.49247                  20951416.1954
        29.2504         29.0004
  22140418.5234  -12909498.51847  -9850924.91646                  22140425.2624
        20.0004         20.0004
  23582094.7344   14512411.83146  11308361.61246                  23582103.1644
        13.2504         12.5004
  21629968.4534   -8981324.65048  -6998435.77147                  21629974.4414
        31.2504         29.0004
  20641144.3364  -16877412.61048 -13005539.71147                  20641151.1804
        28.7504         29.5004
  22003075.8054  -15201250.67147  -5737615.58746                  22003082.3554
        22.5004         22.7504
  24734643.8834    -165656.71945   -111109.47245                  24734654.2814
         9.7504          9.7504
 98  6 12 16 33 45.0000000  0  8G30G 4G 8G 7G 9G24G 5G16
  24755841.2504    -552102.96145   -237983.33345                  24755851.2154
         8.0004          9.2504
  20954736.2974   -8895454.48948  -6931520.86647                  20954742.2734
        29.2504         29.2504
  22136163.7034  -12931860.17047  -9868349.56946                  22136170.6564
        20.0004         20.2504
  23588601.2424   14546601.91146  11335003.19546                  23588610.0944
        13.7504         12.7504
  21632803.3524   -8966427.95248  -6986827.96847                  21632809.4454
        31.5004         29.0004
  20637637.2504  -16895841.88448 -13019900.17647                  20637643.9774
        28.7504         29.5004
  21996250.5004  -15237117.35147  -5765563.63246                  21996256.8284
        22.0004         22.7504
  24735100.4384    -163253.67645   -109236.97945                  24735111.6454
         9.7504          9.5004
 98  6 12 16 34  0.0000000  0  8G30G 4G 8G 7G 9G24G 5G16
  24746566.7274    -600837.61645   -275958.34645                  24746575.8594
         8.2504          9.0004
  20958087.6024   -8877843.76548  -6917798.22547                  20958093.5204
        28.7504         29.2504
  22131936.4924  -12954074.17747  -9885659.18046                  22131943.8094
        20.2504         20.5004
  23595109.7504   14580804.84846  11361654.78746                  23595118.0864
        13.2504         12.5004
  21635662.9384   -8951400.44848  -6975118.23247                  21635668.9264
        31.7504         29.2504
  20634157.9614  -16914125.75248 -13034147.33047                  20634164.7934
        28.5004         29.5004
  21989433.0234  -15272943.24347  -5793479.89046                  21989439.7734
        20.2504         22.2504
  24735582.3284    -160725.73845   -107267.16645                  24735591.7074
         9.5004          9.5004
 98  6 12 16 34 15.0000000  0  8G30G 4G 8G 7G 9G24G 5G16
  24737294.3134    -649567.76445   -313929.81545                  24737304.0664
         8.0004          8.7504
  20961462.6644   -8860107.88148  -6903978.06347                  20961468.7704
        29.0004         29.5004
  22127736.3834  -12976145.32047  -9902857.45546                  22127743.6414
        20.5004         20.5004
  23601619.1024   14615010.05546  11388308.17546                  23601628.7154
        13.2504         12.7504
  21638545.7974   -8936251.41048  -6963313.79747                  21638551.6454
        32.0004         29.2504
  20630704.5004  -16932274.11548 -13048288.89947                  20630711.3444
        28.2504         29.5004
  21982621.2424  -15308738.29047  -5821372.11546                  21982628.3594
        20.5004         22.2504
  24736084.6804    -158083.58945   -105208.33745                  24736095.3364
        10.0004          9.5004
 98  6 12 16 34 30.0000000  0  8G30G 4G 8G 7G 9G24G 5G16
  24728023.4614    -698285.02445   -351891.31445                  24728032.1844
         8.7504          8.7504
  20964863.5634   -8842235.79148  -6890051.76547                  20964869.7034
        29.0004         29.2504
  22123565.4774  -12998062.97847  -9919936.14046                  22123572.6414
        20.5004         20.7504
  23608129.9694   14649227.63946  11414971.19946                  23608139.4064
        12.7504         12.2504
  21641454.3984   -8920966.20248  -6951403.26347                  21641460.3874
        31.5004         29.5004
  20627277.6174  -16950281.41348 -13062320.54747                  20627284.2974
        29.5004         29.7504
  21975817.5864  -15344491.22747  -5849231.52646                  21975824.6804
        20.7504         22.2504
  24736611.7194    -155315.64845   -103051.49845                  24736622.6454
        10.0004          9.2504
 98  6 12 16 34 45.0000000  0  8G30G 4G 8G 7G 9G24G 5G16
  24718753.6334    -746997.57745   -389849.10145                  24718761.8634
         8.7504          9.0004
  20968289.2664   -8824234.01748  -6876024.40647                  20968295.2424
        29.2504         29.5004
  22119422.5394  -13019833.95547  -9936900.53046                  22119430.0434
        20.7504         20.7504
  23614643.0314   14683452.08646  11441639.55646                  23614651.1214
        12.7504         12.2504
  21644388.0864   -8905550.31548  -6939390.89347                  21644394.0514
        30.7504         29.5004
  20623875.7664  -16968158.96748 -13076251.09747                  20623882.6484
        29.7504         30.2504
  21969021.1094  -15380206.93447  -5877061.92046                  21969027.9694
        20.5004         22.0004
  24737161.7114    -152426.83045   -100800.46945                  24737173.2704
         9.5004          9.5004
 98  6 12 16 35  0.0000000  0  8G30G 4G 8G 7G 9G24G 5G16
  24709485.0554    -795706.94345   -427804.43545                  24709492.5594
         8.5004          9.2504
  20971739.5554   -8806103.17548  -6861896.48147                  20971745.6604
        29.2504         29.5004
  22115307.5634  -13041457.96447  -9953750.39346                  22115315.5234
        20.0004         20.5004
  23621156.8834   14717683.44246  11468313.31646                  23621164.7274
        12.7504         12.5004
  21647346.6724   -8890002.23848  -6927275.52347                  21647352.6374
        30.7504         29.2504
  20620497.9064  -16985909.33648 -13090082.55047                  20620504.8714
        30.2504         30.2504
  21962232.4694  -15415880.08447  -5904859.16246                  21962239.9144
        20.0004         21.7504
  24737733.8834    -149416.85045    -98454.99645                  24737743.8954
         9.2504          9.5004
 98  6 12 16 35 15.0000000  0  8G30G 4G 8G 7G 9G24G 5G16
  24700215.8834    -844413.43845   -465757.48545                  24700224.2664
         9.0004          7.7504
  20975214.2424   -8787842.18948  -6847667.14447                  20975220.2774
        29.2504         29.5004
  22111220.8914  -13062932.64647  -9970483.90546                  22111228.3364
        20.0004         20.2504
  23627671.9384   14751922.34146  11494992.95346                  23627680.8594
        12.5004         12.2504
  21650330.7584   -8874320.46148  -6915055.97347                  21650336.8164
        31.2504         29.7504
  20617144.1884  -17003533.02548 -13103815.28347                  20617151.2704
        30.2504         30.5004
  21955453.6484  -15451503.49447  -5932617.63946                  21955460.8244
        20.0004         21.7504
  24738330.3054    -146283.76745    -96013.63145                  24738340.9384
         9.0004          9.2504
 98  6 12 16 35 30.0000000  0  8G30G 4G 8G 7G 9G24G 5G16
  24690948.4384    -893117.04845   -503708.36245                  24690955.8594
         9.0004          8.7504
  20978714.4534   -8769450.17848  -6833335.71147                  20978720.4774
        29.0004         29.5004
  22107163.8054  -13084254.73147  -9987098.50446                  22107171.5664
        20.0004         20.5004
  23634189.8054   14786171.64145  11521680.66945                  23634198.3984
        11.7504         11.7504
  21653340.3674   -8858505.25348  -6902732.44847                  21653346.4494
        31.5004         29.7504
  20613814.7034  -17021030.27048 -13117449.49347                  20613821.8204
        30.0004         30.5004
  21948685.0864  -15487072.36346  -5960333.61646                  21948692.6484
        19.7504         21.5004
  24738950.1024    -143025.43045    -93474.67745                  24738962.1764
         8.7504          9.0004
 98  6 12 16 35 45.0000000  0  8G30G 4G 8G 7G 9G24G 5G16
  24681680.0004    -941823.54845   -541661.43745                  24681687.0704
         8.5004          8.5004
  20982238.9064   -8750927.79148  -6818902.68247                  20982244.9534
        29.5004         29.2504
  22103134.3204  -13105429.16847 -10003598.05646                  22103141.8244
        20.0004         20.5004
  23640708.2194   14820428.30145  11548374.14446                  23640716.6374
        11.7504         12.0004
  21656373.9924   -8842561.98548  -6890309.13647                  21656380.0514
        31.2504         30.0004
  20610508.2424  -17038405.62448 -13130988.71947                  20610515.3714
        30.0004         30.2504
  21941926.0394  -15522591.01146  -5988010.46346                  21941933.0164
        19.7504         21.7504
  24739593.4844    -139643.71545    -90839.56445                  24739604.9494
         8.7504          9.0004
 98  6 12 16 36  0.0000000  0  8G30G 4G 8G 7G 9G24G 5G16
  24672408.3134    -990539.97545   -579622.22745                  24672415.9804
         7.5004          8.2504
  20985788.2344   -8732276.02748  -6804368.84047                  20985794.2344
        29.2504         29.2504
  22099132.5394  -13126459.05447 -10019984.97246                  22099139.8444
        20.2504         20.5004
  23647227.9454   14854688.34346  11575070.24646                  23647236.1414
        12.0004         12.0004
  21659431.1954   -8826496.91248  -6877790.90747                  21659437.2304
        30.7504         29.7504
  20607223.8674  -17055664.58848 -13144437.25247                  20607230.7734
        29.7504         29.7504
  21935176.1334  -15558061.85847  -6015650.06546                  21935183.1684
        20.2504         21.5004
  24740260.1174    -136139.83345    -88109.26945                  24740270.9384
         9.0004          9.0004
 98  6 12 16 36 15.0000000  0  8G30G 4G 8G 7G 9G24G 5G16
  24663137.0004   -1039264.92245   -617589.71745                  24663147.0944
         7.7504          7.5004
  20989363.6954   -8713486.65548  -6789727.77447                  20989369.7544
        29.7504         29.2504
  22095159.0554  -13147340.30347 -10036256.06046                  22095166.1954
        20.5004         20.5004
  23653748.5554   14888953.64046  11601770.45946                  23653756.3054
        12.7504         12.2504
  21662512.2814   -8810306.79948  -6865175.23747                  21662518.3524
        30.2504         29.5004
  20603962.5004  -17072802.45648 -13157791.43447                  20603969.5474
        29.0004         29.7504
  21928436.9844  -15593477.68847  -6043246.79446                  21928443.9264
        20.5004         22.0004
  24740951.7814    -132505.93145    -85277.64945                  24740962.3204
         9.0004          9.2504
 98  6 12 16 36 30.0000000  0  8G30G 4G 8G 7G 9G24G 5G16
  24653863.2974   -1087998.73745   -655564.03845                  24653873.1684
         7.5004          8.0004
  20992965.5164   -8694559.40048  -6774979.26147                  20992971.4804
        29.2504         29.2504
  22091213.4144  -13168073.48747 -10052411.77846                  22091220.6844
        20.2504         20.5004
  23660271.0394   14923227.75946  11628477.51046                  23660279.9494
        13.5004         12.2504
  21665617.4144   -8793987.49248  -6852458.90247                  21665623.4024
        30.7504         29.2504
  20600724.9454  -17089815.90548 -13171048.65747                  20600732.0744
        28.2504         29.5004
  21921709.4454  -15628831.19047  -6070794.95246                  21921716.4104
        21.0004         22.0004
  24741669.4844    -128736.96645    -82340.76245                  24741680.5634
         9.5004          9.0004
 98  6 12 16 36 45.0000000  0  8G30G 4G 8G 7G 9G24G 5G16
  24644585.5004   -1136750.42144   -693552.33245                  24644593.6484
         6.7504          7.7504
  20996591.9694   -8675501.95148  -6760129.30447                  20996598.0044
        29.5004         29.0004
  22087295.0084  -13188665.00447 -10068457.10146                  22087302.4774
        20.2504         20.2504
  23666794.2274   14957505.79346  11655187.63546                  23666802.7034
        13.5004         12.7504
  21668746.0314   -8777546.60548  -6839647.82547                  21668752.1254
        30.5004         29.2504
  20597510.1884  -17106710.07148 -13184212.93447                  20597517.5864
        28.0004         29.2504
  21914992.9924  -15664125.68447  -6098297.14346                  21914999.4734
        21.0004         22.2504
  24742412.0474    -124836.30545    -79301.34345                  24742421.8714
         9.0004          9.0004
 98  6 12 16 37  0.0000000  0  8G30G 4G 8G 7G 9G24G 5G16
  24635306.3444   -1185515.78444   -731551.27745                  24635315.1374
         7.0004          7.2504
  21000243.1804   -8656314.32248  -6745177.90547                  21000249.2734
        28.7504         29.0004
  22083404.3984  -13209110.49247 -10084388.64646                  22083411.3754
        20.2504         20.2504
  23673318.5314   14991790.58546  11681903.03246                  23673327.9804
        14.0004         12.2504
  21671898.3834   -8760981.32848  -6826739.82847                  21671904.3834
        30.5004         29.2504
  20594319.6724  -17123477.01047 -13197278.07147                  20594327.1764
        27.7504         29.2504
  21908289.0004  -15699355.82547  -6125749.17346                  21908295.9064
        21.7504         22.5004
  24743178.7424    -120801.43845    -76157.24345                  24743189.3634
         9.0004          8.7504
 98  6 12 16 37 15.0000000  0  8G30G 4G 8G 7G 9G24G 5G16
  24626025.3364   -1234286.24544   -769554.20645                  24626033.9654
         7.2504          8.0004
  21003920.4304   -8636990.75248  -6730120.58447                  21003926.5354
        29.0004         29.2504
  22079542.4144  -13229405.70946 -10100203.07946                  22079549.2854
        19.7504         20.2504
  23679845.0704   15026088.59646  11708628.73346                  23679854.2624
        13.7504         12.2504
  21675075.5084   -8744285.74848  -6813730.29347                  21675081.8244
        30.5004         29.7504
  20591155.0864  -17140105.91647 -13210235.64947                  20591162.3204
        27.2504         28.7504
  21901598.0864  -15734517.12447  -6153147.57446                  21901604.9574
        22.0004         22.7504
  24743974.0634    -116623.74945    -72901.89945                  24743984.4144
         8.7504          9.0004
 98  6 12 16 37 30.0000000  0  8G30G 4G 8G 7G 9G24G 5G16
  24616743.0314   -1283068.88645   -807566.60245                  24616753.7464
         9.0004          8.5004
  21007621.5084   -8617541.96648  -6714965.68847                  21007627.5434
        29.5004         29.2504
  22075707.1024  -13249559.94447 -10115907.68146                  22075714.0434
        20.0004         20.5004
  23686372.1564   15060390.64146  11735357.57946                  23686380.9614
        13.5004         12.0004
  21678275.6414   -8727468.36448  -6800625.84947                  21678282.2624
        29.0004         29.7504
  20588015.8984  -17156602.49947 -13223090.12147                  20588023.2274
        27.0004         29.0004
  21894918.1724  -15769621.67147  -6180501.75246                  21894924.7934
        22.2504         22.7504
  24744795.1094    -112311.46645    -69541.68245                  24744803.5394
         9.5004          8.2504
 98  6 12 16 37 45.0000000  0  8G30G 4G 8G 7G 9G24G 5G16
  24607458.2664   -1331859.06045   -845584.88545                  24607467.7034
         9.5004          8.7504
  21011347.1724   -8597963.49548  -6699709.74447                  21011353.2304
        29.7504         29.2504
  22071899.3054  -13269570.35547 -10131500.19646                  22071905.7034
        20.2504         20.2504
  23692901.2424   15094699.44246  11762091.69246                  23692910.6094
        12.7504         12.0004
  21681500.0554   -8710523.90748  -6787422.38547                  21681507.1604
        28.5004         29.7504
  20584903.0004  -17172960.82748 -13235836.85947                  20584910.4344
        28.0004         29.0004
  21888248.5634  -15804669.30647  -6207811.57646                  21888255.3244
        22.7504         23.0004
  24745640.9924    -107863.43245    -66075.66045                  24745651.0274
         9.2504          8.0004
 98  6 12 16 38  0.0000000  0  8G30G 4G 8G 7G 9G24G 5G16
  24598172.7664   -1380655.02945   -883607.68845                  24598181.3954
         9.0004          8.5004
  21015096.2194   -8578261.62848  -6684357.64147                  21015102.2894
        30.5004         29.2504
  22068118.8524  -13289435.89347 -10146979.82746                  22068125.2504
        20.7504         20.5004
  23699430.1174   15129010.78046  11788827.75345                  23699439.3794
        12.7504         11.7504
  21684748.6414   -8693451.82048  -6774119.47147                  21684755.7344
        28.5004         29.5004
  20581816.5314  -17189180.53547 -13248475.58347                  20581823.7194
        27.7504         29.0004
  21881589.7504  -15839662.24347  -6235078.78446                  21881596.3714
        22.7504         23.2504
  24746513.2664    -103282.31545    -62505.92745                  24746522.9734
         9.2504          8.2504
 98  6 12 16 38 15.0000000  0  8G30G 4G 8G 7G 9G24G 5G16
  24588885.9224   -1429455.40145   -921633.90345                  24588894.4224
         9.2504          9.0004
  21018867.8524   -8558441.86648  -6668913.67647                  21018873.9344
        30.0004         29.5004
  22064365.6254  -13309158.99447 -10162348.46746                  22064371.9774
        21.0004         20.7504
  23705959.3134   15163320.49446  11815562.56646                  23705968.4804
        13.0004         12.2504
  21688021.9304   -8676250.70548  -6760716.01747                  21688029.0594
        28.5004         29.5004
  20578756.2034  -17205264.01348 -13261008.15247                  20578763.2624
        28.5004         29.0004
  21874940.4454  -15874603.16747  -6262305.45746                  21874947.0314
        23.7504         23.5004
  24747408.8594     -98572.14745    -58835.69345                  24747419.5514
         9.2504          8.5004
 98  6 12 16 38 30.0000000  0  8G30G 4G 8G 7G 9G24G 5G16
  24579599.5084   -1478255.58045   -959660.00045                  24579607.1884
        10.0004          8.5004
  21022662.3754   -8538502.24848  -6653376.31347                  21022668.4344
        29.7504         29.2504
  22060639.9454  -13328737.08047 -10177604.10846                  22060646.3914
        21.7504         21.2504
  23712488.6954   15197631.85946  11842298.64446                  23712497.4304
        13.2504         12.2504
  21691320.4774   -8658916.94948  -6747209.20947                  21691327.3484
        28.5004         29.2504
  20575722.4694  -17221206.15748 -13273430.59147                  20575729.2424
        28.7504         29.0004
  21868301.7114  -15909491.65247  -6289491.27546                  21868308.1454
        24.7504         24.0004
  24748330.4694     -93730.97045    -55063.36545                  24748340.9264
         9.2504          8.2504
 98  6 12 16 38 45.0000000  0  8G30G 4G 8G 7G 9G24G 5G16
  24570311.9924   -1527063.18745   -997691.83545                  24570320.9384
        10.7504          9.2504
  21026478.5314   -8518447.78948  -6637749.46447                  21026484.5784
        29.7504         29.2504
  22056941.5864  -13348173.66347 -10192749.48846                  22056948.4924
        22.2504         21.7504
  23719017.4064   15231938.12546  11869030.78046                  23719026.4224
        13.5004         12.2504
  21694643.6094   -8641453.97048  -6733601.70947                  21694650.1724
        28.2504         29.0004
  20572714.4224  -17237013.06748 -13285747.65647                  20572721.1844
        29.5004         29.0004
  21861671.0634  -15944336.66747  -6316643.21946                  21861677.4614
        24.7504         24.5004
  24749275.3284     -88766.75945    -51195.13445                  24749285.4104
         9.5004          8.7504
 98  6 12 16 39  0.0000000  0  8G30G 4G 8G 7G 9G24G 5G16
  24561024.8754   -1575867.65845  -1035721.27445                  24561034.0084
        11.5004          9.5004
  21030318.6954   -8498267.29148  -6622024.41147                  21030324.7894
        29.5004         29.5004
  22053271.4534  -13367460.10847 -10207777.87346                  22053278.6174
        21.7504         22.0004
  23725545.2194   15266247.64446  11895765.45645                  23725553.5314
        12.2504         11.5004
  21697993.1174   -8623853.40348  -6719886.99547                  21697999.6564
        28.0004         29.0004
  20569734.0634  -17252674.85348 -13297951.63847                  20569740.9064
        29.7504         29.2504
  21855049.3594  -15979132.88347  -6343757.13646                  21855055.9224
        24.5004         24.7504
  24750245.3134     -83671.29545    -47224.61845                  24750255.3834
        10.0004          9.7504
 98  6 12 16 39 15.0000000  0  8G30G 4G 8G 7G 9G24G 5G16
  24551737.7814   -1624671.41946  -1073750.15545                  24551747.0084
        12.2504         10.5004
  21034182.0164   -8477965.54048  -6606204.86247                  21034188.0274
        29.2504         29.7504
  22049628.6414  -13386604.90647 -10222695.89246                  22049635.9804
        22.0004         22.5004
  23732073.5004   15300553.51346  11922497.24945                  23732082.7384
        12.0004         11.7504
  21701367.3834   -8606120.74948  -6706069.36147                  21701373.8984
        28.2504         28.5004
  20566780.0634  -17268197.80948 -13310047.43347                  20566787.1334
        29.7504         29.5004
  21848435.7034  -16013888.84547  -6370839.68846                  21848442.2424
        25.0004         24.7504
  24751238.4774     -78451.86845    -43157.57245                  24751248.4884
        10.2504          9.7504
 98  6 12 16 39 30.0000000  0  8G30G 4G 8G 7G 9G24G 5G16
  24542452.0944   -1673467.60745  -1111773.08945                  24542461.4844
        11.2504         10.0004
  21038069.8674   -8457534.07648  -6590284.24747                  21038076.0314
        29.0004         29.7504
  22046013.6804  -13405601.74047 -10237498.60446                  22046021.0314
        22.0004         22.5004
  23738602.2034   15334861.41646  11949230.65245                  23738611.1024
        13.0004         11.7504
  21704768.2584   -8588250.75647  -6692144.70647                  21704774.7504
        27.7504         28.5004
  20563853.3594  -17283578.50448 -13322032.38247                  20563860.3954
        29.7504         29.5004
  21841830.2814  -16048599.91847  -6397887.26046                  21841836.8324
        25.7504         25.0004
  24752255.9614     -73103.59845    -38990.08745                  24752266.0434
        10.7504         10.0004
 98  6 12 16 39 45.0000000  0  8G30G 4G 8G 7G 9G24G 5G16
  24533166.8444   -1722262.03145  -1149794.67745                  24533175.4614
        11.7504          9.7504
  21041982.5164   -8436973.68348  -6574263.16747                  21041988.6914
        28.5004         29.7504
  22042426.4694  -13424449.89447 -10252185.47046                  22042434.0664
        22.2504         22.5004
  23745131.4064   15369169.24146  11975963.96946                  23745139.5904
        13.7504         12.5004
  21708194.3524   -8570246.68248  -6678115.56647                  21708200.9024
        28.2504         28.7504
  20560952.8364  -17298820.54748 -13333909.28847                  20560959.6214
        29.5004         29.5004
  21835233.2424  -16083267.23047  -6424900.72946                  21835239.9924
        25.7504         25.5004
  24753297.4224     -67632.04745    -34726.56545                  24753307.1054
        10.0004          9.5004
 98  6 12 16 40  0.0000000  0  8G30G 4G 8G 7G 9G24G 5G16
  24523881.7734   -1771053.16545  -1187813.71445                  24523889.5124
        11.7504          9.5004
  21045919.2034   -8416285.68248  -6558142.65447                  21045925.4144
        29.0004         30.0004
  22038868.3594  -13443148.95947 -10266756.16246                  22038875.8054
        21.2504         22.2504
  23751659.6024   15403476.07946  12002696.55946                  23751668.0664
        13.5004         12.2504
  21711645.6804   -8552108.97448  -6663982.30547                  21711652.1724
        28.5004         28.7504
  20558078.4614  -17313925.03848 -13345679.01147                  20558084.9304
        30.0004         29.2504
  21828644.6254  -16117891.54747  -6451880.69946                  21828651.0704
        27.0004         25.5004
  24754361.6484     -62038.57045    -30368.00645                  24754370.8164
        10.0004          9.2504
 98  6 12 16 40 15.0000000  0  8G30G 4G 8G 7G 9G24G 5G16
  24514598.7034   -1819836.82045  -1225826.91345                  24514607.4384
        11.0004          9.5004
  21049880.5554   -8395467.73948  -6541920.88447                  21049886.8594
        28.7504         30.0004
  22035338.7194  -13461697.43747 -10281209.51346                  22035346.1994
        21.5004         22.0004
  23758188.7894   15437787.02046  12029432.30945                  23758198.3914
        12.7504         11.7504
  21715122.6024   -8533837.66248  -6649744.92547                  21715128.8714
        29.0004         28.5004
  20555230.5474  -17328891.65748 -13357341.31347                  20555236.6994
        29.5004         29.0004
  21822064.8524  -16152468.17947  -6478823.52046                  21822071.1454
        26.5004         25.5004
  24755450.1954     -56318.99945    -25911.19345                  24755458.5664
         9.7504          9.0004
 98  6 12 16 40 30.0000000  0  8G30G 4G 8G 7G 9G24G 5G16
  24505315.3524   -1868620.70645  -1263840.28945                  24505322.5634
        10.7504          9.2504
  21053867.0164   -8374519.41548  -6525597.51747                  21053873.2274
        28.5004         30.0004
  22031837.0784  -13480099.00547 -10295548.38346                  22031844.6884
        21.0004         22.0004
  23764717.7504   15472100.42646  12056170.00446                  23764727.2704
        12.5004         12.0004
  21718623.4844   -8515438.71848  -6635408.09747                  21718629.8484
        28.2504         28.5004
  20552407.6644  -17343725.98348 -13368900.51947                  20552414.0514
        30.2504         29.5004
  21815493.4774  -16187000.14647  -6505731.52047                  21815499.7464
        27.2504         26.0004
  24756561.9534     -50475.67945    -21357.97745                  24756569.3984
         9.5004          7.5004
 98  6 12 16 40 45.0000000  0  8G30G 4G 8G 7G 9G24G 5G16
  24496032.5314   -1917403.24945  -1301852.59445                  24496040.4574
        10.7504          9.7504
  21057878.7894   -8353437.70748  -6509170.21347                  21057885.1764
        28.2504         29.7504
  22028364.3524  -13498348.08247 -10309768.44146                  22028371.9614
        20.7504         21.7504
  23771248.8754   15506419.27445  12082911.90545                  23771257.9024
        11.7504         11.5004
  21722149.6484   -8496909.52448  -6620969.77947                  21722155.9534
        28.2504         28.0004
  20549610.3284  -17358425.97348 -13380355.04347                  20549617.0084
        30.0004         29.5004
  21808932.3524  -16221480.32947  -6532599.18047                  21808938.7854
        27.2504         26.2504
  24757698.2424     -44506.13445    -16706.38245                  24757706.8834
         9.2504          8.7504
 98  6 12 16 41  0.0000000  0  8G30G 4G 8G 7G 9G24G 5G16
  24486750.3674   -1966180.70945  -1339860.96945                  24486758.2114
        11.0004         10.0004
  21061915.8984   -8332223.03748  -6492639.30747                  21061922.1684
        28.2504         29.7504
  22024920.7274  -13516444.62447 -10323869.63246                  22024927.6454
        20.5004         21.2504
  23777781.0234   15540743.99946  12109658.41345                  23777790.3324
        12.2504         11.5004
  21725700.2424   -8478250.70448  -6606430.45247                  21725706.6294
        28.0004         28.5004
  20546838.3444  -17372993.11948 -13391706.05647                  20546845.2504
        30.0004         29.7504
  21802381.1954  -16255907.15447  -6559425.26347                  21802387.6764
        27.0004         26.2504
  24758858.3914     -38408.64745    -11955.08445                  24758868.9654
         9.0004          8.7504
 98  6 12 16 41 15.0000000  0  8G30G 4G 8G 7G 9G24G 5G16
  24477470.4774   -2014946.67045  -1377860.35445                  24477478.9774
        10.7504          9.5004
  21065977.9304   -8310876.07348  -6476005.31547                  21065984.1294
        28.7504         29.5004
  22021505.8984  -13534387.91447 -10337851.41446                  22021512.1804
        20.5004         20.7504
  23784314.8834   15575079.03146  12136412.96645                  23784324.3914
        13.0004         11.7504
  21729275.7194   -8459462.01748  -6591789.93747                  21729282.3054
        28.0004         28.5004
  20544091.8754  -17387425.12648 -13402951.76247                  20544098.8164
        29.7504         29.5004
  21795840.7664  -16290276.79247  -6586206.78347                  21795847.2584
        27.2504         26.0004
  24760043.7814     -32180.11045     -7101.70045                  24760053.7234
         9.0004          8.7504
 98  6 12 16 41 30.0000000  0  8G30G 4G 8G 7G 9G24G 5G16
  24468190.9694   -2063710.61345  -1415858.18145                  24468198.8954
        10.2504          9.7504
  21070064.0784   -8289404.75648  -6459274.42047                  21070070.0664
        28.7504         29.5004
  22018119.7344  -13552182.83747 -10351717.58446                  22018126.0164
        20.2504         20.7504
  23790849.4614   15609417.98846  12163170.56045                  23790858.3594
        13.5004         11.7504
  21732874.4384   -8440550.34848  -6577053.58847                  21732881.0234
        28.0004         28.2504
  20541369.3754  -17401731.06248 -13414099.24047                  20541376.2074
        29.0004         29.2504
  21789310.5084  -16324593.73547  -6612947.24447                  21789316.8954
        26.5004         26.2504
  24761252.1484     -25827.12545     -2151.34745                  24761261.1054
         8.2504          8.5004
 98  6 12 16 41 45.0000000  0  8G30G 4G 8G 7G 9G24G 5G16
  24458911.2584   -2112473.71445  -1453855.35845                  24458918.4804
        10.2504         10.0004
  21074173.9454   -8267807.12848  -6442445.10147                  21074179.9924
        29.5004         29.2504
  22014762.2814  -13569825.64846 -10365465.21846                  22014768.9024
        19.5004         20.7504
  23797384.7814   15643763.21846  12189933.04945                  23797393.5394
        12.7504         11.7504
  21736496.8054   -8421515.18647  -6562221.00847                  21736503.5784
        27.2504         28.2504
  20538671.5394  -17415909.15248 -13425147.09347                  20538678.1604
        28.7504         29.2504
  21782790.6724  -16358853.90247  -6639643.46547                  21782797.2234
        26.5004         25.7504
  24762484.9304     -19347.51345      2897.76745                  24762493.4774
         9.2504          9.0004
 98  6 12 16 42  0.0000000  0  8G30G 4G 8G 7G 9G24G 5G16
  24449632.7584   -2161233.46045  -1491849.92145                  24449640.8014
         9.2504          9.2504
  21078307.8134   -8246082.59748  -6425516.89747                  21078313.8484
        29.2504         29.2504
  22011433.8834  -13587316.71846 -10379094.61746                  22011441.1294
        18.7504         20.7504
  23803921.6414   15678114.44746  12216700.22545                  23803929.8014
        12.2504         11.2504
  21740142.5164   -8402355.94847  -6547291.75547                  21740149.2894
        27.2504         28.0004
  20535998.0004  -17429957.76248 -13436094.05647                  20536004.9414
        28.2504         29.0004
  21776282.7194  -16393054.47747  -6666293.24847                  21776289.1994
        26.5004         26.0004
  24763743.1484     -12737.87045      8048.10745                  24763752.4344
         8.7504          9.0004
 98  6 12 16 42 15.0000000  0  8G30G 4G 8G 7G 9G24G 5G16
  24440355.9304   -2209985.29645  -1529838.32445                  24440362.0704
         9.5004          9.0004
  21082466.4534   -8224228.64248  -6408487.84747                  21082472.6174
        29.0004         29.2504
  22008134.6094  -13604654.07246 -10392604.23746                  22008142.3834
        18.5004         20.7504
  23810460.0864   15712474.08945  12243473.90345                  23810468.8324
        11.2504         11.2504
  21743812.1564   -8383071.82047  -6532265.17947                  21743818.7544
        26.7504         27.7504
  20533349.4924  -17443875.91348 -13446939.35247                  20533356.6094
        28.2504         29.0004
  21769786.7194  -16427191.03247  -6692893.13847                  21769793.0704
        27.0004         26.0004
  24765027.1414      -5993.79445     13303.22245                  24765036.1334
         9.5004          9.2504
 98  6 12 16 42 30.0000000  0  8G30G 4G 8G 7G 9G24G 5G16
  24431078.2424   -2258739.48245  -1567828.55445                  24431086.1914
         8.7504          9.2504
  21086649.3834   -8202247.29648  -6391359.52747                  21086655.5594
        28.7504         29.0004
  22004863.7814  -13621842.77746 -10405998.02246                  22004871.7304
        18.5004         21.5004
  23816999.1724   15746836.04446  12270249.41845                  23817008.1054
        12.0004         11.2504
  21747504.2734   -8363669.76847  -6517146.71647                  21747510.8364
        26.2504         27.5004
  20530724.6414  -17457669.21348 -13457687.36847                  20530731.6884
        28.5004         29.0004
  21763301.5164  -16461269.74747  -6719447.97047                  21763307.8324
        27.0004         25.7504
  24766335.1724        881.86145     18660.90345                  24766345.7114
         9.2504          9.2504
 98  6 12 16 42 45.0000000  0  8G30G 4G 8G 7G 9G24G 5G16
  24421799.9614   -2307495.21345  -1605819.95245                  24421808.8714
         9.5004          9.0004
  21090856.1884   -8180140.11348  -6374133.15847                  21090862.3054
        28.5004         29.2504
  22001621.9924  -13638880.09646 -10419273.84946                  22001629.7074
        19.2504         21.5004
  23823538.3834   15781198.89646  12297025.63145                  23823546.6844
        13.0004         11.7504
  21751218.8284   -8344148.93247  -6501935.69247                  21751225.5084
        26.5004         27.5004
  20528124.1094  -17471336.05348 -13468336.84847                  20528131.0744
        28.2504         29.0004
  21756827.5234  -16495291.13847  -6745958.13547                  21756833.5004
        26.5004         25.7504
  24767669.0084       7891.45845     24122.90745                  24767678.9144
         9.0004          9.2504
 98  6 12 16 43  0.0000000  0  8G30G 4G 8G 7G 9G24G 5G16
  24412522.6884   -2356248.52645  -1643809.50245                  24412531.3404
        10.2504          9.7504
  21095087.0864   -8157907.43948  -6356809.00147                  21095093.1684
        29.0004         29.0004
  21998408.2194  -13655767.72746 -10432433.02646                  21998415.8754
        19.7504         21.7504
  23830077.8594   15815564.06846  12323803.68545                  23830086.1024
        13.0004         11.2504
  21754956.2894   -8324508.87147  -6486631.76147                  21754963.0984
        26.5004         27.7504
  20525548.0944  -17484873.39848 -13478885.41247                  20525555.0004
        28.5004         29.0004
  21750364.3594  -16529255.78547  -6772424.08047                  21750370.8054
        26.0004         25.7504
  24769028.2734      15036.35245     29690.37845                  24769037.9104
         8.5004          8.7504
 98  6 12 16 43 15.0000000  0  8G30G 4G 8G 7G 9G24G 5G16
  24403246.3754   -2404997.53045  -1681795.70545                  24403253.4694
        10.5004          9.5004
  21099342.2034   -8135545.63948  -6339384.22547                  21099348.3554
        29.0004         29.0004
  21995223.6024  -13672503.75446 -10445474.09146                  21995230.8484
        19.7504         22.2504
  23836618.4304   15849934.24845  12350585.61545                  23836627.8444
        11.7504         10.7504
  21758716.7344   -8304747.69448  -6471233.45647                  21758723.6294
        28.0004         27.7504
  20522997.2894  -17498277.86548 -13489330.43747                  20523004.5474
        28.7504         29.0004
  21743912.1804  -16563162.83247  -6798845.13847                  21743918.8134
        26.2504         25.7504
  24770414.2194      22319.78345     35365.77445                  24770424.8634
         8.7504          9.0004
 98  6 12 16 43 30.0000000  0  8G30G 4G 8G 7G 9G24G 5G16
  24393969.4064   -2453745.10245  -1719780.78945                  24393977.6374
         9.2504          9.2504
  21103622.3364   -8113052.75948  -6321857.31047                  21103628.4774
        29.2504         28.7504
  21992067.3524  -13689088.54347 -10458397.29046                  21992074.5634
        20.0004         22.0004
  23843159.0784   15884308.38845  12377370.64245                  23843168.1174
        11.5004         10.7504
  21762500.7664   -8284864.05847  -6455739.73347                  21762507.8484
        27.7504         28.0004
  20520471.5864  -17511548.61748 -13499671.27447                  20520478.8794
        28.7504         29.2504
  21737470.9224  -16597010.92147  -6825220.25847                  21737477.4734
        26.5004         25.7504
  24771826.1954      29741.34145     41148.79245                  24771835.7734
         8.0004          8.5004
 98  6 12 16 43 45.0000000  0  8G30G 4G 8G 7G 9G24G 5G16
  24384693.4144   -2502489.80945  -1757763.60145                  24384701.2814
         9.7504          9.5004
  21107928.5634   -8090425.39248  -6304225.60547                  21107934.6454
        29.0004         29.0004
  21988940.9534  -13705519.03647 -10471200.26946                  21988948.0004
        20.5004         22.0004
  23849701.2894   15918687.19945  12404159.27145                  23849712.2274
        11.2504         10.5004
  21766308.5314   -8264854.05747  -6440147.54447                  21766315.5664
        27.7504         28.2504
  20517972.4844  -17524683.93748 -13509906.57647                  20517979.7894
        28.5004         29.0004
  21731041.3674  -16630798.44347  -6851548.18847                  21731048.1174
        27.0004         26.5004
  24773265.7584      37302.28445     47040.44245                  24773277.6094
         8.5004          8.7504
 98  6 12 16 44  0.0000000  0  8G30G 4G 8G 7G 9G24G 5G16
  24375417.8834   -2551233.73345  -1795745.83945                  24375425.0004
         9.7504          9.2504
  21112258.9694   -8067668.39348  -6286492.88547                  21112265.1564
        29.0004         29.2504
  21985842.5234  -13721800.65647 -10483887.23846                  21985849.4884
        21.5004         22.0004
  23856243.1094   15953065.66745  12430947.63445                  23856253.3204
        11.7504         11.7504
  21770139.3134   -8244722.55047  -6424460.66847                  21770146.3954
        27.7504         28.2504
  20515498.1024  -17537685.89848 -13520037.95847                  20515505.2774
        28.2504         28.7504
  21724622.3364  -16664530.82347  -6877833.14747                  21724628.9454
        27.2504         26.2504
  24774729.5314      44999.50545     53038.27745                  24774740.6214
         8.0004          9.0004
 98  6 12 16 44 15.0000000  0  8G30G 4G 8G 7G 9G24G 5G16
  24366143.0394   -2599976.13545  -1833726.87345                  24366151.5514
        10.0004          9.7504
  21116613.3594   -8044785.75848  -6268662.26547                  21116619.5474
        29.2504         29.2504
  21982772.6094  -13737933.27447 -10496458.10546                  21982779.4924
        21.7504         22.0004
  23862786.4064   15987446.22346  12457737.64245                  23862796.5124
        12.7504         11.7504
  21773993.6564   -8224468.20547  -6408678.07747                  21774000.5864
        27.0004         28.0004
  20513049.2894  -17550554.48948 -13530065.41947                  20513056.2774
        28.5004         28.7504
  21718213.4614  -16698210.77847  -6904077.24947                  21718220.1884
        27.2504         26.2504
  24776220.1024      52832.45545     59141.89545                  24776231.0044
         8.0004          8.7504
 98  6 12 16 44 30.0000000  0  8G30G 4G 8G 7G 9G24G 5G16
  24356867.5234   -2648715.79445  -1871705.78245                  24356875.4144
        10.0004          9.7504
  21120992.1334   -8021775.26148  -6250732.01747                  21120998.1914
        29.2504         29.0004
  21979732.0314  -13753912.65547 -10508909.56246                  21979739.3014
        21.7504         22.7504
  23869330.0234   16021833.77546  12484533.11046                  23869338.3834
        14.0004         12.0004
  21777871.7114   -8204087.29847  -6392796.86447                  21777878.4614
        26.7504         28.0004
  20510626.4534  -17563286.71848 -13539986.62347                  20510633.3954
        28.5004         28.7504
  21711814.2734  -16731838.22247  -6930280.44347                  21711820.6484
        27.7504         26.0004
  24777736.9534      60803.77545     65353.31145                  24777747.3754
         8.0004          8.5004
 98  6 12 16 44 45.0000000  0  8G30G 4G 8G 7G 9G24G 5G16
  24347594.9614   -2697445.16345  -1909676.67345                  24347603.0164
        10.0004         10.0004
  21125395.5554   -7998634.86048  -6232700.54247                  21125401.6134
        29.5004         29.0004
  21976721.3444  -13769734.43147 -10521238.21846                  21976728.5204
        21.7504         22.7504
  23875875.9454   16056234.72446  12511339.04045                  23875884.3754
        13.0004         11.2504
  21781775.7584   -8183573.01847  -6376811.73247                  21781782.1564
        26.7504         27.7504
  20508230.8984  -17575875.00448 -13549795.66647                  20508238.0634
        29.2504         29.0004
  21705426.2114  -16765406.70847  -6956437.69547                  21705432.3054
        27.0004         26.0004
  24779281.8834      68917.70145     71675.89345                  24779293.5354
         7.7504          9.2504
 98  6 12 16 45  0.0000000  0  8G30G 4G 8G 7G 9G24G 5G16
  24338322.3364   -2746171.17845  -1947644.93145                  24338330.1214
         9.2504          9.7504
  21129821.7974   -7975375.19748  -6214576.13447                  21129827.9264
        29.5004         28.7504
  21973738.0634  -13785410.16447 -10533453.06946                  21973745.6254
        22.7504         23.0004
  23882423.1174   16090638.54245  12538147.18545                  23882432.4144
        11.5004         10.5004
  21785703.1954   -8162934.48947  -6360729.77447                  21785709.4884
        27.5004         27.7504
  20505860.7424  -17588329.20448 -13559500.22747                  20505867.8364
        30.2504         29.5004
  21699048.3204  -16798923.32247  -6982554.52647                  21699054.5434
        26.7504         25.7504
  24780849.5314      77160.65045     78098.97445                  24780861.1604
         7.7504          8.5004
 98  6 12 16 45 15.0000000  0  8G30G 4G 8G 7G 9G24G 5G16
  24329050.3674   -2794895.03445  -1985611.54145                  24329058.3524
         9.5004          9.2504
  21134270.5864   -7951995.38448  -6196358.10547                  21134276.6684
        29.5004         28.7504
  21970782.8134  -13800940.16547 -10545554.36646                  21970790.1524
        22.7504         23.2504
  23888969.4304   16125043.68345  12564956.32645                  23888978.1294
        11.0004         10.5004
  21789654.6024   -8142170.46547  -6344550.03447                  21789660.9654
        27.5004         27.7504
  20503516.4924  -17600649.48148 -13569100.42947                  20503523.4224
        30.5004         29.2504
  21692680.1484  -16832388.53647  -7008631.31147                  21692686.2774
        26.2504         25.7504
  24782442.6174      85528.06245     84619.00645                  24782455.8524
         8.0004          8.7504
 98  6 12 16 45 30.0000000  0  8G30G 4G 8G 7G 9G24G 5G16
  24319780.5944   -2843609.56845  -2023570.85045                  24319789.1524
         9.5004         10.0004
  21138743.7814   -7928489.75748  -6178042.02847                  21138749.9804
        28.7504         28.7504
  21967856.6024  -13816318.29947 -10557537.32946                  21967863.7774
        23.2504         23.0004
  23895518.4384   16159457.93745  12591772.61145                  23895527.5824
        11.5004         11.0004
  21793631.1174   -8121273.91948  -6328267.03347                  21793637.7274
        28.2504         28.2504
  20501198.8054  -17612828.57848 -13578590.63047                  20501205.5554
        30.5004         29.2504
  21686322.7114  -16865795.90847  -7034663.01846                  21686329.0164
        25.2504         25.5004
  24784059.1804      94025.89745     91240.75345                  24784070.4224
         7.7504          8.2504
 98  6 12 16 45 45.0000000  0  8G30G 4G 8G 7G 9G24G 5G16
  24310511.6414   -2892317.48545  -2061525.03645                  24310518.8284
         9.0004          9.7504
  21143239.6254   -7904863.41848  -6159631.89847                  21143245.7074
        28.5004         28.7504
  21964958.7194  -13831547.42747 -10569404.18546                  21964965.8014
        24.0004         22.7504
  23902069.0004   16193879.86945  12618594.83245                  23902078.9304
        11.5004         11.7504
  21797631.7504   -8100250.38248  -6311885.07247                  21797638.3714
        28.7504         28.2504
  20498907.6484  -17624869.08248 -13587972.83447                  20498913.9534
        30.2504         29.0004
  21679975.6334  -16899149.61447  -7060652.90646                  21679981.9494
        25.5004         25.2504
  24785701.0084     102651.97945     97962.38845                  24785711.5124
         7.7504          8.7504
 98  6 12 16 46  0.0000000  0  8G30G 4G 8G 7G 9G24G 5G16
  24301242.2974   -2941024.85245  -2099478.77645                  24301251.7234
         8.7504         10.0004
  21147756.8594   -7881125.18548  -6141134.58047                  21147763.1174
        28.2504         28.5004
  21962088.0784  -13846632.91347 -10581159.10746                  21962094.9964
        23.7504         22.7504
  23908619.8134   16228303.52945  12645418.41445                  23908629.9884
        11.5004         11.7504
  21801654.8524   -8079108.89348  -6295411.20747                  21801661.4844
        29.0004         28.5004
  20496641.7424  -17636776.87348 -13597251.62447                  20496647.7424
        30.7504         29.2504
  21673637.6954  -16932454.93947  -7086605.09646                  21673644.2234
        25.2504         25.2504
  24787365.0234     111398.31945    104777.73445                  24787376.6174
         7.7504          8.7504
 98  6 12 16 46 15.0000000  0  8G30G 4G 8G 7G 9G24G 5G16
  24291975.2504   -2989725.26445  -2137427.07645                  24291983.5744
         9.2504          9.5004
  21152296.3204   -7857269.79847  -6122545.96547                  21152302.7304
        27.2504         28.7504
  21959246.2664  -13861567.61847 -10592796.52746                  21959253.0744
        23.7504         22.7504
  23915171.8204   16262735.53946  12672248.54245                  23915181.3754
        12.2504         11.7504
  21805701.3524   -8057845.29448  -6278842.18647                  21805707.8324
        28.7504         28.5004
  20494402.2814  -17648545.51948 -13606421.98547                  20494408.6094
        30.5004         29.5004
  21667310.6094  -16965704.27747  -7112513.66246                  21667316.9384
        25.0004         25.5004
  24789054.1094     120271.12545    111691.61445                  24789067.1454
         9.0004          8.7504
 98  6 12 16 46 30.0000000  0  8G30G 4G 8G 7G 9G24G 5G16
  24282709.1644   -3038416.19645  -2175368.02945                  24282716.1414
         9.5004          9.7504
  21156859.2814   -7833292.06447  -6103862.01747                  21156865.5634
        27.0004         28.5004
  21956434.0084  -13876346.00447 -10604312.14846                  21956440.6054
        23.2504         22.7504
  23921725.8524   16297176.86045  12699085.88145                  23921735.1954
        11.7504         11.2504
  21809771.6804   -8036455.67748  -6262174.97747                  21809778.0084
        28.7504         28.2504
  20492189.4144  -17660173.54148 -13615482.76947                  20492196.0354
        30.2504         29.5004
  21660995.6884  -16998890.47447  -7138373.02246                  21661002.4734
        24.5004         25.5004
  24790766.9064     129271.43645    118704.83445                  24790777.7274
         9.0004          9.2504
 98  6 12 16 46 45.0000000  0  8G30G 4G 8G 7G 9G24G 5G16
  24273445.4534   -3087100.92345  -2213304.11745                  24273453.8244
        10.5004         10.0004
  21161444.8134   -7809193.32747  -6085083.78347                  21161451.1054
        27.2504         28.2504
  21953650.7424  -13890970.39947 -10615707.77746                  21953657.1764
        23.5004         22.5004
  23928280.2344   16331621.04045  12725925.46845                  23928289.4264
        10.7504         11.0004
  21813865.0314   -8014945.07248  -6245413.47947                  21813871.4184
        28.7504         28.0004
  20490002.8914  -17671664.35048 -13624436.63847                  20490009.4184
        29.7504         29.2504
  21654692.6884  -17032012.44547  -7164182.33446                  21654699.4614
        24.5004         25.5004
  24792502.6094     138394.84145    125814.01845                  24792513.5594
         8.5004          8.5004
 98  6 12 16 47  0.0000000  0  8G30G 4G 8G 7G 9G24G 5G16
  24264180.4614   -3135787.16845  -2251241.41345                  24264188.0234
        10.2504         10.5004
  21166052.0704   -7784982.92347  -6066218.53747                  21166058.5634
        26.5004         28.2504
  21950895.7194  -13905447.69347 -10626988.78146                  21950901.8594
        23.7504         22.5004
  23934833.0084   16366057.61345  12752759.13345                  23934841.1094
        11.0004         11.0004
  21817979.8524   -7993321.15648  -6228563.69147                  21817986.1804
        28.5004         28.0004
  20487840.9064  -17683025.31348 -13633289.32747                  20487847.4924
        29.2504         29.0004
  21648400.7504  -17065075.90747  -7189946.05946                  21648407.5474
        24.7504         25.5004
  24794261.2664     147634.21145    133013.49845                  24794272.1684
         8.7504          8.5004
 98  6 12 16 47 15.0000000  0  9G30G 4G 8G 7G 9G24G 5G16G10
  24254915.6174   -3184473.82045  -2289179.04745                  24254923.0514
         9.5004         10.2504
  21170681.3284   -7760656.85547  -6047263.16547                  21170687.8674
        27.0004         28.2504
  21948169.5944  -13919774.19647 -10638152.28246                  21948175.7464
        24.2504         22.7504
  23941386.0084   16400491.47645  12779590.68545                  23941395.4344
        10.5004         10.5004
  21822116.8914   -7971580.23248  -6211622.72947                  21822123.2194
        28.5004         28.0004
  20485704.0704  -17694253.94148 -13642038.89347                  20485710.8094
        29.5004         29.2504
  21642120.4224  -17098079.19447  -7215662.89846                  21642126.8444
        24.0004         25.2504
  24796042.3594     156994.12045    140306.93845                  24796053.2384
         7.7504          8.7504
  24884498.1724      -6292.93553
         5.5004
 98  6 12 16 47 30.0000000  0  9G30G 4G 8G 7G 9G24G 5G16G10
  24245650.8134   -3233160.51545  -2327116.69545                  24245659.4654
         9.5004         10.0004
  21175332.4774   -7736214.23447  -6028216.97247                  21175338.8284
        27.2504         28.2504
  21945472.7194  -13933947.02847 -10649196.04346                  21945479.2234
        23.7504         23.0004
  23947938.7424   16434926.68645  12806423.29745                  23947947.9574
        11.2504         11.5004
  21826276.5634   -7949721.60548  -6194590.04747                  21826282.8554
        28.0004         27.7504
  20483592.8984  -17705349.87548 -13650685.06847                  20483599.6484
        29.5004         29.5004
  21635851.9304  -17131020.54347  -7241331.46746                  21635858.4574
        23.5004         25.0004
  24797845.8834     166479.18445    147697.90545                  24797857.2424
         7.7504          9.0004
  24875509.7274     -53526.73143
         5.5004
 98  6 12 16 47 45.0000000  0  9G30G 4G 8G 7G 9G24G 5G16G10
  24236385.8594   -3281851.12445  -2365057.36145                  24236393.8674
         9.5004         10.7504
  21180004.7814   -7711660.83947  -6009084.45947                  21180011.1454
        27.5004         28.0004
  21942804.2424  -13947969.18347 -10660122.39246                  21942810.4884
        24.7504         22.7504
  23954491.0474   16469359.13045  12833253.74045                  23954500.6374
        11.5004         11.2504
  21830457.1884   -7927751.54748  -6177470.53347                  21830463.3284
        28.0004         27.7504
  20481505.2894  -17716319.22948 -13659232.60647                  20481512.3244
        29.7504         29.7504
  21629594.5864  -17163902.27947  -7266953.58446                  21629601.1954
        23.2504         25.0004
  24799675.0944     176086.63245    155184.22045                  24799685.0594
         8.0004          9.2504
  24866517.1254    -100784.56043
         5.5004
 98  6 12 16 48  0.0000000  0  9G30G 4G 8G 7G 9G24G 5G16G10
  24227121.0864   -3330537.60145  -2402994.82245                  24227129.5514
         9.5004         10.5004
  21184700.5554   -7686985.63148  -5989857.03647                  21184706.5784
        28.5004         28.0004
  21940166.7814  -13961828.80047 -10670922.08946                  21940173.0984
        24.5004         23.0004
  23961044.1724   16503795.09345  12860086.91845                  23961053.1414
        11.5004         11.0004
  21834661.1334   -7905659.56548  -6160256.02147                  21834667.2154
        28.2504         27.5004
  20479443.2114  -17727155.54748 -13667676.48447                  20479450.2584
        30.0004         29.7504
  21623350.8524  -17196713.01047  -7292520.36946                  21623357.4844
        23.0004         25.0004
  24801527.6094     185823.49345    162771.41345                  24801538.2304
         9.0004          9.5004
  24857520.6174    -148058.53443
         5.7504
 98  6 12 16 48 15.0000000  0  9G30G 4G 8G 7G 9G24G 5G16G10
  24217856.5864   -3379220.26645  -2440929.32045                  24217864.7464
        10.7504         10.2504
  21189419.2194   -7662188.08648  -5970534.28047                  21189425.1604
        28.7504         27.7504
  21937560.1564  -13975526.42047 -10681595.55146                  21937566.5784
        24.2504         22.7504
  23967597.1024   16538231.81545  12886920.68445                  23967605.1564
        11.0004         11.0004
  21838888.5394   -7883444.43948  -6142945.55247                  21838894.7034
        28.2504         27.5004
  20477405.5474  -17737863.36248 -13676020.22347                  20477412.4064
        29.7504         29.5004
  21617121.0704  -17229451.31847  -7318030.72446                  21617127.6564
        23.0004         25.0004
  24803405.0554     195687.13545    170457.35445                  24803417.0704
         9.0004          9.0004
  24848522.4534    -195348.51643
         5.7504
 98  6 12 16 48 30.0000000  0  9G30G 4G 8G 7G 9G24G 5G16G10
  24208593.5314   -3427898.09345  -2478860.07545                  24208601.0474
        11.0004         10.7504
  21194161.3054   -7637268.10648  -5951116.11847                  21194167.4224
        28.2504         27.5004
  21934984.1254  -13989063.25147 -10692143.71946                  21934990.7584
        23.5004         22.5004
  23974150.4844   16572669.80445  12913755.45745                  23974157.8364
        11.2504         11.2504
  21843139.5784   -7861105.44647  -6125538.56547                  21843145.6374
        27.2504         27.2504
  20475392.1884  -17748442.70148 -13684263.85547                  20475398.9734
        29.7504         29.2504
  21610904.4924  -17262118.85547  -7343485.94146                  21610911.1374
        22.2504         24.7504
  24805306.9454     205678.19045    178242.59545                  24805317.0044
         9.7504          9.2504
  24839519.4454    -242656.20943     -2455.69255                  24839533.9104
         5.5004          8.2504
 98  6 12 16 48 45.0000000  0  9G30G 4G 8G 7G 9G24G 5G16G10
  24199331.2504   -3476572.96945  -2516788.50545                  24199339.5744
        10.5004         10.7504
  21198926.4064   -7612227.86048  -5931604.25047                  21198932.5594
        28.2504         27.7504
  21932438.2504  -14002442.20847 -10702568.87546                  21932444.5204
        23.7504         22.7504
  23980703.6724   16607109.03045  12940591.19945                  23980713.2624
        11.5004         10.7504
  21847413.5704   -7838644.97747  -6108036.92747                  21847419.8634
        27.0004         27.2504
  20473403.3594  -17758894.67948 -13692408.24247                  20473410.0984
        30.0004         29.5004
  21604700.3444  -17294721.22247  -7368890.36646                  21604707.1644
        21.5004         24.7504
  24807231.5784     215794.59545    186125.50645                  24807242.1764
         9.2504          9.2504
  24830512.5554    -289984.24143    -39334.65545                  24830526.8444
         6.0004          8.5004
 98  6 12 16 49  0.0000000  0  9G30G 4G 8G 7G 9G24G 5G16G10
  24190070.2344   -3525237.68745  -2554708.98545                  24190077.8324
        10.5004         10.0004
  21203714.7894   -7587064.87748  -5911996.73647                  21203720.8834
        28.7504         28.2504
  21929922.9694  -14015661.58947 -10712869.68946                  21929929.2154
        23.2504         22.7504
  23987258.9844   16641559.06345  12967435.36545                  23987267.3204
        11.0004         10.7504
  21851711.8914   -7816056.55347  -6090435.58147                  21851718.3594
        27.0004         27.2504
  20471440.1094  -17769212.57948 -13700448.15347                  20471447.0044
        29.7504         29.5004
  21598509.1024  -17327256.64747  -7394242.62246                  21598516.4414
        21.2504         24.5004
  24809181.8834     226043.12545    194111.32945                  24809192.1414
         8.7504          9.0004
  24821504.5164    -337326.15444    -76224.41745                  24821515.7464
         6.5004          8.0004
 98  6 12 16 49 15.0000000  0  9G30G 4G 8G 7G 9G24G 5G16G10
  24180813.3284   -3573885.10645  -2592616.04045                  24180820.9384
        11.2504         10.2504
  21208527.7034   -7561772.82448  -5892288.64947                  21208533.7734
        29.0004         28.7504
  21927437.4924  -14028719.81947 -10723044.92946                  21927444.0084
        23.0004         22.7504
  23993818.2814   16676027.28045  12994293.68045                  23993825.7624
        11.0004         10.5004
  21856035.8444   -7793334.79647  -6072730.33247                  21856042.4654
        27.0004         27.5004
  20469502.5634  -17779392.41348 -13708380.48047                  20469509.4454
        30.2504         29.5004
  21592330.4774  -17359724.90847  -7419542.54746                  21592337.5944
        21.0004         24.2504
  24811157.8834     236427.96845    202203.43845                  24811168.3164
         8.5004          8.5004
  24812492.9614    -384679.23643   -113122.93745                  24812505.9964
         6.0004          9.0004
 98  6 12 16 49 30.0000000  0  9G30G 4G 8G 7G 9G24G 5G16G10
  24171557.3594   -3622524.26045  -2630516.66445                  24171565.3324
        10.5004         10.2504
  21213364.0394   -7536357.78648  -5872484.72947                  21213370.1684
        28.5004         28.7504
  21924981.8134  -14041625.66647 -10733101.42846                  21924988.1054
        23.0004         22.5004
  24000379.6254   16710505.11945  13021159.49145                  24000388.7814
        10.7504         10.5004
  21860382.8834   -7770490.11647  -6054929.30947                  21860389.5044
        27.2504         27.2504
  20467590.0234  -17789443.77448 -13716212.69647                  20467597.0004
        30.2504         29.5004
  21586162.8204  -17392136.10747  -7444798.00946                  21586170.1134
        21.2504         24.5004
  24813158.2584     246939.82945    210394.49745                  24813167.6724
         8.7504          8.2504
  24803479.3134    -432053.34144   -150037.77445                  24803490.5554
         6.5004          8.5004
 98  6 12 16 49 45.0000000  0  9G30G 4G 8G 7G 9G24G 5G16G10
  24162303.0234   -3671155.53345  -2668411.09445                  24162310.9494
        10.5004         10.7504
  21218223.4454   -7510821.84448  -5852586.60147                  21218229.7974
        28.5004         28.7504
  21922554.9454  -14054378.64547 -10743038.80946                  21922561.4264
        23.0004         22.7504
  24006941.3594   16744987.80545  13048029.08545                  24006950.7974
        10.0004         10.5004
  21864753.4304   -7747524.67448  -6037034.17947                  21864759.9924
        28.0004         27.5004
  20465701.8984  -17799365.44948 -13723943.86747                  20465708.7304
        30.2504         29.2504
  21580006.5164  -17424489.86547  -7470008.70246                  21580013.4454
        22.2504         24.5004
  24815181.5474     257577.57645    218683.64445                  24815190.1524
         8.0004          8.7504
  24794458.7814    -479453.67544   -186973.09845                  24794471.2304
         6.2504          8.7504
 98  6 12 16 50  0.0000000  0  9G30G 4G 8G 7G 9G24G 5G16G10
  24153051.4534   -3719775.24145  -2706296.55045                  24153058.8754
        10.7504         10.5004
  21223106.2274   -7485162.14447  -5832592.03847                  21223112.6024
        27.7504         29.0004
  21920157.9224  -14066974.90647 -10752854.06446                  21920164.6134
        23.7504         22.7504
  24013504.6094   16779476.89945  13074903.68345                  24013514.7154
        10.0004         10.2504
  21869147.2974   -7724434.28747  -6019041.69047                  21869153.6604
        27.7504         27.0004
  20463839.5704  -17809151.89448 -13731569.65147                  20463846.3324
        30.2504         29.2504
  21573861.0634  -17456782.60947  -7495171.86646                  21573867.8134
        22.2504         24.7504
  24817231.5084     268344.89945    227073.78545                  24817242.4804
         8.2504          8.0004
  24785433.9384    -526876.89444   -223926.19745                  24785447.6764
         6.2504          8.2504
 98  6 12 16 50 15.0000000  0  9G30G 4G 8G 7G 9G24G 5G16G10
  24143800.3364   -3768385.03845  -2744174.29645                  24143807.7704
         9.7504         10.5004
  21228012.3364   -7459381.17748  -5812502.97947                  21228018.5124
        28.5004         28.7504
  21917790.2734  -14079416.87947 -10762549.10146                  21917796.7194
        23.5004         22.7504
  24020068.9454   16813972.55945  13101783.37445                  24020078.0904
        11.2504         11.2504
  21873564.6334   -7701221.21747  -6000953.60347                  21873570.9734
        27.2504         27.0004
  20462003.5554  -17818800.80248 -13739088.27347                  20462010.4614
        30.5004         29.0004
  21567727.1254  -17489015.37147  -7520288.29146                  21567733.6994
        22.0004         24.7504
  24819304.6254     279241.23945    235564.43945                  24819314.0044
         8.7504          8.5004
  24776404.6564    -574323.98044   -260897.92645                  24776417.3054
         6.2504          8.2504
 98  6 12 16 50 30.0000000  0  9G30G 4G 8G 7G 9G24G 5G16G10
  24134552.7274   -3816984.36245  -2782043.81945                  24134560.6414
        10.0004         10.2504
  21232940.1884   -7433484.05848  -5792323.40947                  21232946.3404
        29.0004         28.7504
  21915451.4144  -14091708.65247 -10772127.10246                  21915457.9304
        23.7504         23.2504
  24026634.9454   16848475.75945  13128668.96445                  24026644.5354
        11.2504         11.2504
  21878004.5084   -7677889.30647  -5982772.90747                  21878010.9884
        26.7504         27.0004
  20460194.1884  -17828309.03748 -13746497.27347                  20460200.9144
        30.5004         28.7504
  21561604.6174  -17521190.87947  -7545360.10246                  21561611.0634
        22.7504         25.0004
  24821402.8284     290267.28545    244156.15345                  24821412.9804
         9.0004          8.5004
  24767371.7424    -621795.46544   -297888.67445                  24767383.9104
         7.2504          9.0004
 98  6 12 16 50 45.0000000  0  9G30G 4G 8G 7G 9G24G 5G16G10
  24125306.0084   -3865575.51645  -2819906.99945                  24125314.3674
        10.2504         10.2504
  21237890.3914   -7407470.95948  -5772053.46547                  21237896.7194
        28.5004         28.7504
  21913140.7894  -14103850.44847 -10781588.23346                  21913147.0594
        23.5004         23.0004
  24033202.0864   16882985.93045  13155559.97145                  24033211.8284
        10.7504         11.0004
  21882467.1174   -7654439.08547  -5964500.02847                  21882473.6214
        25.2504         26.5004
  20458411.7424  -17837675.60348 -13753795.88947                  20458418.4104
        30.0004         28.5004
  21555492.6564  -17553310.57347  -7570388.41946                  21555499.3714
        23.2504         25.2504
  24823527.4924     301426.72445    252851.85445                  24823537.7384
         8.7504          8.2504
  24758333.6414    -669289.33844   -334896.88345                  24758344.5554
         7.2504          9.0004
 98  6 12 16 51  0.0000000  0  9G30G 4G 8G 7G 9G24G 5G16G10
  24116061.0234   -3914158.90845  -2857764.14845                  24116068.6094
         9.7504         10.2504
  21242862.7194   -7381341.05348  -5751692.50447                  21242868.9774
        28.2504         28.2504
  21910859.1724  -14115840.66247 -10790931.25846                  21910865.7704
        23.2504         23.0004
  24039769.3054   16917502.07345  13182455.61345                  24039778.1214
        10.5004         10.7504
  21886952.7504   -7630867.23947  -5946132.37947                  21886959.0784
        25.7504         26.7504
  20456656.7424  -17846899.30348 -13760983.17647                  20456663.5274
        29.5004         28.5004
  21549391.4924  -17585371.57047  -7595371.00646                  21549398.0904
        23.2504         25.5004
  24825676.4064     312721.58945    261653.02945                  24825686.8874
         8.2504          8.2504
  24749293.2734    -716799.71644   -371917.90545                  24749306.8834
         7.0004          8.2504
 98  6 12 16 51 15.0000000  0  9G30G 4G 8G 7G 9G24G 5G16G10
  24106815.2034   -3962742.26145  -2895621.27245                  24106822.8014
         9.5004         10.2504
  21247856.3674   -7355099.53248  -5731244.56947                  21247862.5554
        28.2504         28.0004
  21908605.1954  -14127684.98047 -10800160.59346                  21908611.8634
        23.0004         23.0004
  24046337.8054   16952017.00445  13209350.33345                  24046344.8634
        10.5004          9.7504
  21891459.4924   -7607181.33047  -5927675.84747                  21891465.9844
        26.0004         26.7504
  20454927.7344  -17855984.79248 -13768062.77147                  20454934.5434
        29.7504         28.5004
  21543301.4454  -17617375.33247  -7620308.98847                  21543308.0784
        24.2504         25.7504
  24827849.9224     324148.94845    270557.48345                  24827860.6724
         8.0004          8.2504
  24740248.3594    -764330.53344   -408954.92845                  24740260.9144
         7.0004          8.7504
 98  6 12 16 51 30.0000000  0  9G30G 4G 8G 7G 9G24G 5G16G10
  24097570.2504   -4011325.76245  -2933478.49345                  24097577.0824
        10.0004         10.7504
  21252871.5784   -7328744.46447  -5710708.16147                  21252877.8244
        27.7504         27.5004
  21906379.8524  -14139379.41547 -10809273.14346                  21906386.4614
        22.7504         23.0004
  24052904.8054   16986528.48245  13236242.38845                  24052913.7504
         9.5004          9.7504
  21895988.7894   -7583381.93247  -5909130.88347                  21895995.4574
        25.5004         26.7504
  20453225.4694  -17864930.28948 -13775033.27547                  20453232.4804
        29.5004         28.5004
  21537223.3444  -17649316.62047  -7645198.28647                  21537229.9534
        24.2504         26.0004
  24830051.2424     335711.77545    279567.47145                  24830061.5704
         8.0004          8.5004
  24731200.3914    -811879.67244   -446006.18045                  24731212.5234
         6.7504          8.5004
 98  6 12 16 51 45.0000000  0  9G30G 4G 8G 7G 9G24G 5G16G10
  24088326.2424   -4059907.71145  -2971334.51745                  24088333.9694
        10.2504         10.0004
  21257907.9774   -7302277.45348  -5690084.51547                  21257914.0704
        28.5004         27.2504
  21904183.6564  -14150921.12947 -10818266.69146                  21904190.1254
        23.2504         23.0004
  24059471.3984   17021035.52745  13263130.96745                  24059480.2384
         9.2504          8.7504
  21900539.5784   -7559468.24247  -5890496.86047                  21900546.2344
        26.5004         27.0004
  20451550.0004  -17873734.33248 -13781893.55747                  20451557.1884
        29.5004         28.2504
  21531157.9534  -17681189.90847  -7670034.59647                  21531164.3524
        24.5004         26.0004
  24832277.1094     347413.63345    288685.82245                  24832287.2734
         8.2504          9.0004
  24722148.2194    -859445.29244   -483070.27545                  24722163.1174
         6.7504          8.5004
 98  6 12 16 52  0.0000000  0  9G30G 4G 8G 7G 9G24G 5G16G10
  24079080.7424   -4108487.89445  -3009189.17145                  24079088.2344
         9.2504         10.0004
  21262965.1564   -7275702.18448  -5669376.51747                  21262971.2274
        28.7504         27.2504
  21902015.5784  -14162313.42147 -10827143.80446                  21902021.8714
        23.0004         23.2504
  24066037.2664   17055538.34045  13290016.24245                  24066046.2934
         9.0004          8.7504
  21905111.7344   -7535441.58247  -5871774.80847                  21905118.4264
        26.0004         26.7504
  20449901.3364  -17882397.77248 -13788644.28247                  20449908.3594
        29.0004         28.2504
  21525105.7814  -17712994.65447  -7694817.50647                  21525112.2274
        24.5004         25.7504
  24834530.0634     359252.96345    297911.24845                  24834540.6254
         8.0004          8.5004
  24713093.9224    -907027.83744   -520147.55145                  24713105.9964
         7.2504          8.0004
 98  6 12 16 52 15.0000000  0  9G30G 4G 8G 7G 9G24G 5G16G10
  24069837.2894   -4157064.31745  -3047040.84645                  24069845.6604
         9.0004         10.5004
  21268042.8444   -7249019.26448  -5648584.63447                  21268048.8094
        29.0004         27.2504
  21899875.7424  -14173559.49847 -10835906.97746                  21899882.4344
        23.2504         23.2504
  24072602.8054   17090039.12245  13316899.95045                  24072610.1684
         9.5004          9.0004
  21909705.1334   -7511303.18847  -5852965.68747                  21909711.8014
        26.7504         26.7504
  20448278.7034  -17890924.25348 -13795288.28247                  20448285.3594
        29.5004         27.7504
  21519066.0784  -17744732.63047  -7719548.37747                  21519072.3714
        24.5004         25.7504
  24836808.8134     371227.45545    307242.03145                  24836817.8754
         7.7504          8.0004
  24704035.8754    -954628.47844   -557238.93545                  24704047.9964
         7.0004          8.2504
 98  6 12 16 52 30.0000000  0  9G30G 4G 8G 7G 9G24G 5G16G10
  24060595.0474   -4205633.95045  -3084887.27645                  24060600.5904
         9.7504         10.2504
  21273141.1024   -7222228.03748  -5627708.36447                  21273147.0904
        29.5004         27.2504
  21897763.2664  -14184658.91247 -10844555.87046                  21897769.9344
        23.0004         23.2504
  24079168.4614   17124540.90145  13343784.41345                  24079176.1644
        10.0004          9.7504
  21914319.6954   -7487052.30547  -5834068.91447                  21914326.5664
        26.0004         27.0004
  20446682.0234  -17899315.93548 -13801827.24247                  20446688.3524
        29.7504         27.7504
  21513039.5474  -17776403.25447  -7744226.77347                  21513045.8984
        24.7504         25.7504
  24839113.1024     383337.26045    316678.24445                  24839123.0784
         7.5004          8.2504
  24694974.9384   -1002246.33244   -594343.71745                  24694989.7544
         7.2504          8.5004
 98  6 12 16 52 45.0000000  0  9G30G 4G 8G 7G 9G24G 5G16G10
  24051353.6724   -4254197.12945  -3122728.69445                  24051360.7074
         9.5004         10.2504
  21278260.6414   -7195324.98648  -5606744.95847                  21278266.5704
        30.0004         27.5004
  21895679.4924  -14195609.46247 -10853088.76446                  21895686.2074
        23.2504         23.7504
  24085733.5474   17159042.74745  13370668.94945                  24085744.1214
         9.7504          9.2504
  21918956.3134   -7462687.29347  -5815083.20947                  21918963.0394
        25.5004         26.5004
  20445109.9454  -17907575.75248 -13808263.45347                  20445116.1684
        29.7504         27.7504
  21507025.3134  -17808006.83347  -7768852.92747                  21507031.4654
        24.7504         25.7504
  24841444.2734     395584.94345    326221.89245                  24841454.6134
         7.7504          8.0004
  24685909.7344   -1049879.49544   -631460.45145                  24685922.4884
         7.2504          8.0004
 98  6 12 16 53  0.0000000  0  9G30G 4G 8G 7G 9G24G 5G16G10
  24042113.2814   -4302751.94745  -3160563.55445                  24042120.1024
        10.0004         10.5004
  21283401.3364   -7168309.34048  -5585693.80847                  21283407.3364
        29.7504         27.2504
  21893624.9064  -14206408.17747 -10861503.35046                  21893631.5864
        22.7504         23.5004
  24092298.6094   17193544.03645  13397553.02245                  24092307.7774
         9.5004          9.2504
  21923614.6644   -7438207.11747  -5796007.76247                  21923621.5084
        26.0004         26.5004
  20443563.3134  -17915704.05848 -13814597.18847                  20443569.8164
        29.7504         28.0004
  21501024.8524  -17839540.66647  -7793424.73647                  21501031.0164
        24.2504         25.7504
  24843801.4844     407971.19245    335873.56245                  24843814.7424
         7.7504          8.0004
  24676842.9144   -1097527.44044   -668588.67445                  24676855.1764
         7.2504          8.2504
 98  6 12 16 53 15.0000000  0  9G30G 4G 8G 7G 9G24G 5G16G10
  24032875.8054   -4351297.63045  -3198391.30945                  24032883.4734
        10.5004         10.5004
  21288562.5554   -7141187.57048  -5564559.97647                  21288568.4964
        30.0004         27.2504
  21891598.0314  -14217059.73647 -10869803.26946                  21891604.5944
        23.0004         23.5004
  24098863.6334   17228042.09445  13424434.60345                  24098874.1954
         9.5004          9.5004
  21928293.3914   -7413620.15247  -5776849.11247                  21928300.0354
        24.7504         26.2504
  20442041.1724  -17923704.22648 -13820831.07347                  20442047.8754
        29.7504         28.2504
  21495036.7344  -17871006.30147  -7817943.39547                  21495042.8874
        24.7504         25.7504
  24846183.1724     420488.03645    345626.90945                  24846192.0354
         7.5004          8.0004
  24667772.4694   -1145197.54544   -705734.20945                  24667785.1884
         7.2504          7.7504
 98  6 12 16 53 30.0000000  0  9G30G 4G 8G 7G 9G24G 5G16G10
  24023640.3754   -4399831.19045  -3236209.62245                  24023647.9264
        10.7504         10.7504
  21293744.0394   -7113959.21048  -5543343.08147                  21293749.9694
        30.0004         27.5004
  21889599.0944  -14227563.06047 -10877987.67846                  21889605.7624
        23.2504         23.5004
  24105428.1094   17262537.22045  13451313.84645                  24105438.0864
         9.2504          9.0004
  21932991.9224   -7388928.04247  -5757608.52547                  21932998.7304
        24.2504         26.0004
  20440542.6414  -17931578.40648 -13826966.78047                  20440549.4144
        30.0004         28.5004
  21489061.9534  -17902404.84247  -7842409.77447                  21489068.2934
        25.5004         25.7504
  24848589.3754     433132.26745    355479.60645                  24848596.5984
         7.5004          8.0004
  24658694.6884   -1192893.32944   -742899.71345                  24658706.6094
         7.2504          7.7504
 98  6 12 16 53 45.0000000  0  9G30G 4G 8G 7G 9G24G 5G16G10
  24014410.0474   -4448338.18945  -3274007.26545                  24014416.0944
        11.2504         10.5004
  21298948.2114   -7086611.26748  -5522033.00547                  21298954.1524
        30.0004         27.5004
  21887630.9384  -14237906.11047 -10886047.18946                  21887638.0084
        23.2504         23.7504
  24111994.0944   17297041.95545  13478200.62145                  24112003.5084
         9.5004          9.2504
  21937713.3364   -7364118.54847  -5738276.46847                  21937720.1094
        23.2504         26.0004
  20439069.9694  -17939317.40148 -13832997.15647                  20439076.6374
        30.0004         28.7504
  21483101.8444  -17933726.80047  -7866816.48147                  21483108.0784
        25.5004         26.2504
  24851020.7894     445911.71445    365437.60845                  24851033.5784
         7.7504          7.5004
  24649616.7584   -1240603.95144   -780076.81545                  24649628.9614
         7.2504          7.5004
 98  6 12 16 54  0.0000000  0  9G30G 4G 8G 7G 9G24G 5G16G10
  24005182.9304   -4496824.35345  -3311788.65545                  24005190.4224
        10.7504         11.0004
  21304173.9534   -7059148.80248  -5500633.68647                  21304179.9884
        29.5004         27.7504
  21885692.3204  -14248093.00547 -10893985.03546                  21885699.7074
        22.2504         23.7504
  24118561.4454   17331554.58545  13505093.55445                  24118570.0274
         8.7504          8.7504
  21942456.2274   -7339195.25747  -5718855.73347                  21942463.2734
        23.5004         25.7504
  20437622.4384  -17946923.65348 -13838924.08747                  20437629.0594
        30.2504         28.5004
  21477154.7814  -17964979.58947  -7891169.29147                  21477161.1804
        26.2504         26.2504
  24853476.3834     458820.37244    375496.31745                  24853486.7584
         7.2504          8.0004
  24640534.2194   -1288333.29844   -817268.43245                  24640547.0554
         6.5004          7.5004
 98  6 12 16 54 15.0000000  0  9G30G 4G 8G 7G 9G24G 5G16G10
  23995958.2974   -4545301.18745  -3349562.73645                  23995965.9654
        10.5004         11.0004
  21309420.0394   -7031580.58848  -5479151.96747                  21309426.0864
        29.5004         28.0004
  21883782.4384  -14258130.38647 -10901806.36546                  21883789.9774
        21.7504         23.5004
  24125129.5164   17366068.78345  13531987.70945                  24125139.1054
         8.5004          8.5004
  21947218.8984   -7314166.35547  -5699352.71847                  21947226.1214
        23.0004         25.7504
  20436198.4924  -17954405.98248 -13844754.46747                  20436205.1024
        30.5004         29.0004
  21471218.8364  -17996172.68447  -7915475.59347                  21471225.1764
        26.0004         26.5004
  24855956.3524     471846.96644    385646.86945                  24855967.5594
         7.2504          7.7504
  24631446.6644   -1336088.41944   -854480.22845                  24631458.4694
         6.7504          7.5004
 98  6 12 16 54 30.0000000  0  9G30G 4G 8G 7G 9G24G 5G16G10
  23986736.7424   -4593759.48045  -3387322.40845                  23986744.3164
        10.2504         11.2504
  21314688.4534   -7003895.74948  -5457579.37247                  21314694.5004
        29.0004         28.0004
  21881902.8054  -14268008.13647 -10909503.30946                  21881910.2504
        21.7504         23.2504
  24131699.0784   17400592.62845  13558889.34145                  24131708.1054
         7.7504          8.2504
  21952003.6644   -7289022.16847  -5679759.85946                  21952010.9694
        23.5004         25.5004
  20434799.9534  -17961756.25648 -13850481.94947                  20434806.6454
        31.0004         29.0004
  21465295.6724  -18027298.97047  -7939729.82847                  21465301.9414
        26.5004         26.5004
  24858458.2974     484999.42045    395895.58645                  24858467.9924
         7.5004          8.0004
  24622355.8524   -1383858.15944   -891703.30045                  24622364.9844
         7.0004          7.0004
 98  6 12 16 54 45.0000000  0  9G30G 4G 8G 7G 9G24G 5G16G10
  23977518.1024   -4642204.60245  -3425071.82145                  23977524.6764
        10.7504         11.2504
  21319978.1724   -6976096.76148  -5435917.83647                  21319984.5824
        29.0004         28.5004
  21880052.8134  -14277728.52447 -10917077.64146                  21880060.0234
        21.5004         23.2504
  24138269.1414   17435119.86545  13585793.68445                  24138277.6644
         8.0004          8.7504
  21956809.9064   -7263765.47247  -5660079.33347                  21956817.5164
        23.0004         25.7504
  20433426.3284  -17968974.98648 -13856106.93147                  20433433.0084
        30.7504         29.0004
  21459384.9694  -18058359.93247  -7963933.16647                  21459391.3204
        26.7504         26.5004
  24860985.6254     498276.16345    406241.06945                  24860995.8714
         8.0004          8.0004
  24613263.3834   -1431642.80444   -928938.12345                  24613273.0554
         7.2504          7.2504
 98  6 12 16 55  0.0000000  0  9G30G 4G 8G 7G 9G24G 5G16G10
  23968302.7114   -4690631.04945  -3462806.63645                  23968310.4384
        10.7504         11.2504
  21325290.7034   -6948179.87148  -5414164.41947                  21325296.9964
        29.0004         28.5004
  21878233.8134  -14287287.58847 -10924526.25346                  21878241.2584
        21.5004         22.7504
  24144841.1174   17469653.74345  13612703.15145                  24144851.3874
         8.5004          8.7504
  21961638.5234   -7238391.16747  -5640307.16447                  21961646.2734
        23.2504         25.7504
  20432079.1094  -17976054.25148 -13861623.23047                  20432085.9414
        30.7504         29.0004
  21453487.9144  -18089350.02147  -7988081.27847                  21453494.0664
        26.2504         26.2504
  24863536.4384     511682.08145    416687.29945                  24863546.7074
         8.7504          8.2504
  24604168.3594   -1479437.17345   -966180.34045                  24604177.0124
         7.5004          8.2504
 98  6 12 16 55 15.0000000  0  9G30G 4G 8G 7G 9G24G 5G16G10
  23959090.4224   -4739043.29045  -3500530.43545                  23959098.8754
        10.7504         11.0004
  21330624.3284   -6920150.68448  -5392323.49347                  21330630.8204
        29.5004         28.2504
  21876444.3754  -14296692.01247 -10931854.38146                  21876451.5514
        21.2504         22.7504
  24151413.2114   17504190.77645  13639615.09845                  24151421.8634
         8.5004          9.2504
  21966488.6414   -7212903.72747  -5620446.84147                  21966496.3554
        23.2504         26.0004
  20430757.5474  -17982999.15348 -13867034.83347                  20430764.5004
        30.7504         29.0004
  21447603.1254  -18120273.49147  -8012177.48047                  21447609.1844
        25.7504         26.0004
  24866110.5474     525207.02345    427226.19345                  24866119.7154
         8.7504          8.0004
  24595070.2034   -1527245.11944  -1003433.22645                  24595080.3914
         7.0004          8.0004
 98  6 12 16 55 30.0000000  0  9G30G 4G 8G 7G 9G24G 5G16G10
  23949881.0784   -4787437.72345  -3538240.33545                  23949889.7774
        11.2504         11.2504
  21335981.3134   -6892000.57748  -5370388.35047                  21335987.5354
        29.2504         28.5004
  21874685.3594  -14305936.51647 -10939057.88346                  21874692.3134
        22.0004         22.7504
  24157987.5004   17538738.90145  13666535.67345                  24157995.7074
         7.7504          7.7504
  21971361.9924   -7187294.34447  -5600491.49547                  21971369.6724
        24.0004         26.0004
  20429462.2814  -17989805.40248 -13872338.39347                  20429469.2814
        30.5004         28.7504
  21441732.0084  -18151126.58747  -8036218.84647                  21441738.0084
        26.0004         25.7504
  24868708.2034     538856.66045    437862.29945                  24868716.8204
         8.2504          8.2504
  24585971.4144   -1575060.53245  -1040691.94845                  24585981.8134
         7.7504          8.0004
 98  6 12 16 55 45.0000000  0  9G30G 4G 8G 7G 9G24G 5G16G10
  23940674.0704   -4835820.62945  -3575941.25945                  23940681.4694
        11.5004         11.5004
  21341360.3364   -6863732.59948  -5348361.35547                  21341366.4414
        29.0004         28.5004
  21872956.2274  -14315023.60547 -10946138.73846                  21872963.0124
        22.7504         22.7504
  24164561.8754   17573292.65545  13693460.62245                  24164570.1294
         7.7504          8.0004
  21976258.4614   -7161562.14147  -5580440.44947                  21976265.6954
        24.7504         26.2504
  20428192.8364  -17996476.36348 -13877536.53547                  20428199.7544
        30.7504         28.7504
  21435873.0004  -18181915.62647  -8060210.29147                  21435879.0704
        26.0004         25.7504
  24871328.9694     552629.99845    448594.76545                  24871339.4494
         7.5004          7.7504
  24576871.2424   -1622881.21845  -1077954.75245                  24576881.0554
         8.2504          8.0004
 98  6 12 16 56  0.0000000  0  9G30G 4G 8G 7G 9G24G 5G16G10
  23931467.7274   -4884197.16745  -3613637.22445                  23931475.5594
        11.2504         11.7504
  21346760.5784   -6835354.35248  -5326248.43047                  21346766.9184
        29.5004         28.7504
  21871256.1954  -14323956.87147 -10953099.72546                  21871262.9924
        22.7504         22.7504
  24171137.5634   17607845.99345  13720385.33145                  24171148.3134
         7.5004          8.2504
  21981177.7274   -7135711.28347  -5560296.94647                  21981184.8444
        25.0004         26.0004
  20426948.3914  -18003015.98148 -13882632.33847                  20426954.9654
        30.5004         28.5004
  21430025.9614  -18212641.54847  -8084152.55846                  21430032.1024
        25.2504         25.2504
  24873973.8134     566526.39645    459423.12445                  24873985.7934
         7.7504          7.7504
  24567769.1024   -1670710.08145  -1115223.96545                  24567778.4694
         7.5004          8.0004
 98  6 12 16 56 15.0000000  0  9G30G 4G 8G 7G 9G24G 5G16G10
  23922263.3444   -4932568.55945  -3651329.16746                  23922271.1994
        11.5004         12.0004
  21352181.2034   -6806869.26048  -5304052.25547                  21352187.5554
        29.2504         28.7504
  21869585.6954  -14332735.69947 -10959940.37546                  21869592.1174
        23.5004         22.5004
  24177712.7274   17642396.24445  13747307.56245                  24177721.6254
         8.0004          8.0004
  21986119.3594   -7109743.06847  -5540061.99347                  21986126.6884
        25.0004         26.0004
  20425728.5864  -18009426.21548 -13887627.31747                  20425735.0664
        30.0004         28.0004
  21424191.0004  -18243304.12347  -8108045.46246                  21424197.2234
        24.7504         25.0004
  24876641.0944     580546.43544    470347.81345                  24876651.7384
         7.0004          7.2504
  24558666.5474   -1718546.61345  -1152499.12945                  24558677.0044
         7.7504          8.5004
 98  6 12 16 56 30.0000000  0  9G30G 4G 8G 7G 9G24G 5G16G10
  23913061.1884   -4980925.86046  -3689010.12046                  23913069.5944
        12.2504         12.2504
  21357623.1254   -6778271.43748  -5281768.24447                  21357629.1844
        30.2504         29.0004
  21867945.0634  -14341357.80647 -10966658.90046                  21867951.0744
        23.2504         22.7504
  24184286.9304   17676945.30945  13774228.84945                  24184295.7344
         7.5004          8.2504
  21991083.9064   -7083654.84847  -5519733.52946                  21991091.0004
        24.7504         25.5004
  20424533.5314  -18015705.87648 -13892520.55147                  20424540.1054
        29.5004         28.0004
  21418369.0004  -18273898.61147  -8131885.31346                  21418375.1644
        24.7504         25.2504
  24879332.7584     594693.87444    481371.82845                  24879342.9224
         7.0004          8.0004
  24549561.7974   -1766388.34244  -1189778.29245                  24549573.4144
         7.0004          8.2504
 98  6 12 16 56 45.0000000  0  9G30G 4G 8G 7G 9G24G 5G16G10
  23903861.0164   -5029272.58546  -3726682.85446                  23903868.3554
        12.2504         12.2504
  21363085.9224   -6749564.96348  -5259399.56247                  21363091.8634
        30.2504         28.7504
  21866332.9144  -14349829.44047 -10973260.17146                  21866339.0784
        22.7504         22.5004
  24190860.6254   17711485.87045  13801143.58145                  24190871.3284
         7.5004          8.7504
  21996069.6174   -7057455.00247  -5499318.08346                  21996076.4774
        24.0004         25.5004
  20423362.5394  -18021859.57648 -13897315.63347                  20423369.0084
        30.0004         28.0004
  21412559.2344  -18304428.91647  -8155675.15146                  21412565.4344
        24.7504         25.2504
  24882049.0314     608967.24545    492493.96445                  24882058.7274
         7.5004          7.0004
  24540457.5314   -1814238.85244  -1227064.40245                  24540468.2814
         7.2504          7.7504
 98  6 12 16 57  0.0000000  0  9G30G 4G 8G 7G 9G24G 5G16G10
  23894663.3984   -5077607.15746  -3764346.11946                  23894670.3284
        12.5004         12.5004
  21368569.6334   -6720747.67948  -5236944.54547                  21368575.6334
        31.2504         28.5004
  21864750.1334  -14358145.72747 -10979740.39046                  21864756.2274
        22.2504         22.5004
  24197432.4694   17746022.67745  13828055.29545                  24197443.4304
         8.2504          9.2504
  22001076.8754   -7031142.06247  -5478814.51846                  22001083.7704
        24.2504         25.2504
  20422216.4384  -18027882.53848 -13902008.84647                  20422222.9304
        29.7504         28.0004
  21406762.7664  -18334889.71547  -8179410.81746                  21406768.9414
        24.2504         25.0004
  24884790.2814     623371.14145    503717.77345                  24884801.5824
         8.0004          8.0004
  24531350.1954   -1862094.97244  -1264354.81945                  24531359.0824
         7.2504          8.0004
 98  6 12 16 57 15.0000000  0  9G30G 4G 8G 7G 9G24G 5G16G10
  23885468.0554   -5125929.02646  -3801999.49046                  23885475.4534
        12.7504         13.0004
  21374075.2894   -6691816.17148  -5214400.52047                  21374081.2194
        31.0004         28.2504
  21863197.8054  -14366304.19947 -10986097.64346                  21863203.7704
        22.2504         22.2504
  24204005.3984   17780559.09345  13854966.76445                  24204016.9104
         8.7504          9.5004
  22006105.6484   -7004714.50847  -5458221.63947                  22006112.5784
        24.7504         25.7504
  20421095.3134  -18033775.17148 -13906600.49947                  20421101.5234
        29.5004         27.7504
  21400979.5314  -18365281.04747  -8203092.36146                  21400985.6724
        24.5004         25.0004
  24887555.6484     637903.31545    515041.50445                  24887565.7304
         8.0004          7.7504
  24522242.6334   -1909955.61544  -1301648.73445                  24522253.4304
         6.7504          7.5004
 98  6 12 16 57 30.0000000  0  9G30G 4G 8G 7G 9G24G 5G16G10
  23876275.5164   -5174235.28046  -3839640.69346                  23876282.7384
        13.2504         12.2504
  21379603.1804   -6662766.47548  -5191764.40147                  21379609.2384
        30.2504         27.7504
  21861676.1484  -14374299.29247 -10992327.58146                  21861682.6054
        22.0004         22.2504
  24210577.7974   17815100.58345  13881882.17445                  24210588.3834
         8.7504          9.2504
  22011156.9454   -6978170.70547  -5437538.17547                  22011163.6484
        24.7504         25.7504
  20419999.2034  -18039534.28448 -13911088.11447                  20420005.6374
        29.0004         27.7504
  21395210.0474  -18395599.44747  -8226717.07846                  21395216.1174
        24.7504         25.2504
  24890346.5004     652569.89645    526470.08845                  24890355.4804
         8.0004          7.2504
  24513133.5784   -1957818.00844  -1338944.02145                  24513143.8484
         6.7504          8.2504
 98  6 12 16 57 45.0000000  0  9G30G 4G 8G 7G 9G24G 5G16G10
  23867083.2974   -5222539.03246  -3877279.94446                  23867091.0704
        12.7504         12.5004
  21385150.3674   -6633615.62248  -5169049.46247                  21385156.4024
        30.2504         27.5004
  21860183.3594  -14382144.57347 -10998440.78446                  21860190.1684
        21.2504         22.2504
  24217148.2894   17849629.72445  13908787.95345                  24217159.3674
         8.5004          9.2504
  22016226.9844   -6951527.59847  -5416777.33946                  22016233.9264
        24.7504         25.2504
  20418926.4454  -18045171.70848 -13915480.90247                  20418933.0664
        29.7504         27.7504
  21389451.9384  -18425859.79447  -8250296.55846                  21389458.0904
        25.0004         25.2504
  24893160.8364     667359.25045    537994.23145                  24893171.0234
         7.5004          8.0004
  24504023.3204   -2005695.70744  -1376251.25045                  24504035.3364
         6.7504          8.0004
 98  6 12 16 58  0.0000000  0  9G30G 4G 8G 7G 9G24G 5G16G10
  23857894.1174   -5270829.51846  -3914908.83246                  23857902.1254
        13.0004         13.0004
  21390718.2974   -6604356.10648  -5146249.85047                  21390724.2274
        29.7504         27.5004
  21858720.7814  -14389830.96047 -11004430.17246                  21858728.0514
        20.5004         22.2504
  24223718.0164   17884156.50245  13935691.87945                  24223728.8714
         8.7504          9.0004
  22021317.2584   -6924778.65847  -5395934.02546                  22021324.1994
        24.5004         25.5004
  20417878.8444  -18050676.52148 -13919770.35447                  20417885.5594
        30.0004         28.0004
  21383706.8594  -18456049.66847  -8273821.12146                  21383712.8594
        25.7504         25.5004
  24896000.1484     682279.79045    549620.66745                  24896013.5594
         7.5004          8.0004
  24494911.0944   -2053581.12144  -1413564.51645                  24494922.4064
         6.7504          8.5004
 98  6 12 16 58 15.0000000  0  9G30G 4G 8G 7G 9G24G 5G16G10
  23848708.0944   -5319102.23646  -3952523.88546                  23848715.2344
        12.7504         12.7504
  21396307.4064   -6574984.91848  -5123363.21947                  21396313.5354
        29.2504         27.2504
  21857288.3444  -14397356.03847 -11010293.86546                  21857295.5314
        20.7504         21.7504
  24230289.5864   17918689.23545  13962600.50245                  24230299.7734
         8.7504          8.5004
  22026427.6804   -6897922.79347  -5375007.40446                  22026434.3134
        25.0004         25.2504
  20416857.7034  -18056043.22048 -13923952.18447                  20416864.3014
        30.0004         28.0004
  21377976.1564  -18486165.08547  -8297287.66647                  21377982.1564
        26.0004         25.7504
  24898864.4924     697333.05145    561350.46245                  24898875.5354
         7.7504          8.0004
  24485797.2504   -2101474.02244  -1450883.53845                  24485807.9064
         6.7504          8.0004
 98  6 12 16 58 30.0000000  0  9G30G 4G 8G 7G 9G24G 5G16G10
  23839525.1484   -5367359.35646  -3990126.79646                  23839532.3014
        14.0004         12.5004
  21401917.8914   -6545501.45348  -5100389.09647                  21401923.9144
        28.2504         27.0004
  21855886.1254  -14404724.50147 -11016035.52846                  21855893.1604
        20.5004         21.5004
  24236862.8914   17953229.43945  13989514.89245                  24236873.0314
         8.5004          8.7504
  22031558.0784   -6870962.60047  -5353999.48046                  22031564.7584
        24.0004         25.2504
  20415862.8984  -18061270.60248 -13928025.46447                  20415869.3444
        29.7504         28.2504
  21372258.9064  -18516209.94247  -8320699.22947                  21372265.1764
        25.5004         25.7504
  24901753.7664     712515.10845    573180.69645                  24901765.9694
         7.7504          8.5004
  24476681.5634   -2149375.49944  -1488209.32045                  24476693.0044
         7.2504          8.5004
 98  6 12 16 58 45.0000000  0  9G30G 4G 8G 7G 9G24G 5G16G10
  23830344.3444   -5415607.20446  -4027722.49746                  23830351.9414
        14.0004         12.5004
  21407548.4774   -6515911.35647  -5077331.88647                  21407554.6294
        27.7504         27.0004
  21854512.4844  -14411942.20647 -11021659.70446                  21854519.5084
        20.0004         21.5004
  24243436.5554   17987774.55345  14016433.15245                  24243446.0274
         9.0004          8.5004
  22036707.2734   -6843902.88547  -5332914.00646                  22036714.1914
        24.5004         25.0004
  20414894.0314  -18066361.88748 -13931992.69347                  20414900.3014
        30.5004         28.2504
  21366553.8914  -18546188.49347  -8344059.12547                  21366560.0784
        26.0004         26.2504
  24904667.1644     727820.78145    585107.17745                  24904677.9144
         8.7504          8.7504
  24467564.2974   -2197290.22345  -1525545.41645                  24467576.4654
         7.5004          8.2504
 98  6 12 16 59  0.0000000  0  9G30G 4G 8G 7G 9G24G 5G16G10
  23821165.2734   -5463841.72846  -4065307.81646                  23821172.7074
        14.2504         13.0004
  21413200.1174   -6486212.65847  -5054190.05147                  21413206.2114
        26.7504         26.7504
  21853169.5314  -14419001.21647 -11027160.22346                  21853176.5664
        20.2504         21.2504
  24250012.7584   18022333.16945  14043361.90045                  24250024.2234
         8.2504          9.0004
  22041877.1024   -6816736.54247  -5311745.43746                  22041883.9104
        23.5004         25.0004
  20413952.7504  -18071309.55048 -13935847.99947                  20413958.8554
        31.0004         28.2504
  21360863.3594  -18576093.00647  -8367361.32747                  21360869.7934
        25.5004         26.0004
  24907602.8834     743254.93145    597133.82345                  24907615.5554
         8.0004          8.5004
  24458445.2424   -2245210.70645  -1562885.99145                  24458455.5824
         8.0004          9.0004
 98  6 12 16 59 15.0000000  0  9G30G 4G 8G 7G 9G24G 5G16G10
  23811988.2114   -5512065.97846  -4102885.11246                  23811996.2304
        12.7504         13.0004
  21418870.6644   -6456412.02447  -5030968.77947                  21418876.8054
        26.7504         26.5004
  21851855.2814  -14425905.79547 -11032540.40946                  21851862.0204
        20.5004         21.2504
  24256591.1094   18056902.01145  14070298.62945                  24256601.4384
         8.7504          9.0004
  22047066.4064   -6789465.24747  -5290495.09646                  22047073.0984
        24.2504         24.5004
  20413037.8364  -18076117.19348 -13939594.20947                  20413044.0944
        31.7504         28.7504
  21355185.7814  -18605929.19147  -8390610.29047                  21355192.0864
        26.0004         26.2504
  24910563.6484     758810.37645    609254.93045                  24910574.0354
         8.0004          8.7504
  24449323.5944   -2293144.45045  -1600236.87845                  24449333.8874
         8.5004          9.0004
 98  6 12 16 59 30.0000000  0  9G30G 4G 8G 7G 9G24G 5G16G10
  23802813.1334   -5560281.53946  -4140455.62846                  23802821.1414
        13.2504         13.5004
  21424559.9534   -6426514.85048  -5007672.28647                  21424566.0234
        28.0004         26.5004
  21850570.2504  -14432659.80447 -11037803.26846                  21850576.9064
        20.7504         21.5004
  24263169.9774   18091475.82045  14097239.20545                  24263178.9804
         8.2504          8.2504
  22052275.0084   -6762093.38947  -5269166.38846                  22052282.2194
        23.5004         24.5004
  20412148.5474  -18080789.64748 -13943235.07047                  20412155.2624
        31.2504         29.2504
  21349520.1024  -18635701.67547  -8413809.61247                  21349526.4774
        25.5004         26.2504
  24913545.9304     774484.75145    621468.75445                  24913556.3634
         7.7504          8.2504
  24440198.6334   -2341097.48245  -1637602.85245                  24440207.9654
         9.2504          9.5004
 98  6 12 16 59 45.0000000  0  9G30G 4G 8G 7G 9G24G 5G16G10
  23793641.3914   -5608479.34546  -4178012.32746                  23793648.9774
        13.2504         14.0004
  21430268.3054   -6396518.66547  -4984298.63647                  21430274.5164
        27.7504         27.0004
  21849314.2584  -14439258.33547 -11042944.98046                  21849320.9734
        21.0004         21.2504
  24269751.4924   18126059.27045  14124187.30145                  24269759.9574
         8.2504          8.5004
  22057503.8524   -6734615.65847  -5247755.19946                  22057511.5314
        22.5004         24.5004
  20411286.5474  -18085320.01148 -13946765.21847                  20411293.5704
        31.5004         29.2504
  21343868.2344  -18665401.60347  -8436952.40147                  21343874.5274
        26.0004         26.0004
  24916552.9924     790285.48345    633781.00845                  24916565.1954
         7.5004          8.2504
  24431071.8054   -2389062.05945  -1674977.75045                  24431082.6134
         9.2504          9.0004
 98  6 12 17  0  0.0000000  0  9G30G 4G 8G 7G 9G24G 5G16G10
  23784474.3284   -5656654.56446  -4215551.40946                  23784482.4534
        13.7504         13.7504
  21435996.1724   -6366418.38248  -4960843.88147                  21436002.3484
        28.5004         27.0004
  21848088.8754  -14445698.62847 -11047963.38546                  21848095.9454
        20.2504         21.2504
  24276335.5164   18160657.00345  14151146.54645                  24276344.9534
         8.5004          9.2504
  22062753.7424   -6707026.18747  -5226256.92146                  22062761.4344
        22.0004         24.5004
  20410452.5474  -18089702.94748 -13950180.48247                  20410459.4534
        32.2504         29.2504
  21338231.9774  -18695021.85247  -8460033.09547                  21338238.2114
        26.5004         26.2504
  24919584.3754     806215.54045    646194.07645                  24919596.0514
         7.5004          7.2504
  24421943.3364   -2437032.24645  -1712357.05145                  24421953.7114
         9.5004          9.7504
 98  6 12 17  0 15.0000000  0  9G30G 4G 8G 7G 9G24G 5G16G10
  23775309.2664   -5704814.73746  -4253078.79246                  23775317.3444
        13.0004         13.5004
  21441743.5234   -6336216.95248  -4937310.30547                  21441749.7464
        28.5004         27.2504
  21846892.3444  -14451986.12747 -11052862.73746                  21846899.5204
        20.0004         20.7504
  24282920.3834   18195264.19345  14178113.15645                  24282928.9534
         8.5004          9.0004
  22068024.2034   -6679331.50047  -5204676.66646                  22068031.6954
        22.2504         24.5004
  20409644.8054  -18093946.88348 -13953487.43947                  20409651.2034
        31.5004         29.2504
  21332609.5474  -18724568.10447  -8483056.13947                  21332615.6174
        27.0004         26.2504
  24922639.3134     822267.97745    658702.49045                  24922648.3754
         7.5004          8.5004
  24412812.3134   -2485015.35845  -1749746.38645                  24412823.5664
         9.2504          9.5004
 98  6 12 17  0 30.0000000  0  9G30G 4G 8G 7G 9G24G 5G16G10
  23766148.1334   -5752958.05046  -4290593.01646                  23766156.3984
        13.2504         13.2504
  21447510.2034   -6305912.05248  -4913696.10747                  21447516.2624
        29.0004         27.2504
  21845725.5634  -14458117.77646 -11057640.63946                  21845732.7154
        19.5004         20.5004
  24289507.1724   18229878.50845  14205085.32545                  24289516.7154
         8.5004          9.2504
  22073314.7734   -6651529.42647  -5183012.72546                  22073321.9614
        22.7504         24.2504
  20408863.9774  -18098050.39448 -13956684.97347                  20408870.1524
        30.7504         29.0004
  21327001.2344  -18754039.75947  -8506021.05547                  21327007.3164
        27.0004         26.2504
  24925716.9454     838445.81945    671308.65245                  24925725.8444
         7.5004          7.5004
  24403679.2424   -2533005.70145  -1787141.38945                  24403690.6024
         9.0004          9.0004
 98  6 12 17  0 45.0000000  0  9G30G 4G 8G 7G 9G24G 5G16G10
  23756989.1954   -5801086.74846  -4328095.84546                  23756997.3324
        14.0004         13.7504
  21453296.6804   -6275504.52948  -4890001.94147                  21453302.7034
        28.7504         27.2504
  21844588.7974  -14464092.06746 -11062295.93446                  21844595.6414
        19.7504         20.5004
  24296095.1254   18264496.01345  14232059.96645                  24296105.0314
         9.5004          9.0004
  22078625.7814   -6623620.29947  -5161265.37546                  22078632.5314
        23.2504         24.0004
  20408109.1414  -18102017.47048 -13959776.19847                  20408115.4574
        32.0004         29.0004
  21321407.5554  -18783435.63247  -8528926.92147                  21321413.6724
        27.5004         26.5004
  24928819.4304     854750.68944    684013.74345                  24928831.6334
         6.5004          7.0004
  24394545.4064   -2581003.26445  -1824541.97345                  24394555.0204
         8.7504          8.7504
 98  6 12 17  1  0.0000000  0  8G30G 4G 8G 7G 9G24G 5G10
  23747833.5474   -5849200.55446  -4365587.09546                  23747841.7774
        14.2504         13.7504
  21459101.7584   -6244998.15548  -4866230.75147                  21459107.7814
        29.7504         27.5004
  21843482.1644  -14469907.78147 -11066827.66046                  21843488.6914
        20.7504         20.7504
  24302682.9924   18299113.63145  14259034.71345                  24302693.2154
         9.0004          9.5004
  22083956.6174   -6595604.66247  -5139435.03246                  22083963.2854
        22.7504         23.5004
  20407379.5864  -18105850.58948 -13962763.04047                  20407386.2194
        32.2504         29.0004
  21315827.9384  -18812756.12247  -8551774.03647                  21315833.9964
        27.7504         27.0004
  24385410.8754   -2629009.03045  -1861948.98545                  24385420.4884
         9.0004          7.7504
 98  6 12 17  1 15.0000000  0  8G30G 4G 8G 7G 9G24G 5G10
  23738681.0554   -5897297.90246  -4403065.51146                  23738688.1604
        13.0004         13.5004
  21464926.0394   -6214392.26448  -4842382.00947                  21464932.1454
        30.0004         27.5004
  21842405.2504  -14475568.14847 -11071238.33246                  21842411.4024
        21.0004         20.5004
  24309269.5004   18333727.17345  14286006.26445                  24309280.6484
         8.7504          9.2504
  22089308.2344   -6567483.69247  -5117522.61446                  22089314.7154
        23.2504         23.7504
  20406675.4384  -18109551.39148 -13965646.78047                  20406682.0124
        32.2504         28.5004
  21310261.9384  -18842005.44547  -8574565.70647                  21310268.0554
        27.7504         26.7504
  24376273.8054   -2677024.31045  -1899363.41545                  24376282.6804
         8.7504          8.5004
 98  6 12 17  1 30.0000000  0  8G30G 4G 8G 7G 9G24G 5G10
  23729530.7114   -5945379.99446  -4440532.04146                  23729538.7664
        13.2504         13.7504
  21470769.1804   -6183686.57748  -4818455.50947                  21470775.2504
        30.0004         27.5004
  21841356.7504  -14481077.45447 -11075531.30546                  21841362.9024
        21.2504         20.2504
  24315854.9614   18368331.94845  14312970.94045                  24315863.7544
         8.7504          9.5004
  22094679.4534   -6539258.35047  -5095528.84946                  22094685.6414
        23.5004         23.5004
  20405995.6484  -18113122.16048 -13968429.18347                  20406001.9064
        32.0004         28.0004
  21304708.9694  -18871186.43848  -8597304.12847                  21304715.0864
        28.0004         27.0004
  24367134.3524   -2725048.87145  -1936785.09045                  24367144.1524
         8.5004          8.2504
 98  6 12 17  1 45.0000000  0  8G30G 4G 8G 7G 9G24G 5G10
  23720384.7344   -5993443.60846  -4477984.15346                  23720392.5554
        12.7504         13.5004
  21476632.0164   -6152877.43548  -4794448.39847                  21476638.1214
        30.0004         27.5004
  21840337.2504  -14486435.04347 -11079706.05246                  21840343.2974
        21.2504         20.2504
  24322439.4454   18402932.09145  14339932.06945                  24322449.3404
         9.5004          9.5004
  22100070.9454   -6510925.57647  -5073451.38746                  22100077.1804
        23.5004         23.5004
  20405341.6024  -18116560.97948 -13971108.77847                  20405347.6254
        31.5004         27.5004
  21299169.8204  -18900294.09148  -8619985.40347                  21299175.8674
        28.5004         27.0004
  24357994.5084   -2773075.01545  -1974207.91145                  24358007.1564
         8.2504          8.5004
 98  6 12 17  2  0.0000000  0  8G30G 4G 8G 7G 9G24G 5G10
  23711242.3444   -6041486.41546  -4515420.06346                  23711249.9534
        12.5004         13.7504
  21482515.3364   -6121960.73448  -4770357.46947                  21482521.4064
        29.7504         27.7504
  21839347.0314  -14491638.32247 -11083760.56046                  21839353.0664
        21.2504         20.2504
  24329023.2664   18437532.83945  14366893.65745                  24329032.4924
         9.7504          9.0004
  22105483.4454   -6482481.99147  -5051287.57346                  22105490.0204
        23.0004         23.5004
  20404712.4614  -18119866.66648 -13973684.63447                  20404718.6374
        30.5004         27.2504
  21293645.7504  -18929324.91648  -8642606.81647                  21293651.7034
        28.5004         27.0004
  24348857.1414   -2821096.48245  -2011627.29845                  24348871.7814
         7.7504          8.0004
 98  6 12 17  2 15.0000000  0  8G30G 4G 8G 7G 9G24G 5G10
  23702104.8984   -6089506.89946  -4552838.60446                  23702112.9654
        13.0004         13.7504
  21488419.5234   -6090932.57948  -4746179.69747                  21488425.5824
        29.5004         27.5004
  21838387.1024  -14496682.90847 -11087691.39546                  21838393.2894
        21.5004         20.5004
  24335608.5394   18472136.49145  14393857.53145                  24335615.9144
         9.5004          9.0004
  22110917.6804   -6453925.39447  -5029035.70346                  22110924.7504
        22.2504         23.7504
  20404108.1644  -18123040.99448 -13976158.12847                  20404114.6334
        30.5004         27.0004
  21288136.1484  -18958278.01948  -8665167.66247                  21288142.0904
        28.5004         27.0004
  24339719.5634   -2869111.88545  -2049041.51645                  24339731.9184
         7.7504          8.5004
 98  6 12 17  2 30.0000000  0  8G30G 4G 8G 7G 9G24G 5G10
  23692970.4224   -6137505.78146  -4590240.25046                  23692977.6454
        12.7504         13.5004
  21494343.8834   -6059800.06548  -4721920.60347                  21494350.1174
        28.5004         27.7504
  21837456.7974  -14501571.73847 -11091500.87746                  21837462.7974
        21.2504         20.7504
  24342192.8444   18506738.47945  14420820.09845                  24342201.7894
         9.0004          8.7504
  22116372.4844   -6425261.28247  -5006700.05246                  22116379.5784
        21.7504         23.7504
  20403528.3134  -18126088.68248 -13978532.93147                  20403534.9454
        29.5004         26.7504
  21282640.7194  -18987156.55548  -8687670.40547                  21282646.7194
        28.5004         27.2504
  24330582.5864   -2917125.25244
         7.0004
 98  6 12 17  2 45.0000000  0  8G30G 4G 8G 7G 9G24G 5G10
  23683840.6174   -6185482.24046  -4627624.46946                  23683848.0984
        12.7504         13.5004
  21500287.1564   -6028567.34747  -4697583.42947                  21500293.7194
        27.7504         27.5004
  21836555.6724  -14506308.00347 -11095191.48546                  21836561.8834
        22.0004         21.0004
  24348776.4694   18541340.57145  14447782.71145                  24348784.9804
         8.5004          9.0004
  22121847.4614   -6396489.19247  -4984280.26546                  22121855.0124
        22.0004         23.5004
  20402971.6724  -18129012.48348 -13980811.21147                  20402978.1054
        28.0004         26.2504
  21277159.2584  -19015961.17548  -8710115.55847                  21277165.2234
        28.7504         27.5004
  24321446.3054   -2965137.60844
         7.2504
 98  6 12 17  3  0.0000000  0  8G30G 4G 8G 7G 9G24G 5G10
  23674716.3674   -6233429.07345  -4664985.59246                  23674724.4574
        11.5004         13.0004
  21506250.3444   -5997230.62747  -4673165.21747                  21506256.8364
        27.0004         27.2504
  21835684.4534  -14510887.91347 -11098760.24846                  21835690.4884
        22.0004         21.2504
  24355362.0704   18575948.43144  14474749.84545                  24355369.9264
         7.2504          8.0004
  22127344.3204   -6367604.12447  -4961772.44146                  22127351.8014
        22.2504         23.5004
  20402439.5704  -18131808.65847 -13982990.04247                  20402446.0394
        27.2504         26.0004
  21271692.8524  -19044687.02248  -8732499.32647                  21271699.0634
        28.7504         27.0004
  24312310.2194   -3013146.29744
         7.2504
 98  6 12 17  3 15.0000000  0  8G30G 4G 8G 7G 9G24G 5G10
  23665598.2344   -6281344.64246  -4702322.35146                  23665606.1724
        12.0004         13.5004
  21512233.5944   -5965787.83147  -4648664.34647                  21512239.9924
        27.0004         26.7504
  21834841.6564  -14515315.84947 -11102210.59846                  21834848.0434
        23.0004         21.5004
  24361949.4144   18610562.13344  14501721.54945                  24361955.9414
         6.2504          7.5004
  22132861.9534   -6338608.92947  -4939178.81146                  22132869.1174
        22.7504         23.0004
  20401931.5394  -18134478.70147 -13985070.58447                  20401937.9734
        27.5004         26.0004
  21266241.3984  -19073334.67648  -8754822.16547                  21266247.3284
        28.0004         27.2504
  24303175.9844   -3061150.29544
         7.0004
 98  6 12 17  3 30.0000000  0  8G30G 4G 8G 7G 9G24G 5G10
  23656485.8524   -6329233.93345  -4739638.62146                  23656494.1054
        11.7504         12.7504
  21518236.7114   -5934242.10647  -4624083.26847                  21518243.4494
        26.2504         26.7504
  21834027.4614  -14519593.97247 -11105544.19346                  21834034.3554
        23.0004         22.0004
  24368536.3674   18645179.58144  14528696.07545                  24368543.8484
         6.2504          7.2504
  22138399.4694   -6309508.50847  -4916503.16946                  22138406.4454
        22.7504         23.0004
  20401446.8444  -18137026.32547 -13987055.74347                  20401453.3714
        27.5004         26.0004
  21260804.8524  -19101903.53547  -8777083.60547                  21260810.9924
        27.0004         27.0004
  24294041.1884   -3109151.58044
         6.5004
 98  6 12 17  3 45.0000000  0  8G30G 4G 8G 7G 9G24G 5G10
  23647377.6724   -6377095.38146  -4776933.23246                  23647385.6214
        12.2504         13.0004
  21524260.0944   -5902589.20847  -4599418.68347                  21524266.7274
        26.5004         26.5004
  21833243.6024  -14523713.70747 -11108754.37846                  21833249.8954
        23.2504         22.0004
  24375127.2114   18679809.11544  14555680.13745                  24375134.5514
         7.0004          6.2504
  22143957.7664   -6280299.98347  -4893743.29946                  22143964.5044
        22.2504         23.0004
  20400985.9064  -18139447.57048 -13988942.41447                  20400992.5864
        28.0004         26.2504
  21255384.7584  -19130385.37747  -8799277.23147                  21255391.1684
        26.7504         26.7504
  24284908.4384   -3157146.41244    -22437.68955                  24284918.2504
         6.7504          7.7504
 98  6 12 17  4  0.0000000  0  8G30G 4G 8G 7G 9G24G 5G10
  23638274.5084   -6424933.44246  -4814209.59246                  23638282.0704
        12.7504         13.2504
  21530302.9304   -5870833.34347  -4574673.85847                  21530309.4694
        26.2504         26.5004
  21832489.9304  -14527674.90647 -11111841.02346                  21832496.0354
        23.7504         21.7504
  24381718.7424   18714449.87145  14582672.87045                  24381726.5744
         7.5004          8.2504
  22149535.0704   -6250990.25347  -4870904.56546                  22149541.8324
        23.0004         23.2504
  20400548.1414  -18141748.17148 -13990735.08347                  20400555.1644
        28.7504         26.7504
  21249981.2584  -19158782.08747  -8821404.53147                  21249987.4694
        27.0004         27.0004
  24275775.6884   -3205139.30745    -59834.67645                  24275785.5594
         7.5004          8.0004
 98  6 12 17  4 15.0000000  0  8G30G 4G 8G 7G 9G24G 5G10
  23629176.6174   -6472743.52246  -4851464.16246                  23629184.6954
        13.0004         13.0004
  21536366.2664   -5838969.94347  -4549845.24247                  21536372.8874
        27.0004         26.2504
  21831767.5784  -14531469.14347 -11114797.57846                  21831773.4844
        24.5004         21.7504
  24388314.0474   18749105.76345  14609677.48345                  24388323.8484
         8.0004          7.5004
  22155132.8754   -6221574.60947  -4847983.30146                  22155139.4844
        23.0004         23.7504
  20400134.6024  -18143922.41248 -13992429.28447                  20400141.5434
        29.2504         27.2504
  21244594.5864  -19187089.24047  -8843462.04047                  21244600.6914
        27.2504         26.7504
  24266643.1564   -3253126.94344    -97227.53445                  24266654.9844
         6.7504          7.5004
 98  6 12 17  4 30.0000000  0  8G30G 4G 8G 7G 9G24G 5G10
  23620082.4774   -6520533.49746  -4888703.05146                  23620090.2624
        13.0004         13.2504
  21542448.1414   -5807010.41947  -4524941.72747                  21542454.1294
        27.2504         26.0004
  21831075.9384  -14535104.97947 -11117630.70046                  21831081.9264
        24.7504         22.0004
  24394910.5164   18783768.31345  14636687.23045                  24394920.4104
         8.2504          7.2504
  22160748.8134   -6192061.80147  -4824986.33446                  22160755.5044
        22.7504         23.0004
  20399743.9064  -18145974.74448 -13994028.49547                  20399750.8134
        30.0004         27.7504
  21239223.4384  -19215314.76647  -8865455.94947                  21239229.4264
        27.5004         26.7504
  24257510.8054   -3301116.82244   -134622.22545                  24257520.6174
         6.2504          7.2504
 98  6 12 17  4 45.0000000  0  8G30G 4G 8G 7G 9G24G 5G10
  23610993.0164   -6568300.34446  -4925923.94046                  23611000.1684
        12.7504         13.0004
  21548548.5084   -5774951.70148  -4499960.91647                  21548554.5084
        28.5004         26.2504
  21830414.9384  -14538578.93847 -11120337.68146                  21830421.1484
        23.7504         22.0004
  24401507.8444   18818442.00245  14663705.64545                  24401516.9304
         8.5004          8.5004
  22166384.6254   -6162445.44747  -4801908.67646                  22166391.5314
        22.0004         23.0004
  20399378.4144  -18147895.75848 -13995525.37947                  20399384.9884
        30.7504         28.2504
  21233868.3594  -19243455.25547  -8887383.59647                  21233874.4534
        27.2504         26.7504
  24248379.8914   -3349101.50444   -172012.75845                  24248392.8914
         6.2504          7.2504
 98  6 12 17  5  0.0000000  0  8G30G 4G 8G 7G 9G24G 5G10
  23601906.3204   -6616050.31546  -4963131.66846                  23601914.6214
        13.0004         13.0004
  21554668.0234   -5742794.63448  -4474903.46847                  21554673.9654
        28.5004         26.0004
  21829783.7194  -14541895.55847 -11122922.06346                  21829789.9304
        23.7504         22.0004
  24408107.1644   18853121.30345  14690728.45045                  24408116.2274
         8.7504          8.2504
  22172039.5864   -6132728.13947  -4778752.36446                  22172046.7504
        22.2504         23.2504
  20399037.3594  -18149689.05048 -13996922.74347                  20399043.8284
        31.0004         28.5004
  21228528.4064  -19271516.64047  -8909249.60047                  21228534.4654
        27.7504         26.7504
  24239250.3284   -3397081.98444   -209400.08645                  24239260.1764
         7.0004          7.7504
 98  6 12 17  5 15.0000000  0  8G30G 4G 8G 7G 9G24G 5G10
  23592823.4064   -6663780.12946  -5000323.67146                  23592830.8634
        13.5004         13.2504
  21560806.7344   -5710535.30348  -4449766.33947                  21560812.6414
        28.7504         26.2504
  21829183.5784  -14545049.52847 -11125379.71346                  21829189.7074
        24.0004         22.0004
  24414708.4454   18887808.17345  14717757.13745                  24414718.9144
         8.2504          8.5004
  22177714.1724   -6102908.63047  -4755516.40946                  22177721.5004
        21.7504         23.0004
  20398721.1644  -18151349.86048 -13998216.87747                  20398727.4224
        31.2504         28.5004
  21223204.2894  -19299495.54347  -8931051.33747                  21223210.3364
        27.7504         27.0004
  24230120.5314   -3445053.36144   -246780.29045                  24230130.9184
         6.5004          8.2504
 98  6 12 17  5 30.0000000  0  8G30G 4G 8G 7G 9G24G 5G10
  23583743.6174   -6711495.97246  -5037504.81146                  23583751.3444
        14.0004         13.7504
  21566964.3054   -5678178.71548  -4424553.42747                  21566970.2464
        29.0004         26.0004
  21828613.3134  -14548045.97147 -11127714.59946                  21828619.3484
        24.5004         22.2504
  24421309.9384   18922499.25545  14744789.14845                  24421320.3834
         8.7504          7.7504
  22183407.4384   -6072992.33947  -4732205.03546                  22183414.5434
        22.0004         23.0004
  20398430.1644  -18152879.88448 -13999409.10047                  20398436.5514
        31.2504         28.7504
  21217894.9844  -19327397.41347  -8952793.04647                  21217901.1954
        27.2504         27.0004
  24220993.1644   -3493019.31444   -284156.28945                  24221004.7234
         6.5004          7.7504
 98  6 12 17  5 45.0000000  0  8G30G 4G 8G 7G 9G24G 5G10
  23574665.9064   -6759198.79846  -5074675.80446                  23574673.1414
        14.5004         13.2504
  21573139.4144   -5645727.53247  -4399266.79847                  21573145.4844
        27.7504         26.0004
  21828073.7974  -14550882.61247 -11129924.97946                  21828079.9024
        24.0004         22.2504
  24427911.7274   18957193.38645  14771823.49845                  24427920.4494
         7.7504          7.5004
  22189119.0634   -6042977.53447  -4708816.89746                  22189125.8364
        22.7504         22.7504
  20398164.3444  -18154276.80048 -14000497.60347                  20398170.9774
        31.7504         29.5004
  21212599.2664  -19355226.25447  -8974477.84447                  21212605.5354
        27.2504         27.2504
  24211866.2344   -3540981.78445   -321529.54445                  24211877.6884
         7.7504          8.2504
 98  6 12 17  6  0.0000000  0  8G30G 4G 8G 7G 9G24G 5G10
  23565591.8834   -6806881.32546  -5111830.99046                  23565599.7034
        13.2504         13.7504
  21579333.6954   -5613176.40448  -4373902.30647                  21579339.7194
        28.5004         26.2504
  21827564.1564  -14553560.20847 -11132011.41346                  21827570.2274
        24.0004         22.5004
  24434515.0634   18991892.46044  14798861.67345                  24434524.4304
         7.2504          7.5004
  22194850.3524   -6012859.74747  -4685348.51046                  22194857.2584
        22.0004         22.7504
  20397924.6334  -18155536.90848 -14001479.50547                  20397931.4654
        32.0004         29.7504
  21207317.8284  -19382980.68747  -8996104.67547                  21207323.9224
        27.2504         27.2504
  24202740.8524   -3588935.43345   -358895.98345                  24202751.8484
         8.0004          8.2504
 98  6 12 17  6 15.0000000  0  8G30G 4G 8G 7G 9G24G 5G10
  23556523.7584   -6854536.11246  -5148964.53846                  23556530.7934
        14.5004         13.5004
  21585547.2584   -5580522.89347  -4348458.02347                  21585553.4694
        27.7504         25.7504
  21827084.6484  -14556078.75647 -11133973.92546                  21827091.0354
        23.2504         22.5004
  24441118.3284   19026594.65044  14825902.30945                  24441127.6484
         6.7504          7.2504
  22200602.0394   -5982635.26447  -4661796.98346                  22200608.9454
        22.7504         23.0004
  20397711.7034  -18156655.30148 -14002350.97647                  20397718.7274
        32.2504         30.0004
  21202050.9224  -19410657.50447  -9017671.01447                  21202057.1094
        26.7504         27.0004
  24193618.2194   -3636876.63445   -396252.66145                  24193629.4614
         7.7504          8.7504
 98  6 12 17  6 30.0000000  0  8G30G 4G 8G 7G 9G24G 5G10
  23547460.4454   -6902163.83846  -5186077.01946                  23547466.9734
        14.5004         13.2504
  21591779.7974   -5547770.51047  -4322936.69747                  21591785.8554
        27.5004         25.7504
  21826634.7274  -14558443.38547 -11135816.49446                  21826641.2544
        23.0004         22.0004
  24447721.3984   19061293.99744  14852940.77145                  24447731.5984
         6.2504          7.5004
  22206373.0234   -5952306.74347  -4638164.39146                  22206379.9884
        22.7504         22.7504
  20397525.5864  -18157633.01148 -14003112.81647                  20397532.5044
        32.0004         29.7504
  21196797.9534  -19438261.00347  -9039180.22447                  21196804.1294
        26.7504         27.0004
  24184497.3914   -3684808.50245   -433602.08845                  24184510.3554
         7.5004          9.2504
 98  6 12 17  6 45.0000000  0  8G30G 4G 8G 7G 9G24G 5G10
  23538403.9844   -6949757.16646  -5223162.69246                  23538410.6294
        14.0004         12.7504
  21598032.4224   -5514912.80947  -4297333.30647                  21598038.4454
        26.7504         25.7504
  21826214.8134  -14560650.32747 -11137536.19346                  21826221.0594
        22.7504         22.0004
  24454325.2274   19095995.82245  14879981.01445                  24454337.7704
         7.5004          8.0004
  22212165.6564   -5921867.47047  -4614445.50346                  22212172.5744
        22.5004         22.7504
  20397367.5784  -18158464.06848 -14003760.39047                  20397374.4494
        32.0004         29.5004
  21191560.4614  -19465784.86947  -9060627.38847                  21191566.4264
        26.7504         27.0004
  24175378.1484   -3732725.99945   -470940.35245                  24175392.1914
         7.5004          8.7504
 98  6 12 17  7  0.0000000  0  8G30G 4G 8G 7G 9G24G 5G10
  23529351.8284   -6997324.91246  -5260228.43946                  23529359.1214
        14.2504         13.2504
  21604304.2814   -5481954.05847  -4271651.16847                  21604310.4924
        27.2504         26.0004
  21825822.9064  -14562707.92647 -11139139.51746                  21825828.8714
        22.2504         21.5004
  24460927.4774   19130691.61145  14907016.70545                  24460935.9774
         8.0004          7.5004
  22217977.8054   -5891324.63747  -4590645.91646                  22217985.0274
        21.5004         22.5004
  20397235.0784  -18159159.08848 -14004301.96347                  20397241.6294
        31.2504         29.0004
  21186336.7274  -19493235.70047  -9082017.63547                  21186342.6804
        27.0004         27.0004
  24166259.8984   -3780640.52744   -508276.24745                  24166271.2114
         7.2504          9.0004
 98  6 12 17  7 15.0000000  0  8G30G 4G 8G 7G 9G24G 5G10
  23520306.8204   -7044858.22746  -5297267.34046                  23520313.5824
        14.0004         13.0004
  21610596.6804   -5448886.58347  -4245884.32347                  21610603.2424
        26.7504         26.0004
  21825461.5234  -14564608.48847 -11140620.47946                  21825467.6994
        22.2504         21.5004
  24467530.4224   19165390.41245  14934054.68345                  24467538.8284
         9.2504          8.0004
  22223810.1334   -5860674.06247  -4566762.37246                  22223817.2384
        21.2504         22.5004
  20397130.0234  -18159712.65448 -14004733.30547                  20397136.7034
        30.5004         28.5004
  21181128.4924  -19520605.26047  -9103344.55147                  21181134.5984
        26.7504         27.0004
  24157143.4774   -3828546.91644   -545605.82045                  24157156.9104
         6.7504          9.2504
 98  6 12 17  7 30.0000000  0  8G30G 4G 8G 7G 9G24G 5G10
  23511266.7814   -7092360.60946  -5334282.14546                  23511274.2734
        13.2504         12.2504
  21616908.8204   -5415716.91947  -4220037.84547                  21616915.0904
        27.2504         26.2504
  21825128.9534  -14566356.58047 -11141982.62746                  21825135.0124
        22.0004         21.7504
  24474134.2424   19200090.31545  14961093.56645                  24474142.2154
        10.0004          8.2504
  22229662.7664   -5829919.97047  -4542798.16246                  22229669.7424
        21.0004         22.5004
  20397050.6804  -18160128.26948 -14005057.15447                  20397057.2074
        30.5004         27.7504
  21175935.3594  -19547895.41747  -9124609.60347                  21175941.4534
        26.5004         27.2504
  24148028.3054   -3876451.33744   -582933.89145                  24148042.6414
         6.5004          8.7504
 98  6 12 17  7 45.0000000  0  8G30G 4G 8G 7G 9G24G 5G10
  23502232.7274   -7139837.41046  -5371277.01246                  23502240.5944
        13.7504         13.0004
  21623239.4844   -5382449.85147  -4194115.46047                  21623246.0124
        27.2504         26.2504
  21824824.4224  -14567955.31647 -11143228.39346                  21824830.7504
        23.0004         21.7504
  24480736.8524   19234787.62045  14988130.39945                  24480746.4414
        10.2504          8.2504
  22235533.9064   -5799065.48447  -4518755.72046                  22235540.6334
        21.5004         22.2504
  20396996.7814  -18160410.96048 -14005277.42547                  20397003.1914
        29.7504         27.5004
  21170756.6254  -19575108.41847  -9145814.52847                  21170762.8014
        26.7504         27.0004
  24138912.4384   -3924357.25244   -620263.08745                  24138926.0594
         6.5004          9.0004
 98  6 12 17  8  0.0000000  0  8G30G 4G 8G 7G 9G24G 5G10
  23493203.5784   -7187284.99246  -5408249.12046                  23493210.8594
        13.0004         12.2504
  21629589.0164   -5349082.23547  -4168114.72547                  21629595.7544
        27.2504         26.2504
  21824549.3284  -14569401.01847 -11144354.91546                  21824555.6454
        21.7504         22.0004
  24487339.9924   19269486.98445  15015168.82645                  24487350.6484
         9.7504          9.0004
  22241425.1254   -5768107.19047  -4494632.39546                  22241432.2894
        21.2504         22.0004
  20396967.8524  -18160561.72648 -14005394.90147                  20396974.0744
        29.2504         27.2504
  21165594.3674  -19602236.28347  -9166953.11547                  21165600.6024
        26.2504         27.0004
  24129796.7344   -3972258.04545   -657588.31745                  24129810.2034
         7.5004          8.2504
 98  6 12 17  8 15.0000000  0  8G30G 4G 8G 7G 9G24G 5G10
  23484179.0234   -7234708.89946  -5445202.78446                  23484186.6334
        14.0004         13.2504
  21635956.2974   -5315621.61447  -4142041.52447                  21635962.6844
        27.2504         26.2504
  21824302.8914  -14570697.45647 -11145365.12946                  21824310.0084
        22.0004         22.0004
  24493943.4694   19304185.52445  15042206.59245                  24493953.7734
        10.0004          9.2504
  22247334.5164   -5737050.91347  -4470432.71746                  22247341.4694
        20.7504         21.7504
  20396963.5234  -18160586.02748 -14005413.83447                  20396969.9574
        29.5004         26.7504
  21160448.4844  -19629280.06047  -9188026.17647                  21160454.8364
        26.0004         26.7504
  24120681.7344   -4020156.30045   -694911.57245                  24120695.9184
         7.7504          8.5004
 98  6 12 17  8 30.0000000  0  8G30G 4G 8G 7G 9G24G 5G10
  23475158.9844   -7282110.28846  -5482138.89146                  23475166.6174
        14.5004         13.7504
  21642341.2814   -5282069.96947  -4115897.39247                  21642347.5634
        27.7504         26.2504
  21824085.5784  -14571839.31847 -11146254.88746                  21824092.4734
        22.7504         22.5004
  24500546.0784   19338886.73245  15069246.48345                  24500556.4414
         9.5004          8.7504
  22253263.7344   -5705894.43047  -4446154.95946                  22253270.6764
        20.0004         21.7504
  20396982.9144  -18160482.54448 -14005333.18947                  20396989.3134
        28.7504         26.5004
  21155318.1174  -19656238.62947  -9209032.84547                  21155324.4574
        26.2504         27.2504
  24111567.2974   -4068050.11445   -732231.35145                  24111578.9264
         7.5004          9.2504
 98  6 12 17  8 45.0000000  0  8G30G 4G 8G 7G 9G24G 5G10
  23466144.1724   -7329483.91046  -5519053.36946                  23466151.2074
        14.5004         13.7504
  21648744.4614   -5248420.81048  -4089677.27347                  21648750.8364
        28.0004         26.2504
  21823899.2034  -14572819.12947 -11147018.37346                  21823905.7894
        23.2504         22.2504
  24507152.2814   19373601.28245  15096296.72645                  24507162.2114
         9.0004          8.0004
  22259212.9064   -5674629.48147  -4421792.68546                  22259220.4344
        20.5004         22.0004
  20397027.9774  -18160245.69048 -14005148.61447                  20397034.6094
        28.7504         26.7504
  21150205.2974  -19683105.83147  -9229968.30647                  21150211.7774
        26.2504         27.0004
  24102456.6724   -4115931.95145   -769541.81545                  24102468.4654
         7.5004          9.2504
 98  6 12 17  9  0.0000000  0  8G30G 4G 8G 7G 9G24G 5G10
  23457132.4144   -7376841.25746  -5555955.15146                  23457138.8134
        14.7504         13.0004
  21655165.0784   -5214680.29948  -4063385.97147                  21655171.2074
        28.5004         26.5004
  21823742.0864  -14573644.47847 -11147661.50346                  21823748.3914
        22.7504         22.2504
  24513759.0944   19408322.71145  15123352.33245                  24513769.5394
         9.0004          8.7504
  22265181.5704   -5643265.43947  -4397353.18346                  22265189.2034
        21.0004         22.2504
  20397097.2274  -18159882.82448 -14004865.85847                  20397103.9534
        28.5004         26.5004
  21145108.9144  -19709886.82947  -9250836.60947                  21145115.3014
        26.0004         26.7504
  24093345.6334   -4163809.66245   -806849.04945                  24093355.5744
         7.5004          9.2504
 98  6 12 17  9 15.0000000  0  8G30G 4G 8G 7G 9G24G 5G10
  23448123.7894   -7424178.16746  -5592841.04446                  23448130.8134
        13.0004         12.7504
  21661603.8754   -5180845.37948  -4037021.10547                  21661609.9924
        28.7504         26.5004
  21823615.1024  -14574311.92647 -11148181.59446                  21823621.5354
        22.2504         22.2504
  24520368.6254   19443054.92945  15150416.32845                  24520378.4614
         8.7504          8.2504
  22271168.7504   -5611803.32247  -4372837.27146                  22271176.3244
        21.0004         22.2504
  20397190.9454  -18159391.58848 -14004483.07547                  20397197.4964
        28.7504         26.2504
  21140029.8444  -19736577.22547  -9271634.30847                  21140036.1134
        26.2504         26.7504
  24084236.6254   -4211677.29644   -844148.42545                  24084247.3634
         7.0004          9.2504
 98  6 12 17  9 30.0000000  0  8G30G 4G 8G 7G 9G24G 5G10
  23439120.1884   -7471493.62446  -5629710.17346                  23439127.3754
        12.5004         13.0004
  21668059.5474   -5146921.07248  -4010586.58447                  21668065.5474
        28.2504         26.5004
  21823517.5784  -14574822.77847 -11148579.65546                  21823524.3984
        21.2504         22.2504
  24526979.1254   19477795.83045  15177487.13545                  24526990.1214
         9.0004          8.5004
  22277173.8364   -5580245.52547  -4348246.80546                  22277181.3984
        21.5004         22.5004
  20397308.6094  -18158773.01948 -14004001.07047                  20397314.9494
        28.7504         26.2504
  21134967.9924  -19763178.19147  -9292362.32447                  21134974.3094
        26.2504         27.0004
  24075129.6564   -4259532.58744   -881438.15545                  24075140.3484
         6.2504          9.2504
 98  6 12 17  9 45.0000000  0  8G30G 4G 8G 7G 9G24G 5G10
  23430119.7664   -7518789.78046  -5666564.29346                  23430126.5044
        13.7504         13.2504
  21674531.8284   -5112907.26448  -3984082.32447                  21674538.0164
        28.0004         26.2504
  21823450.0554  -14575177.21747 -11148855.83846                  21823457.3244
        21.2504         22.2504
  24533592.1094   19512543.11345  15204562.88145                  24533602.4844
         9.2504          9.0004
  22283197.4384   -5548590.83747  -4323580.83046                  22283204.9654
        21.2504         22.5004
  20397450.0394  -18158029.34348 -14003421.57747                  20397456.1094
        29.7504         26.7504
  21129923.3834  -19789688.45747  -9313019.66647                  21129929.4774
        26.5004         26.5004
  24066025.7584   -4307374.94144   -918717.86345                  24066038.2194
         6.5004          8.7504
 98  6 12 17 10  0.0000000  0  8G30G 4G 8G 7G 9G24G 5G10
  23421122.8284   -7566069.53046  -5703405.60846                  23421130.3674
        13.5004         13.2504
  21681020.9064   -5078806.42847  -3957510.25546                  21681027.0234
        27.2504         25.5004
  21823412.1334  -14575376.36647 -11149011.01746                  21823419.7304
        21.0004         22.0004
  24540204.2664   19547292.67545  15231640.43445                  24540213.3754
         8.7504          8.7504
  22289238.8054   -5516844.11947  -4298843.15246                  22289246.2854
        20.5004         22.5004
  20397614.2814  -18157164.89848 -14002747.98547                  20397620.2464
        30.7504         27.0004
  21124895.2274  -19816111.97047  -9333609.41147                  21124901.2974
        26.5004         26.5004
  24056923.1724   -4355206.95044   -955989.48145                  24056934.2384
         7.2504          9.0004
 98  6 12 17 10 15.0000000  0  7G30G 4G 8G 9G24G 5G10
  23412130.7814   -7613323.86446  -5740227.13546                  23412137.6994
        15.7504         14.5004
  21687527.9304   -5044612.76245  -3930865.84246                  21687533.7544
         9.0004         16.0004
  21823405.1804  -14575414.28747 -11149040.56346                  21823412.9414
        21.7504         22.5004
  22295298.5554   -5485001.63447  -4274030.85846                  22295306.3164
        21.0004         22.5004
  20397803.3754  -18156172.76448 -14001974.88047                  20397809.6094
        30.0004         26.2504
  21119884.3594  -19842443.72947  -9354127.65347                  21119890.4184
        26.2504         25.7504
  24047823.9384   -4403026.21245   -993251.18345                  24047834.1024
         9.2504          9.0004
 98  6 12 17 10 30.0000000  0  6G30G 8G 9G24G 5G10
  23403144.1724   -7660550.05546  -5777026.71746                  23403151.1254
        12.5004         13.0004
  21823428.5944  -14575289.58646 -11148943.39446                  21823435.9924
        18.2504         21.7504
  22301375.4534   -5453061.62646  -4249142.56946                  22301383.0984
        18.2504         21.0004
  20398017.2504  -18155048.44048 -14001098.78747                  20398023.4494
        29.0004         26.7504
  21114891.1484  -19868684.40247  -9374574.93247                  21114897.2894
        27.7504         27.0004
  24038726.3444     -35057.40355
        10.0004
 98  6 12 17 10 45.0000000  0  6G30G 4G 8G 9G24G 5
  23394160.6954   -7707756.53546  -5813810.92446                  23394168.2584
        14.7504         13.2504
  21700595.0474       4587.23757
        27.7504
  21823481.7974  -14575011.03547 -11148726.35146                  21823488.6564
        20.7504         21.7504
  22307470.7814   -5421033.04446  -4224185.22246                  22307478.3324
        19.2504         21.2504
  20398255.1564  -18153798.67648 -14000124.91947                  20398261.5904
        30.7504         27.5004
  21109913.1334  -19894842.67947  -9394957.98547                  21109919.1804
        25.7504         26.5004
 98  6 12 17 11  0.0000000  0  6G30G 8G 9G24G 5G10
  23385183.0634   -7754935.72546  -5850573.92746                  23385189.5784
        13.2504         12.2504
  21823565.3594  -14574573.18447 -11148385.17246                  21823572.2664
        21.7504         22.7504
  22313584.1024   -5388910.27047  -4199154.52746                  22313591.9804
        22.2504         22.2504
  20398518.3524  -18152415.32848 -13999046.99747                  20398524.8674
        31.2504         27.2504
  21104952.6954  -19920909.47747  -9415269.77947                  21104958.8834
        26.5004         28.0004
  24020530.0634     -15929.50053
         5.7504
 98  6 12 17 11 15.0000000  0  5G30G 8G 9G24G 5
  23376210.9924   -7802082.64546  -5887311.74046                  23376218.7774
        14.0004         12.0004
  21823679.2664  -14573974.35746 -11147918.54946                  21823685.9804
        19.5004         22.0004
  22319714.9844   -5356691.32446  -4174048.85346                  22319722.7814
        19.7504         21.2504
  20398807.1884  -18150897.53948 -13997864.29847                  20398813.7974
        30.5004         27.5004
  21100010.3284  -19946881.47747  -9435507.68347                  21100016.4924
        26.0004         26.7504
 98  6 12 17 11 30.0000000  0  5G30G 8G 9G24G 5
  23367245.6254   -7849196.99846  -5924024.19646                  23367252.6844
        12.7504         12.5004
  21823822.7584  -14573217.48546 -11147328.76746                  21823829.2854
        19.7504         21.2504
  22325864.0004   -5324378.99847  -4148870.44446                  22325871.6214
        20.5004         21.2504
  20399120.2424  -18149251.62748 -13996581.76147                  20399126.6884
        30.5004         27.5004
  21095084.4454  -19972767.83447  -9455678.85547                  21095090.5394
        26.0004         26.2504
 98  6 12 17 11 45.0000000  0  5G30G 8G 9G24G 5
  23358285.6174   -7896281.58246  -5960713.44245                  23358293.1334
        12.5004         11.7504
  21823997.3364  -14572302.56547 -11146615.85946                  21824003.7934
        21.7504         22.0004
  22332030.5164   -5291973.40547  -4123619.35146                  22332038.1254
        21.2504         21.5004
  20399457.3364  -18147479.78448 -13995201.09747                  20399463.6524
        31.2504         27.0004
  21090174.1644  -19998572.02047  -9475786.01947                  21090180.1884
        27.7504         28.0004
 98  6 12 17 12  0.0000000  0  6G30G 8G 9G24G 5G10
  23349333.1174   -7943327.83546  -5997372.82546                  23349340.4454
        12.7504         12.7504
  21824203.0394  -14571222.08246 -11145773.93346                  21824209.5434
        19.7504         21.2504
  22338215.4384   -5259469.38546  -4098291.57846                  22338222.6134
        19.7504         21.5004
  20399820.6334  -18145571.71048 -13993714.27647                  20399826.9844
        30.7504         27.5004
  21085280.5004  -20024287.71047  -9495824.19947                  21085286.6994
        26.5004         26.7504
  23984168.1564     -35014.87955
         7.7504
 98  6 12 17 12 15.0000000  0  6G30G 8G 9G24G 5G10
  23340387.3754   -7990337.73746  -6034003.89346                  23340394.5984
        12.7504         12.5004
  21824438.6954  -14569982.69246 -11144808.14146                  21824445.5044
        19.5004         21.5004
  22344418.7504   -5226872.12246  -4072891.11946                  22344425.8204
        19.5004         21.2504
  20400209.5704  -18143528.20148 -13992121.93147                  20400215.5234
        31.2504         27.0004
  21080402.7734  -20049920.77347  -9515798.01847                  21080408.9144
        26.5004         27.2504
  23975083.3054     -82756.93345
         7.7504
 98  6 12 17 12 30.0000000  0  6G30G 8G 9G24G 5G10
  23331449.0944   -8037308.39245  -6070604.36145                  23331456.5864
         9.7504          9.5004
  21824704.3444  -14568584.49147 -11143718.69446                  21824711.5664
        20.0004         23.2504
  22350640.9614   -5194176.56547  -4047414.08446                  22350648.2194
        21.7504         21.2504
  20400624.9304  -18141344.67547 -13990420.45046                  20400630.9654
        27.7504         25.0004
  21075540.6564  -20075471.24448  -9535707.49047                  21075546.7384
        30.0004         29.7504
  23966001.8284    -130482.10445
         9.2504
 98  6 12 17 12 45.0000000  0  6G30G 8G 9G24G 5G10
  23322518.3444   -8084240.45845  -6107174.80545                  23322525.1054
        11.7504         11.0004
  21825000.8984  -14567029.71146 -11142507.14246                  21825007.8524
        19.2504         22.0004
  22356881.0704   -5161381.13746  -4021859.21346                  22356888.5514
        18.5004         21.5004
  20401067.0474  -18139021.95848 -13988610.55247                  20401073.2234
        31.0004         26.0004
  21070694.1254  -20100940.08148  -9555553.31547                  21070700.3134
        28.2504         29.0004
  23956923.2734    -178185.32244
         6.7504
 98  6 12 17 13  0.0000000  0  5G30G 8G 9G24G 5
  23313594.6024   -8131133.58346  -6143714.83246                  23313601.4964
        16.2504         15.0004
  21825325.9844  -14565320.21347 -11141175.06646                  21825332.6054
        21.5004         21.5004
  22363140.3834   -5128487.15246  -3996227.56246                  22363148.3674
        17.5004         20.5004
  20401534.7274  -18136564.62148 -13986695.76447                  20401540.9494
        31.0004         26.2504
  21065862.9924  -20126327.71847  -9575335.88647                  21065869.1094
        26.7504         26.5004
 98  6 12 17 13 15.0000000  0  5G30G 8G 9G24G 5
  23304679.3444   -8177984.77346  -6180222.23546                  23304685.6954
        13.0004         12.0004
  21825680.8364  -14563455.59547 -11139722.09946                  21825687.3524
        20.5004         21.5004
  22369419.1254   -5095494.89347  -3970519.34146                  22369426.5824
        20.5004         21.0004
  20402027.7814  -18133973.90348 -13984677.00347                  20402034.2384
        29.5004         25.7504
  21061047.6414  -20151632.83647  -9595054.16347                  21061053.7584
        27.2504         27.7504
 98  6 12 17 13 30.0000000  0  6G30G 8G 9G24G 5G10
  23295771.4614   -8224794.62246  -6216697.40946                  23295778.2344
        15.2504         13.5004
  21826065.3364  -14561433.84847 -11138146.68546                  21826072.0864
        20.0004         20.7504
  22375715.7584   -5062405.26247  -3944735.20946                  22375722.9694
        20.0004         21.0004
  20402545.7194  -18131250.64448 -13982554.99747                  20402552.2704
        30.5004         26.5004
  21056247.5394  -20176858.38847  -9614710.42747                  21056253.6214
        26.7504         26.7504
  23929715.6804     -34929.21854
         6.7504
 98  6 12 17 13 45.0000000  0  6G30G 8G 9G24G 5G10
  23286871.1954   -8271566.41646  -6253142.92146                  23286878.3014
        13.2504         12.7504
  21826480.5474  -14559252.16846 -11136446.70446                  21826487.2624
        19.2504         21.2504
  22382031.7424   -5029216.40746  -3918873.79846                  22382039.0594
        19.0004         20.5004
  20403090.1094  -18128389.88348 -13980325.81547                  20403096.6374
        30.0004         26.2504
  21051462.9694  -20202001.24947  -9634302.26247                  21051469.1094
        27.7504         27.2504
  23920654.6724     -82546.33244
         7.2504
 98  6 12 17 14  0.0000000  0  6G30G 8G 9G24G 5G10
  23277976.9534   -8318304.88246  -6289562.48646                  23277983.8954
        15.2504         13.5004
  21826925.5004  -14556914.13747 -11134624.86646                  21826932.5004
        21.5004         22.0004
  22388365.9694   -4995929.95647  -3892936.33446                  22388373.1094
        21.2504         20.7504
  20403660.9304  -18125390.24248 -13977988.42747                  20403667.6094
        30.2504         27.0004
  21046694.9384  -20227057.99448  -9653826.99247                  21046700.9494
        28.0004         27.0004
  23911596.6174    -130145.11644
         6.7504
 98  6 12 17 14 15.0000000  0  6G30G 8G 9G24G 5G10
  23269089.4614   -8365009.28646  -6325955.48546                  23269096.6604
        14.0004         13.5004
  21827399.7894  -14554422.54247 -11132683.37146                  21827406.4574
        23.0004         21.7504
  22394718.7344   -4962546.47746  -3866923.25546                  22394726.0394
        18.7504         20.5004
  20404257.7734  -18122253.42348 -13975544.14647                  20404264.1844
        30.0004         27.0004
  21041943.6024  -20252025.40147  -9673282.11747                  21041949.7074
        27.7504         27.5004
  23902542.5474    -177725.66244
         6.7504
 98  6 12 17 14 30.0000000  0  6G30G 8G 9G24G 5G10
  23260208.1564   -8411680.64046  -6362322.73646                  23260214.8834
        16.2504         15.0004
  21827903.2734  -14551777.66247 -11130622.46046                  21827910.0824
        23.2504         22.2504
  22401089.6954   -4929065.64847  -3840834.34146                  22401096.8364
        20.0004         21.2504
  20404880.0554  -18118983.99448 -13972996.52747                  20404886.5004
        30.0004         27.0004
  21037209.3444  -20276903.19547  -9692667.40147                  21037215.1684
        27.7504         27.5004
  23893491.1644    -225286.12544
         6.5004
 98  6 12 17 14 45.0000000  0  6G30G 4G 8G 9G24G 5
  23251332.2504   -8458322.96746  -6398667.37946                  23251339.2504
        14.0004         14.0004
  21807777.4924       2390.05055
        10.5004
  21828435.4694  -14548979.65347 -11128442.18546                  21828442.3874
        25.2504         22.5004
  22407478.8364   -4895491.12147  -3814672.37146                  22407485.7074
        20.2504         20.0004
  20405526.3134  -18115587.11348 -13970349.60847                  20405532.5124
        30.7504         26.7504
  21032492.8444  -20301689.91947  -9711981.72847                  21032498.8324
        27.0004         27.5004
 98  6 12 17 15  0.0000000  0  5G30G 8G 9G24G 5
  23242461.4384   -8504938.59346  -6434991.21546                  23242468.6134
        17.0004         15.2504
  21828997.7194  -14546026.92547 -11126141.34746                  21829004.5044
        24.2504         22.7504
  22413885.0084   -4861826.50546  -3788440.23646                  22413891.9614
        17.0004         18.5004
  20406196.6334  -18112064.89848 -13967605.00647                  20406202.8324
        30.0004         26.7504
  21027794.1804  -20326381.93848  -9731222.27547                  21027800.3914
        28.7504         28.0004
 98  6 12 17 15 15.0000000  0  6G30G 4G 8G 9G24G 5
  23233596.6724   -8551523.05046  -6471290.76746                  23233603.5904
        17.2504         16.7504
  21821472.6094      19223.87655
        11.0004
  21829590.4534  -14542910.89347 -11123713.32746                  21829597.5004
        22.5004         22.7504
  22420308.9534   -4828068.53947  -3762135.34546                  22420315.8364
        21.2504         20.5004
  20406891.5004  -18108412.77848 -13964759.18847                  20406897.8984
        30.2504         27.2504
  21023114.6724  -20350972.44448  -9750383.70547                  21023120.9064
        28.5004         28.2504
 98  6 12 17 15 30.0000000  0  7G30G 4G 8G 9G24G 5G10
  23224737.4614   -8598079.78046  -6507568.70746                  23224744.3794
        15.7504         15.2504
  21828346.3444      55345.82047
        25.7504
  21830213.8754  -14539633.72047 -11121159.64846                  21830220.5664
        22.0004         22.5004
  22426750.0234   -4794220.64646  -3735760.37646                  22426756.5394
        19.7504         20.5004
  20407610.8674  -18104633.14748 -13961814.03347                  20407617.3954
        29.5004         27.2504
  21018453.7974  -20375464.75847  -9769468.60647                  21018460.2424
        26.5004         27.0004
  23857323.1724     -34817.60455
         7.5004
 98  6 12 17 15 45.0000000  0  7G30G 4G 8G 9G24G 5G10
  23215883.5704   -8644607.25346  -6543823.84946                  23215890.0864
        15.2504         15.7504
  21835238.4694      91563.61447
        25.0004
  21830868.5634  -14536193.30447 -11118478.81346                  21830874.8914
        22.0004         22.0004
  22433208.9064   -4760278.89246  -3709312.28646                  22433215.8594
        19.2504         20.5004
  20408354.8674  -18100723.92248 -13958767.87547                  20408361.5944
        29.5004         27.5004
  21013812.6024  -20399854.64647  -9788473.71047                  21013819.2344
        26.0004         27.2504
  23848292.0704     -82276.97945
         7.5004
 98  6 12 17 16  0.0000000  0  7G30G 4G 8G 9G24G 5G10
  23207034.9614   -8691106.19946  -6580056.75946                  23207041.5704
        15.0004         16.0004
  21842147.8284     127873.41447        -2.59356                  21842155.1094
        24.5004         23.5004
  21831553.2584  -14532595.81847 -11115675.57946                  21831559.4574
        22.2504         22.2504
  22439685.0784   -4726247.43846  -3682794.29346                  22439691.7584
        19.5004         20.2504
  20409122.5944  -18096689.15248 -13955623.88747                  20409129.1564
        30.0004         27.5004
  21009190.6334  -20424143.01747  -9807399.70547                  21009197.5274
        25.7504         27.2504
  23839264.8914    -129714.91445
         8.2504
 98  6 12 17 16 15.0000000  0  7G30G 4G 8G 9G24G 5G10
  23198193.3204   -8737567.41046  -6616260.26346                  23198199.8594
        15.0004         15.5004
  21849075.4064     164278.39647     28364.91246                  21849082.1564
        24.7504         24.0004
  21832268.6954  -14528836.53947 -11112746.27646                  21832274.6604
        23.0004         22.0004
  22446178.2734   -4692123.45146  -3656204.19546                  22446184.9064
        19.5004         20.2504
  20409914.6954  -18092526.88348 -13952380.55347                  20409921.1054
        30.2504         27.2504
  21004588.8054  -20448325.54447  -9826243.21947                  21004595.9224
        26.2504         27.0004
  23830242.6334    -177125.97945
         8.5004
 98  6 12 17 16 30.0000000  0  7G30G 4G 8G 9G24G 5G10
  23189359.2194   -8783992.96946  -6652435.97046                  23189367.3914
        14.5004         15.5004
  21856020.4774     200774.61347     56803.51046                  21856027.3834
        24.0004         24.0004
  21833014.3364  -14524917.58747 -11109692.55146                  21833020.2774
        23.5004         22.0004
  22452689.2114   -4657910.52446  -3629544.79146                  22452695.9264
        19.7504         20.2504
  20410729.9144  -18088243.40448 -13949042.77547                  20410735.9964
        30.7504         27.2504
  21000005.6484  -20472409.67147  -9845010.06147                  21000012.3054
        27.0004         27.0004
  23821225.3834    -224512.59245
         9.0004
 98  6 12 17 16 45.0000000  0  7G30G 4G 8G 9G24G 5G10
  23180530.2194   -8830386.73646  -6688586.93146                  23180537.1134
        14.2504         15.2504
  21862982.2894     237360.20747     85311.74746                  21862989.3714
        23.7504         24.0004
  21833790.8754  -14520838.49247 -11106514.03446                  21833796.9344
        24.5004         22.5004
  22459216.1484   -4623610.62446  -3602817.61346                  22459222.7234
        19.7504         20.0004
  20411568.0554  -18083839.13748 -13945610.87247                  20411574.1604
        31.5004         27.2504
  20995440.7194  -20496399.18547  -9863703.17647                  20995447.0594
        26.7504         27.0004
  23812211.7504    -271878.84745    -31984.74155                  23812221.1054
         9.7504         10.0004
